Wetterdaten: Sonntag, 08.05.2016
Datum Zeit Temp. A. Feuchte A. Luftdruck Regen Wind Richtung Richtung Sonnenschein ET UV Solar Taupunkt Windchill Windben Empfang
08.05.2016 00:00 14,3 C 56 % 1012,0 hPa 0,0 l/m 20,5 km/h (4 Bft) O 84 0 min 0,000 mm 0,0 UV-I 0 W/m 5,6 C 8,7 C 27,4 km/h (4 Bft) 100,00 %
08.05.2016 00:02 14,3 C 56 % 1012,0 hPa 0,0 l/m 19,1 km/h (3 Bft) O-NO 74 0 min 0,000 mm 0,0 UV-I 0 W/m 5,6 C 9,1 C 25,7 km/h (4 Bft) 97,73 %
08.05.2016 00:03 14,3 C 56 % 1012,0 hPa 0,0 l/m 20,9 km/h (4 Bft) O 79 0 min 0,000 mm 0,0 UV-I 0 W/m 5,6 C 8,6 C 25,7 km/h (4 Bft) 100,00 %
08.05.2016 00:04 14,3 C 56 % 1012,0 hPa 0,0 l/m 22,3 km/h (4 Bft) O-NO 59 0 min 0,000 mm 0,0 UV-I 0 W/m 5,6 C 8,3 C 30,6 km/h (5 Bft) 95,83 %
08.05.2016 00:05 14,3 C 55 % 1012,0 hPa 0,0 l/m 19,0 km/h (3 Bft) NO 50 0 min 0,000 mm 0,0 UV-I 0 W/m 5,4 C 9,1 C 24,1 km/h (4 Bft) 100,00 %
08.05.2016 00:06 14,3 C 56 % 1012,0 hPa 0,0 l/m 21,3 km/h (4 Bft) NO 45 0 min 0,000 mm 0,0 UV-I 0 W/m 5,6 C 8,5 C 29,0 km/h (5 Bft) 100,00 %
08.05.2016 00:07 14,3 C 56 % 1012,0 hPa 0,0 l/m 16,9 km/h (3 Bft) O 81 0 min 0,000 mm 0,0 UV-I 0 W/m 5,6 C 9,7 C 24,1 km/h (4 Bft) 100,00 %
08.05.2016 00:08 14,3 C 56 % 1012,1 hPa 0,0 l/m 21,3 km/h (4 Bft) O 83 0 min 0,000 mm 0,0 UV-I 0 W/m 5,6 C 8,5 C 29,0 km/h (5 Bft) 100,00 %
08.05.2016 00:09 14,3 C 55 % 1012,0 hPa 0,0 l/m 19,5 km/h (3 Bft) O-NO 71 0 min 0,000 mm 0,0 UV-I 0 W/m 5,4 C 9,0 C 24,1 km/h (4 Bft) 95,65 %
08.05.2016 00:10 14,3 C 55 % 1012,1 hPa 0,0 l/m 22,1 km/h (4 Bft) O-NO 76 0 min 0,000 mm 0,0 UV-I 0 W/m 5,4 C 8,3 C 27,4 km/h (4 Bft) 95,83 %
08.05.2016 00:11 14,2 C 56 % 1012,1 hPa 0,0 l/m 19,8 km/h (3 Bft) NO 44 0 min 0,000 mm 0,0 UV-I 0 W/m 5,6 C 8,8 C 29,0 km/h (5 Bft) 95,65 %
08.05.2016 00:12 14,2 C 55 % 1012,1 hPa 0,0 l/m 20,3 km/h (4 Bft) O-NO 64 0 min 0,000 mm 0,0 UV-I 0 W/m 5,3 C 8,6 C 25,7 km/h (4 Bft) 100,00 %
08.05.2016 00:13 14,2 C 55 % 1012,1 hPa 0,0 l/m 19,8 km/h (3 Bft) NO 41 0 min 0,000 mm 0,0 UV-I 0 W/m 5,3 C 8,8 C 24,1 km/h (4 Bft) 95,65 %
08.05.2016 00:14 14,2 C 56 % 1012,1 hPa 0,0 l/m 21,0 km/h (4 Bft) NO 53 0 min 0,000 mm 0,0 UV-I 0 W/m 5,6 C 8,5 C 27,4 km/h (4 Bft) 95,83 %
08.05.2016 00:15 14,2 C 55 % 1012,1 hPa 0,0 l/m 18,5 km/h (3 Bft) NO 53 0 min 0,000 mm 0,0 UV-I 0 W/m 5,3 C 9,1 C 22,5 km/h (4 Bft) 100,00 %
08.05.2016 00:16 14,2 C 56 % 1012,1 hPa 0,0 l/m 20,0 km/h (4 Bft) O-NO 57 0 min 0,000 mm 0,0 UV-I 0 W/m 5,6 C 8,7 C 27,4 km/h (4 Bft) 100,00 %
08.05.2016 00:17 14,2 C 56 % 1012,1 hPa 0,0 l/m 18,0 km/h (3 Bft) O-NO 68 0 min 0,000 mm 0,0 UV-I 0 W/m 5,6 C 9,3 C 22,5 km/h (4 Bft) 95,83 %
08.05.2016 00:18 14,2 C 56 % 1012,1 hPa 0,0 l/m 17,7 km/h (3 Bft) NO 55 0 min 0,000 mm 0,0 UV-I 0 W/m 5,6 C 9,4 C 25,7 km/h (4 Bft) 95,65 %
08.05.2016 00:19 14,1 C 56 % 1012,1 hPa 0,0 l/m 20,7 km/h (4 Bft) O 88 0 min 0,000 mm 0,0 UV-I 0 W/m 5,5 C 8,4 C 29,0 km/h (5 Bft) 95,83 %
08.05.2016 00:20 14,1 C 55 % 1012,1 hPa 0,0 l/m 23,9 km/h (4 Bft) NO 51 0 min 0,000 mm 0,0 UV-I 0 W/m 5,2 C 7,6 C 30,6 km/h (5 Bft) 95,65 %
08.05.2016 00:21 14,1 C 56 % 1012,1 hPa 0,0 l/m 18,3 km/h (3 Bft) O-NO 61 0 min 0,000 mm 0,0 UV-I 0 W/m 5,5 C 9,1 C 22,5 km/h (4 Bft) 100,00 %
08.05.2016 00:22 14,1 C 56 % 1012,1 hPa 0,0 l/m 24,3 km/h (4 Bft) NO 45 0 min 0,000 mm 0,0 UV-I 0 W/m 5,5 C 7,5 C 29,0 km/h (5 Bft) 96,15 %
08.05.2016 00:23 14,1 C 56 % 1012,1 hPa 0,0 l/m 20,4 km/h (4 Bft) O-NO 59 0 min 0,000 mm 0,0 UV-I 0 W/m 5,5 C 8,5 C 25,7 km/h (4 Bft) 96,30 %
08.05.2016 00:24 14,1 C 55 % 1012,1 hPa 0,0 l/m 23,9 km/h (4 Bft) NO 55 0 min 0,000 mm 0,0 UV-I 0 W/m 5,2 C 7,6 C 30,6 km/h (5 Bft) 100,00 %
08.05.2016 00:25 14,1 C 55 % 1012,1 hPa 0,0 l/m 23,8 km/h (4 Bft) NO 55 0 min 0,000 mm 0,0 UV-I 0 W/m 5,2 C 7,7 C 29,0 km/h (5 Bft) 100,00 %
08.05.2016 00:26 14,1 C 55 % 1012,1 hPa 0,0 l/m 19,2 km/h (3 Bft) O-NO 59 0 min 0,000 mm 0,0 UV-I 0 W/m 5,2 C 8,8 C 24,1 km/h (4 Bft) 96,30 %
08.05.2016 00:27 14,1 C 55 % 1012,1 hPa 0,0 l/m 20,9 km/h (4 Bft) O 88 0 min 0,000 mm 0,0 UV-I 0 W/m 5,2 C 8,3 C 30,6 km/h (5 Bft) 95,83 %
08.05.2016 00:28 14,1 C 55 % 1012,0 hPa 0,0 l/m 19,3 km/h (3 Bft) NO 55 0 min 0,000 mm 0,0 UV-I 0 W/m 5,2 C 8,8 C 27,4 km/h (4 Bft) 100,00 %
08.05.2016 00:29 14,1 C 55 % 1012,1 hPa 0,0 l/m 20,0 km/h (4 Bft) O-NO 64 0 min 0,000 mm 0,0 UV-I 0 W/m 5,2 C 8,6 C 29,0 km/h (5 Bft) 95,83 %
08.05.2016 00:30 14,0 C 56 % 1012,1 hPa 0,0 l/m 19,9 km/h (4 Bft) O-NO 76 0 min 0,000 mm 0,0 UV-I 0 W/m 5,4 C 8,5 C 27,4 km/h (4 Bft) 100,00 %
08.05.2016 00:31 14,0 C 56 % 1012,1 hPa 0,0 l/m 20,3 km/h (4 Bft) NO 35 0 min 0,000 mm 0,0 UV-I 0 W/m 5,4 C 8,4 C 24,1 km/h (4 Bft) 91,67 %
08.05.2016 00:32 13,9 C 56 % 1012,1 hPa 0,0 l/m 19,0 km/h (3 Bft) NO 43 0 min 0,000 mm 0,0 UV-I 0 W/m 5,3 C 8,6 C 25,7 km/h (4 Bft) 95,65 %
08.05.2016 00:33 13,9 C 55 % 1012,1 hPa 0,0 l/m 18,3 km/h (3 Bft) NO 42 0 min 0,000 mm 0,0 UV-I 0 W/m 5,0 C 8,8 C 25,7 km/h (4 Bft) 95,83 %
08.05.2016 00:34 13,9 C 56 % 1012,1 hPa 0,0 l/m 19,4 km/h (3 Bft) NO 51 0 min 0,000 mm 0,0 UV-I 0 W/m 5,3 C 8,5 C 25,7 km/h (4 Bft) 95,83 %
08.05.2016 00:35 13,8 C 56 % 1012,1 hPa 0,0 l/m 18,1 km/h (3 Bft) NO 56 0 min 0,000 mm 0,0 UV-I 0 W/m 5,2 C 8,7 C 27,4 km/h (4 Bft) 100,00 %
08.05.2016 00:36 13,8 C 56 % 1012,1 hPa 0,0 l/m 19,0 km/h (3 Bft) O-NO 57 0 min 0,000 mm 0,0 UV-I 0 W/m 5,2 C 8,5 C 25,7 km/h (4 Bft) 95,83 %
08.05.2016 00:37 13,8 C 56 % 1012,1 hPa 0,0 l/m 17,4 km/h (3 Bft) NO 53 0 min 0,000 mm 0,0 UV-I 0 W/m 5,2 C 8,9 C 22,5 km/h (4 Bft) 100,00 %
08.05.2016 00:38 13,8 C 57 % 1012,1 hPa 0,0 l/m 15,4 km/h (3 Bft) NO 51 0 min 0,000 mm 0,0 UV-I 0 W/m 5,4 C 9,6 C 19,3 km/h (3 Bft) 95,83 %
08.05.2016 00:39 13,8 C 57 % 1012,1 hPa 0,0 l/m 14,6 km/h (3 Bft) NO 55 0 min 0,000 mm 0,0 UV-I 0 W/m 5,4 C 9,9 C 19,3 km/h (3 Bft) 100,00 %
08.05.2016 00:40 13,8 C 57 % 1012,1 hPa 0,0 l/m 17,2 km/h (3 Bft) O-NO 57 0 min 0,000 mm 0,0 UV-I 0 W/m 5,4 C 9,0 C 24,1 km/h (4 Bft) 95,83 %
08.05.2016 00:41 13,7 C 57 % 1012,1 hPa 0,0 l/m 16,1 km/h (3 Bft) O-NO 58 0 min 0,000 mm 0,0 UV-I 0 W/m 5,3 C 9,2 C 22,5 km/h (4 Bft) 95,65 %
08.05.2016 00:42 13,7 C 57 % 1012,1 hPa 0,0 l/m 16,6 km/h (3 Bft) NO 55 0 min 0,000 mm 0,0 UV-I 0 W/m 5,3 C 9,1 C 22,5 km/h (4 Bft) 100,00 %
08.05.2016 00:43 13,7 C 57 % 1012,1 hPa 0,0 l/m 18,8 km/h (3 Bft) O-NO 71 0 min 0,000 mm 0,0 UV-I 0 W/m 5,3 C 8,4 C 20,9 km/h (4 Bft) 95,65 %
08.05.2016 00:44 13,6 C 57 % 1012,1 hPa 0,0 l/m 18,3 km/h (3 Bft) NO 46 0 min 0,000 mm 0,0 UV-I 0 W/m 5,2 C 8,4 C 22,5 km/h (4 Bft) 100,00 %
08.05.2016 00:45 13,6 C 57 % 1012,1 hPa 0,0 l/m 18,9 km/h (3 Bft) NO 47 0 min 0,000 mm 0,0 UV-I 0 W/m 5,2 C 8,2 C 30,6 km/h (5 Bft) 100,00 %
08.05.2016 00:46 13,6 C 57 % 1012,1 hPa 0,0 l/m 17,9 km/h (3 Bft) NO 56 0 min 0,000 mm 0,0 UV-I 0 W/m 5,2 C 8,5 C 22,5 km/h (4 Bft) 100,00 %
08.05.2016 00:47 13,5 C 58 % 1012,1 hPa 0,0 l/m 16,4 km/h (3 Bft) O-NO 64 0 min 0,000 mm 0,0 UV-I 0 W/m 5,4 C 8,9 C 22,5 km/h (4 Bft) 95,65 %
08.05.2016 00:48 13,5 C 58 % 1012,2 hPa 0,0 l/m 15,7 km/h (3 Bft) NO 44 0 min 0,000 mm 0,0 UV-I 0 W/m 5,4 C 9,1 C 19,3 km/h (3 Bft) 100,00 %
08.05.2016 00:49 13,4 C 58 % 1012,2 hPa 0,0 l/m 14,1 km/h (3 Bft) O-NO 61 0 min 0,000 mm 0,0 UV-I 0 W/m 5,3 C 9,6 C 19,3 km/h (3 Bft) 100,00 %
08.05.2016 00:50 13,4 C 58 % 1012,2 hPa 0,0 l/m 16,4 km/h (3 Bft) NO 48 0 min 0,000 mm 0,0 UV-I 0 W/m 5,3 C 8,8 C 20,9 km/h (4 Bft) 95,83 %
08.05.2016 00:51 13,4 C 58 % 1012,2 hPa 0,0 l/m 15,5 km/h (3 Bft) NO 41 0 min 0,000 mm 0,0 UV-I 0 W/m 5,3 C 9,1 C 20,9 km/h (4 Bft) 100,00 %
08.05.2016 00:52 13,3 C 58 % 1012,2 hPa 0,0 l/m 15,2 km/h (3 Bft) O-NO 59 0 min 0,000 mm 0,0 UV-I 0 W/m 5,2 C 9,1 C 19,3 km/h (3 Bft) 100,00 %
08.05.2016 00:53 13,3 C 58 % 1012,2 hPa 0,0 l/m 16,6 km/h (3 Bft) NO 43 0 min 0,000 mm 0,0 UV-I 0 W/m 5,2 C 8,6 C 27,4 km/h (4 Bft) 95,83 %
08.05.2016 00:54 13,3 C 58 % 1012,2 hPa 0,0 l/m 16,6 km/h (3 Bft) O-NO 57 0 min 0,000 mm 0,0 UV-I 0 W/m 5,2 C 8,6 C 19,3 km/h (3 Bft) 100,00 %
08.05.2016 00:55 13,3 C 58 % 1012,2 hPa 0,0 l/m 14,9 km/h (3 Bft) O 80 0 min 0,000 mm 0,0 UV-I 0 W/m 5,2 C 9,2 C 20,9 km/h (4 Bft) 95,83 %
08.05.2016 00:56 13,3 C 58 % 1012,2 hPa 0,0 l/m 15,8 km/h (3 Bft) O-NO 68 0 min 0,000 mm 0,0 UV-I 0 W/m 5,2 C 8,9 C 22,5 km/h (4 Bft) 100,00 %
08.05.2016 00:57 13,2 C 58 % 1012,2 hPa 0,0 l/m 17,2 km/h (3 Bft) O-NO 68 0 min 0,000 mm 0,0 UV-I 0 W/m 5,1 C 8,3 C 20,9 km/h (4 Bft) 100,00 %
08.05.2016 00:58 13,2 C 58 % 1012,2 hPa 0,0 l/m 13,6 km/h (3 Bft) O-NO 78 0 min 0,000 mm 0,0 UV-I 0 W/m 5,1 C 9,5 C 17,7 km/h (3 Bft) 100,00 %
08.05.2016 00:59 13,2 C 58 % 1012,2 hPa 0,0 l/m 14,6 km/h (3 Bft) NO 52 0 min 0,000 mm 0,0 UV-I 0 W/m 5,1 C 9,2 C 20,9 km/h (4 Bft) 100,00 %
08.05.2016 01:00 13,2 C 58 % 1012,2 hPa 0,0 l/m 15,6 km/h (3 Bft) NO 36 0 min 0,102 mm 0,0 UV-I 0 W/m 5,1 C 8,8 C 20,9 km/h (4 Bft) 100,00 %
08.05.2016 01:01 13,2 C 58 % 1012,2 hPa 0,0 l/m 15,6 km/h (3 Bft) O-NO 68 0 min 0,000 mm 0,0 UV-I 0 W/m 5,1 C 8,8 C 20,9 km/h (4 Bft) 100,00 %
08.05.2016 01:02 13,2 C 58 % 1012,2 hPa 0,0 l/m 18,8 km/h (3 Bft) NO 54 0 min 0,000 mm 0,0 UV-I 0 W/m 5,1 C 7,8 C 22,5 km/h (4 Bft) 100,00 %
08.05.2016 01:03 13,1 C 58 % 1012,2 hPa 0,0 l/m 13,4 km/h (3 Bft) O-NO 60 0 min 0,000 mm 0,0 UV-I 0 W/m 5,0 C 9,5 C 17,7 km/h (3 Bft) 100,00 %
08.05.2016 01:04 13,1 C 59 % 1012,2 hPa 0,0 l/m 14,8 km/h (3 Bft) O-NO 73 0 min 0,000 mm 0,0 UV-I 0 W/m 5,3 C 9,0 C 20,9 km/h (4 Bft) 100,00 %
08.05.2016 01:05 13,1 C 58 % 1012,2 hPa 0,0 l/m 15,3 km/h (3 Bft) O-NO 67 0 min 0,000 mm 0,0 UV-I 0 W/m 5,0 C 8,8 C 20,9 km/h (4 Bft) 100,00 %
08.05.2016 01:06 13,1 C 59 % 1012,2 hPa 0,0 l/m 16,2 km/h (3 Bft) O-NO 60 0 min 0,000 mm 0,0 UV-I 0 W/m 5,3 C 8,5 C 20,9 km/h (4 Bft) 100,00 %
08.05.2016 01:07 13,1 C 59 % 1012,2 hPa 0,0 l/m 14,1 km/h (3 Bft) O 79 0 min 0,000 mm 0,0 UV-I 0 W/m 5,3 C 9,2 C 19,3 km/h (3 Bft) 100,00 %
08.05.2016 01:08 13,1 C 58 % 1012,1 hPa 0,0 l/m 16,2 km/h (3 Bft) NO 56 0 min 0,000 mm 0,0 UV-I 0 W/m 5,0 C 8,5 C 19,3 km/h (3 Bft) 95,65 %
08.05.2016 01:09 13,1 C 59 % 1012,2 hPa 0,0 l/m 18,4 km/h (3 Bft) NO 53 0 min 0,000 mm 0,0 UV-I 0 W/m 5,3 C 7,8 C 22,5 km/h (4 Bft) 100,00 %
08.05.2016 01:10 13,1 C 59 % 1012,2 hPa 0,0 l/m 16,7 km/h (3 Bft) O-NO 67 0 min 0,000 mm 0,0 UV-I 0 W/m 5,3 C 8,3 C 25,7 km/h (4 Bft) 100,00 %
08.05.2016 01:11 13,1 C 59 % 1012,2 hPa 0,0 l/m 18,0 km/h (3 Bft) O-NO 61 0 min 0,000 mm 0,0 UV-I 0 W/m 5,3 C 7,9 C 20,9 km/h (4 Bft) 100,00 %
08.05.2016 01:12 13,0 C 59 % 1012,2 hPa 0,0 l/m 13,9 km/h (3 Bft) NO 42 0 min 0,000 mm 0,0 UV-I 0 W/m 5,2 C 9,2 C 17,7 km/h (3 Bft) 100,00 %
08.05.2016 01:13 13,0 C 60 % 1012,1 hPa 0,0 l/m 15,2 km/h (3 Bft) NO 39 0 min 0,000 mm 0,0 UV-I 0 W/m 5,4 C 8,7 C 20,9 km/h (4 Bft) 100,00 %
08.05.2016 01:14 13,0 C 59 % 1012,1 hPa 0,0 l/m 16,9 km/h (3 Bft) O 87 0 min 0,000 mm 0,0 UV-I 0 W/m 5,2 C 8,1 C 20,9 km/h (4 Bft) 100,00 %
08.05.2016 01:15 12,9 C 59 % 1012,1 hPa 0,0 l/m 16,8 km/h (3 Bft) O 80 0 min 0,000 mm 0,0 UV-I 0 W/m 5,1 C 8,0 C 20,9 km/h (4 Bft) 100,00 %
08.05.2016 01:16 12,9 C 59 % 1012,2 hPa 0,0 l/m 18,5 km/h (3 Bft) O-NO 65 0 min 0,000 mm 0,0 UV-I 0 W/m 5,1 C 7,5 C 24,1 km/h (4 Bft) 100,00 %
08.05.2016 01:17 12,9 C 59 % 1012,1 hPa 0,0 l/m 17,0 km/h (3 Bft) NO 55 0 min 0,000 mm 0,0 UV-I 0 W/m 5,1 C 8,0 C 22,5 km/h (4 Bft) 100,00 %
08.05.2016 01:18 12,9 C 59 % 1012,1 hPa 0,0 l/m 15,7 km/h (3 Bft) NO 51 0 min 0,000 mm 0,0 UV-I 0 W/m 5,1 C 8,4 C 19,3 km/h (3 Bft) 100,00 %
08.05.2016 01:19 12,9 C 59 % 1012,0 hPa 0,0 l/m 16,6 km/h (3 Bft) O-NO 59 0 min 0,000 mm 0,0 UV-I 0 W/m 5,1 C 8,1 C 20,9 km/h (4 Bft) 100,00 %
08.05.2016 01:20 12,9 C 60 % 1012,1 hPa 0,0 l/m 15,8 km/h (3 Bft) O-NO 57 0 min 0,000 mm 0,0 UV-I 0 W/m 5,3 C 8,4 C 20,9 km/h (4 Bft) 100,00 %
08.05.2016 01:21 12,8 C 60 % 1012,0 hPa 0,0 l/m 21,7 km/h (4 Bft) NO 51 0 min 0,000 mm 0,0 UV-I 0 W/m 5,2 C 6,4 C 27,4 km/h (4 Bft) 95,65 %
08.05.2016 01:22 12,8 C 59 % 1012,0 hPa 0,0 l/m 15,9 km/h (3 Bft) O-NO 62 0 min 0,000 mm 0,0 UV-I 0 W/m 5,0 C 8,2 C 19,3 km/h (3 Bft) 100,00 %
08.05.2016 01:23 12,8 C 60 % 1012,0 hPa 0,0 l/m 17,0 km/h (3 Bft) O-NO 65 0 min 0,000 mm 0,0 UV-I 0 W/m 5,2 C 7,8 C 20,9 km/h (4 Bft) 100,00 %
08.05.2016 01:24 12,8 C 60 % 1012,1 hPa 0,0 l/m 16,7 km/h (3 Bft) O-NO 68 0 min 0,000 mm 0,0 UV-I 0 W/m 5,2 C 7,9 C 20,9 km/h (4 Bft) 100,00 %
08.05.2016 01:25 12,8 C 60 % 1012,0 hPa 0,0 l/m 18,9 km/h (3 Bft) O-NO 68 0 min 0,000 mm 0,0 UV-I 0 W/m 5,2 C 7,2 C 25,7 km/h (4 Bft) 95,65 %
08.05.2016 01:26 12,7 C 60 % 1012,0 hPa 0,0 l/m 18,6 km/h (3 Bft) NO 54 0 min 0,000 mm 0,0 UV-I 0 W/m 5,1 C 7,2 C 22,5 km/h (4 Bft) 95,83 %
08.05.2016 01:27 12,7 C 61 % 1012,0 hPa 0,0 l/m 19,3 km/h (3 Bft) O-NO 71 0 min 0,000 mm 0,0 UV-I 0 W/m 5,4 C 7,0 C 25,7 km/h (4 Bft) 100,00 %
08.05.2016 01:28 12,7 C 61 % 1012,0 hPa 0,0 l/m 17,5 km/h (3 Bft) NO 35 0 min 0,000 mm 0,0 UV-I 0 W/m 5,4 C 7,5 C 24,1 km/h (4 Bft) 95,83 %
08.05.2016 01:29 12,7 C 61 % 1012,0 hPa 0,0 l/m 13,4 km/h (3 Bft) O-NO 61 0 min 0,000 mm 0,0 UV-I 0 W/m 5,4 C 9,0 C 17,7 km/h (3 Bft) 100,00 %
08.05.2016 01:30 12,6 C 61 % 1012,0 hPa 0,0 l/m 17,0 km/h (3 Bft) NO 44 0 min 0,000 mm 0,0 UV-I 0 W/m 5,3 C 7,6 C 22,5 km/h (4 Bft) 100,00 %
08.05.2016 01:31 12,6 C 61 % 1012,0 hPa 0,0 l/m 18,0 km/h (3 Bft) O-NO 58 0 min 0,000 mm 0,0 UV-I 0 W/m 5,3 C 7,3 C 20,9 km/h (4 Bft) 100,00 %
08.05.2016 01:32 12,6 C 61 % 1012,0 hPa 0,0 l/m 19,8 km/h (3 Bft) O-NO 63 0 min 0,000 mm 0,0 UV-I 0 W/m 5,3 C 6,7 C 25,7 km/h (4 Bft) 100,00 %
08.05.2016 01:33 12,6 C 61 % 1012,0 hPa 0,0 l/m 18,3 km/h (3 Bft) O-NO 76 0 min 0,000 mm 0,0 UV-I 0 W/m 5,3 C 7,2 C 22,5 km/h (4 Bft) 100,00 %
08.05.2016 01:34 12,5 C 61 % 1012,0 hPa 0,0 l/m 16,9 km/h (3 Bft) NO 53 0 min 0,000 mm 0,0 UV-I 0 W/m 5,2 C 7,5 C 20,9 km/h (4 Bft) 100,00 %
08.05.2016 01:35 12,5 C 61 % 1012,0 hPa 0,0 l/m 17,3 km/h (3 Bft) O-NO 76 0 min 0,000 mm 0,0 UV-I 0 W/m 5,2 C 7,4 C 22,5 km/h (4 Bft) 96,15 %
08.05.2016 01:36 12,5 C 61 % 1012,0 hPa 0,0 l/m 18,8 km/h (3 Bft) O-NO 57 0 min 0,000 mm 0,0 UV-I 0 W/m 5,2 C 6,9 C 27,4 km/h (4 Bft) 100,00 %
08.05.2016 01:37 12,4 C 61 % 1012,1 hPa 0,0 l/m 16,9 km/h (3 Bft) NO 46 0 min 0,000 mm 0,0 UV-I 0 W/m 5,1 C 7,4 C 20,9 km/h (4 Bft) 100,00 %
08.05.2016 01:38 12,4 C 61 % 1012,0 hPa 0,0 l/m 17,8 km/h (3 Bft) O-NO 75 0 min 0,000 mm 0,0 UV-I 0 W/m 5,1 C 7,1 C 24,1 km/h (4 Bft) 100,00 %
08.05.2016 01:39 12,4 C 61 % 1012,1 hPa 0,0 l/m 18,7 km/h (3 Bft) NO 45 0 min 0,000 mm 0,0 UV-I 0 W/m 5,1 C 6,8 C 22,5 km/h (4 Bft) 100,00 %
08.05.2016 01:40 12,4 C 61 % 1012,1 hPa 0,0 l/m 17,8 km/h (3 Bft) NO 42 0 min 0,000 mm 0,0 UV-I 0 W/m 5,1 C 7,1 C 24,1 km/h (4 Bft) 100,00 %
08.05.2016 01:41 12,4 C 61 % 1012,1 hPa 0,0 l/m 17,1 km/h (3 Bft) NO 52 0 min 0,000 mm 0,0 UV-I 0 W/m 5,1 C 7,3 C 20,9 km/h (4 Bft) 100,00 %
08.05.2016 01:42 12,4 C 62 % 1012,0 hPa 0,0 l/m 16,8 km/h (3 Bft) O-NO 69 0 min 0,000 mm 0,0 UV-I 0 W/m 5,3 C 7,4 C 20,9 km/h (4 Bft) 100,00 %
08.05.2016 01:43 12,4 C 62 % 1012,1 hPa 0,0 l/m 18,0 km/h (3 Bft) NO 49 0 min 0,000 mm 0,0 UV-I 0 W/m 5,3 C 7,0 C 24,1 km/h (4 Bft) 100,00 %
08.05.2016 01:44 12,4 C 62 % 1012,0 hPa 0,0 l/m 19,6 km/h (3 Bft) NO 46 0 min 0,000 mm 0,0 UV-I 0 W/m 5,3 C 6,5 C 24,1 km/h (4 Bft) 100,00 %
08.05.2016 01:45 12,4 C 62 % 1012,0 hPa 0,0 l/m 17,4 km/h (3 Bft) O-NO 59 0 min 0,000 mm 0,0 UV-I 0 W/m 5,3 C 7,2 C 22,5 km/h (4 Bft) 100,00 %
08.05.2016 01:46 12,3 C 62 % 1012,0 hPa 0,0 l/m 14,9 km/h (3 Bft) O-NO 62 0 min 0,000 mm 0,0 UV-I 0 W/m 5,2 C 8,0 C 19,3 km/h (3 Bft) 100,00 %
08.05.2016 01:47 12,3 C 62 % 1012,0 hPa 0,0 l/m 15,2 km/h (3 Bft) O-NO 63 0 min 0,000 mm 0,0 UV-I 0 W/m 5,2 C 7,8 C 19,3 km/h (3 Bft) 100,00 %
08.05.2016 01:48 12,3 C 62 % 1012,0 hPa 0,0 l/m 18,3 km/h (3 Bft) NO 51 0 min 0,000 mm 0,0 UV-I 0 W/m 5,2 C 6,8 C 22,5 km/h (4 Bft) 100,00 %
08.05.2016 01:49 12,3 C 62 % 1012,0 hPa 0,0 l/m 18,5 km/h (3 Bft) NO 51 0 min 0,000 mm 0,0 UV-I 0 W/m 5,2 C 6,7 C 24,1 km/h (4 Bft) 100,00 %
08.05.2016 01:50 12,3 C 62 % 1012,0 hPa 0,0 l/m 22,1 km/h (4 Bft) NO 43 0 min 0,000 mm 0,0 UV-I 0 W/m 5,2 C 5,7 C 27,4 km/h (4 Bft) 91,30 %
08.05.2016 01:51 12,3 C 62 % 1012,0 hPa 0,0 l/m 19,8 km/h (3 Bft) NO 52 0 min 0,000 mm 0,0 UV-I 0 W/m 5,2 C 6,3 C 25,7 km/h (4 Bft) 100,00 %
08.05.2016 01:52 12,2 C 62 % 1012,0 hPa 0,0 l/m 18,5 km/h (3 Bft) NO 56 0 min 0,000 mm 0,0 UV-I 0 W/m 5,1 C 6,6 C 22,5 km/h (4 Bft) 100,00 %
08.05.2016 01:53 12,2 C 62 % 1012,0 hPa 0,0 l/m 16,0 km/h (3 Bft) NO 48 0 min 0,000 mm 0,0 UV-I 0 W/m 5,1 C 7,4 C 22,5 km/h (4 Bft) 100,00 %
08.05.2016 01:54 12,2 C 62 % 1012,0 hPa 0,0 l/m 16,5 km/h (3 Bft) NO 46 0 min 0,000 mm 0,0 UV-I 0 W/m 5,1 C 7,3 C 22,5 km/h (4 Bft) 100,00 %
08.05.2016 01:55 12,2 C 62 % 1012,0 hPa 0,0 l/m 16,5 km/h (3 Bft) O-NO 61 0 min 0,000 mm 0,0 UV-I 0 W/m 5,1 C 7,3 C 22,5 km/h (4 Bft) 100,00 %
08.05.2016 01:56 12,2 C 62 % 1012,0 hPa 0,0 l/m 18,6 km/h (3 Bft) NO 55 0 min 0,000 mm 0,0 UV-I 0 W/m 5,1 C 6,6 C 22,5 km/h (4 Bft) 100,00 %
08.05.2016 01:57 12,2 C 62 % 1012,0 hPa 0,0 l/m 17,8 km/h (3 Bft) O 80 0 min 0,000 mm 0,0 UV-I 0 W/m 5,1 C 6,8 C 24,1 km/h (4 Bft) 100,00 %
08.05.2016 01:58 12,2 C 62 % 1012,0 hPa 0,0 l/m 17,0 km/h (3 Bft) O-NO 68 0 min 0,000 mm 0,0 UV-I 0 W/m 5,1 C 7,1 C 22,5 km/h (4 Bft) 100,00 %
08.05.2016 01:59 12,2 C 62 % 1012,0 hPa 0,0 l/m 16,8 km/h (3 Bft) O-NO 63 0 min 0,000 mm 0,0 UV-I 0 W/m 5,1 C 7,1 C 25,7 km/h (4 Bft) 95,65 %
08.05.2016 02:00 12,2 C 63 % 1012,0 hPa 0,0 l/m 17,4 km/h (3 Bft) O-NO 61 0 min 0,076 mm 0,0 UV-I 0 W/m 5,4 C 6,9 C 24,1 km/h (4 Bft) 100,00 %
08.05.2016 02:01 12,2 C 62 % 1012,0 hPa 0,0 l/m 17,4 km/h (3 Bft) NO 47 0 min 0,000 mm 0,0 UV-I 0 W/m 5,1 C 6,9 C 20,9 km/h (4 Bft) 95,65 %
08.05.2016 02:02 12,2 C 63 % 1012,0 hPa 0,0 l/m 18,6 km/h (3 Bft) O-NO 61 0 min 0,000 mm 0,0 UV-I 0 W/m 5,4 C 6,6 C 22,5 km/h (4 Bft) 100,00 %
08.05.2016 02:03 12,2 C 63 % 1012,0 hPa 0,0 l/m 17,8 km/h (3 Bft) O-NO 57 0 min 0,000 mm 0,0 UV-I 0 W/m 5,4 C 6,8 C 22,5 km/h (4 Bft) 100,00 %
08.05.2016 02:04 12,2 C 63 % 1012,0 hPa 0,0 l/m 16,4 km/h (3 Bft) O-NO 67 0 min 0,000 mm 0,0 UV-I 0 W/m 5,4 C 7,3 C 24,1 km/h (4 Bft) 95,83 %
08.05.2016 02:05 12,1 C 62 % 1012,0 hPa 0,0 l/m 18,6 km/h (3 Bft) O-NO 66 0 min 0,000 mm 0,0 UV-I 0 W/m 5,0 C 6,4 C 24,1 km/h (4 Bft) 100,00 %
08.05.2016 02:06 12,1 C 62 % 1012,0 hPa 0,0 l/m 18,9 km/h (3 Bft) NO 55 0 min 0,000 mm 0,0 UV-I 0 W/m 5,0 C 6,3 C 25,7 km/h (4 Bft) 100,00 %
08.05.2016 02:07 12,2 C 62 % 1012,0 hPa 0,0 l/m 17,5 km/h (3 Bft) O-NO 74 0 min 0,000 mm 0,0 UV-I 0 W/m 5,1 C 6,9 C 22,5 km/h (4 Bft) 100,00 %
08.05.2016 02:08 12,1 C 63 % 1012,0 hPa 0,0 l/m 17,6 km/h (3 Bft) O-NO 67 0 min 0,000 mm 0,0 UV-I 0 W/m 5,3 C 6,8 C 22,5 km/h (4 Bft) 100,00 %
08.05.2016 02:09 12,1 C 62 % 1011,9 hPa 0,0 l/m 17,9 km/h (3 Bft) O-NO 61 0 min 0,000 mm 0,0 UV-I 0 W/m 5,0 C 6,7 C 24,1 km/h (4 Bft) 95,65 %
08.05.2016 02:10 12,1 C 62 % 1011,9 hPa 0,0 l/m 18,4 km/h (3 Bft) O-NO 61 0 min 0,000 mm 0,0 UV-I 0 W/m 5,0 C 6,5 C 25,7 km/h (4 Bft) 100,00 %
08.05.2016 02:11 12,1 C 62 % 1012,0 hPa 0,0 l/m 17,7 km/h (3 Bft) NO 42 0 min 0,000 mm 0,0 UV-I 0 W/m 5,0 C 6,7 C 22,5 km/h (4 Bft) 95,65 %
08.05.2016 02:12 12,1 C 62 % 1011,9 hPa 0,0 l/m 15,7 km/h (3 Bft) O-NO 62 0 min 0,000 mm 0,0 UV-I 0 W/m 5,0 C 7,4 C 20,9 km/h (4 Bft) 100,00 %
08.05.2016 02:13 12,1 C 63 % 1012,0 hPa 0,0 l/m 14,8 km/h (3 Bft) O-NO 67 0 min 0,000 mm 0,0 UV-I 0 W/m 5,3 C 7,8 C 17,7 km/h (3 Bft) 95,65 %
08.05.2016 02:14 12,1 C 63 % 1011,9 hPa 0,0 l/m 17,7 km/h (3 Bft) NO 56 0 min 0,000 mm 0,0 UV-I 0 W/m 5,3 C 6,7 C 25,7 km/h (4 Bft) 100,00 %
08.05.2016 02:15 12,1 C 62 % 1011,9 hPa 0,0 l/m 18,8 km/h (3 Bft) O-NO 59 0 min 0,000 mm 0,0 UV-I 0 W/m 5,0 C 6,4 C 24,1 km/h (4 Bft) 95,65 %
08.05.2016 02:16 12,1 C 63 % 1011,9 hPa 0,0 l/m 18,4 km/h (3 Bft) O-NO 71 0 min 0,000 mm 0,0 UV-I 0 W/m 5,3 C 6,5 C 24,1 km/h (4 Bft) 91,67 %
08.05.2016 02:17 12,1 C 62 % 1011,9 hPa 0,0 l/m 20,8 km/h (4 Bft) O-NO 70 0 min 0,000 mm 0,0 UV-I 0 W/m 5,0 C 5,8 C 27,4 km/h (4 Bft) 100,00 %
08.05.2016 02:18 12,1 C 63 % 1011,8 hPa 0,0 l/m 17,6 km/h (3 Bft) NO 51 0 min 0,000 mm 0,0 UV-I 0 W/m 5,3 C 6,8 C 24,1 km/h (4 Bft) 95,83 %
08.05.2016 02:19 12,1 C 62 % 1011,9 hPa 0,0 l/m 16,2 km/h (3 Bft) NO 44 0 min 0,000 mm 0,0 UV-I 0 W/m 5,0 C 7,2 C 19,3 km/h (3 Bft) 100,00 %
08.05.2016 02:20 12,1 C 63 % 1011,8 hPa 0,0 l/m 21,1 km/h (4 Bft) O 84 0 min 0,000 mm 0,0 UV-I 0 W/m 5,3 C 5,7 C 32,2 km/h (5 Bft) 92,86 %
08.05.2016 02:21 12,1 C 62 % 1011,9 hPa 0,0 l/m 19,0 km/h (3 Bft) NO 47 0 min 0,000 mm 0,0 UV-I 0 W/m 5,0 C 6,3 C 25,7 km/h (4 Bft) 96,30 %
08.05.2016 02:22 12,1 C 62 % 1011,8 hPa 0,0 l/m 20,4 km/h (4 Bft) N-NO 30 0 min 0,000 mm 0,0 UV-I 0 W/m 5,0 C 5,9 C 29,0 km/h (5 Bft) 95,65 %
08.05.2016 02:23 12,2 C 62 % 1011,8 hPa 0,0 l/m 21,0 km/h (4 Bft) NO 43 0 min 0,000 mm 0,0 UV-I 0 W/m 5,1 C 5,8 C 29,0 km/h (5 Bft) 100,00 %
08.05.2016 02:24 12,1 C 62 % 1011,8 hPa 0,0 l/m 19,8 km/h (3 Bft) O-NO 71 0 min 0,000 mm 0,0 UV-I 0 W/m 5,0 C 6,1 C 27,4 km/h (4 Bft) 91,30 %
08.05.2016 02:25 12,1 C 62 % 1011,8 hPa 0,0 l/m 24,9 km/h (4 Bft) O-NO 66 0 min 0,000 mm 0,0 UV-I 0 W/m 5,0 C 4,7 C 33,8 km/h (5 Bft) 95,83 %
08.05.2016 02:26 12,1 C 62 % 1011,8 hPa 0,0 l/m 23,6 km/h (4 Bft) O-NO 62 0 min 0,000 mm 0,0 UV-I 0 W/m 5,0 C 5,0 C 33,8 km/h (5 Bft) 100,00 %
08.05.2016 02:27 12,2 C 62 % 1011,7 hPa 0,0 l/m 23,0 km/h (4 Bft) NO 47 0 min 0,000 mm 0,0 UV-I 0 W/m 5,1 C 5,3 C 30,6 km/h (5 Bft) 95,83 %
08.05.2016 02:28 12,2 C 62 % 1011,7 hPa 0,0 l/m 24,7 km/h (4 Bft) NO 52 0 min 0,000 mm 0,0 UV-I 0 W/m 5,1 C 4,9 C 30,6 km/h (5 Bft) 100,00 %
08.05.2016 02:29 12,2 C 62 % 1011,8 hPa 0,0 l/m 21,1 km/h (4 Bft) O-NO 64 0 min 0,000 mm 0,0 UV-I 0 W/m 5,1 C 5,8 C 27,4 km/h (4 Bft) 95,83 %
08.05.2016 02:30 12,2 C 62 % 1011,7 hPa 0,0 l/m 21,3 km/h (4 Bft) NO 55 0 min 0,000 mm 0,0 UV-I 0 W/m 5,1 C 5,8 C 29,0 km/h (5 Bft) 95,65 %
08.05.2016 02:31 12,2 C 62 % 1011,7 hPa 0,0 l/m 20,4 km/h (4 Bft) O-NO 70 0 min 0,000 mm 0,0 UV-I 0 W/m 5,1 C 6,0 C 25,7 km/h (4 Bft) 100,00 %
08.05.2016 02:32 12,2 C 62 % 1011,7 hPa 0,0 l/m 20,8 km/h (4 Bft) O-NO 69 0 min 0,000 mm 0,0 UV-I 0 W/m 5,1 C 5,9 C 25,7 km/h (4 Bft) 91,30 %
08.05.2016 02:33 12,2 C 62 % 1011,7 hPa 0,0 l/m 15,8 km/h (3 Bft) O-NO 57 0 min 0,000 mm 0,0 UV-I 0 W/m 5,1 C 7,5 C 20,9 km/h (4 Bft) 100,00 %
08.05.2016 02:34 12,2 C 62 % 1011,7 hPa 0,0 l/m 17,4 km/h (3 Bft) O-NO 72 0 min 0,000 mm 0,0 UV-I 0 W/m 5,1 C 6,9 C 24,1 km/h (4 Bft) 100,00 %
08.05.2016 02:35 12,1 C 62 % 1011,7 hPa 0,0 l/m 20,0 km/h (4 Bft) O-NO 78 0 min 0,000 mm 0,0 UV-I 0 W/m 5,0 C 6,0 C 25,7 km/h (4 Bft) 96,15 %
08.05.2016 02:36 12,1 C 62 % 1011,7 hPa 0,0 l/m 20,9 km/h (4 Bft) NO 44 0 min 0,000 mm 0,0 UV-I 0 W/m 5,0 C 5,7 C 32,2 km/h (5 Bft) 95,83 %
08.05.2016 02:37 12,1 C 62 % 1011,7 hPa 0,0 l/m 19,1 km/h (3 Bft) O-NO 60 0 min 0,000 mm 0,0 UV-I 0 W/m 5,0 C 6,3 C 27,4 km/h (4 Bft) 100,00 %
08.05.2016 02:38 12,1 C 62 % 1011,7 hPa 0,0 l/m 19,6 km/h (3 Bft) O-NO 63 0 min 0,000 mm 0,0 UV-I 0 W/m 5,0 C 6,1 C 29,0 km/h (5 Bft) 95,83 %
08.05.2016 02:39 12,1 C 62 % 1011,7 hPa 0,0 l/m 17,9 km/h (3 Bft) O-NO 60 0 min 0,000 mm 0,0 UV-I 0 W/m 5,0 C 6,7 C 24,1 km/h (4 Bft) 100,00 %
08.05.2016 02:40 12,1 C 63 % 1011,6 hPa 0,0 l/m 18,1 km/h (3 Bft) NO 56 0 min 0,000 mm 0,0 UV-I 0 W/m 5,3 C 6,6 C 24,1 km/h (4 Bft) 95,83 %
08.05.2016 02:41 12,1 C 63 % 1011,6 hPa 0,0 l/m 18,3 km/h (3 Bft) NO 42 0 min 0,000 mm 0,0 UV-I 0 W/m 5,3 C 6,5 C 24,1 km/h (4 Bft) 96,15 %
08.05.2016 02:42 12,1 C 63 % 1011,6 hPa 0,0 l/m 17,4 km/h (3 Bft) NO 51 0 min 0,000 mm 0,0 UV-I 0 W/m 5,3 C 6,8 C 20,9 km/h (4 Bft) 100,00 %
08.05.2016 02:43 12,0 C 63 % 1011,6 hPa 0,0 l/m 18,6 km/h (3 Bft) NO 40 0 min 0,000 mm 0,0 UV-I 0 W/m 5,2 C 6,3 C 25,7 km/h (4 Bft) 100,00 %
08.05.2016 02:44 12,0 C 63 % 1011,6 hPa 0,0 l/m 20,6 km/h (4 Bft) O-NO 63 0 min 0,000 mm 0,0 UV-I 0 W/m 5,2 C 5,7 C 25,7 km/h (4 Bft) 100,00 %
08.05.2016 02:45 11,9 C 63 % 1011,6 hPa 0,0 l/m 19,9 km/h (4 Bft) O-NO 75 0 min 0,000 mm 0,0 UV-I 0 W/m 5,1 C 5,8 C 27,4 km/h (4 Bft) 100,00 %
08.05.2016 02:46 11,9 C 63 % 1011,6 hPa 0,0 l/m 21,3 km/h (4 Bft) NO 37 0 min 0,000 mm 0,0 UV-I 0 W/m 5,1 C 5,4 C 27,4 km/h (4 Bft) 100,00 %
08.05.2016 02:47 11,9 C 63 % 1011,6 hPa 0,0 l/m 22,1 km/h (4 Bft) O-NO 57 0 min 0,000 mm 0,0 UV-I 0 W/m 5,1 C 5,1 C 29,0 km/h (5 Bft) 92,86 %
08.05.2016 02:48 11,9 C 63 % 1011,6 hPa 0,0 l/m 24,0 km/h (4 Bft) NO 55 0 min 0,000 mm 0,0 UV-I 0 W/m 5,1 C 4,7 C 30,6 km/h (5 Bft) 100,00 %
08.05.2016 02:49 11,9 C 63 % 1011,6 hPa 0,0 l/m 18,9 km/h (3 Bft) NO 55 0 min 0,000 mm 0,0 UV-I 0 W/m 5,1 C 6,1 C 22,5 km/h (4 Bft) 100,00 %
08.05.2016 02:50 11,8 C 64 % 1011,6 hPa 0,0 l/m 19,4 km/h (3 Bft) O-NO 61 0 min 0,000 mm 0,0 UV-I 0 W/m 5,2 C 5,8 C 24,1 km/h (4 Bft) 100,00 %
08.05.2016 02:51 11,8 C 64 % 1011,6 hPa 0,0 l/m 20,5 km/h (4 Bft) O-NO 67 0 min 0,000 mm 0,0 UV-I 0 W/m 5,2 C 5,5 C 27,4 km/h (4 Bft) 95,65 %
08.05.2016 02:52 11,8 C 63 % 1011,6 hPa 0,0 l/m 17,8 km/h (3 Bft) O-NO 67 0 min 0,000 mm 0,0 UV-I 0 W/m 5,0 C 6,3 C 22,5 km/h (4 Bft) 100,00 %
08.05.2016 02:53 11,8 C 64 % 1011,6 hPa 0,0 l/m 17,1 km/h (3 Bft) NO 47 0 min 0,000 mm 0,0 UV-I 0 W/m 5,2 C 6,5 C 22,5 km/h (4 Bft) 100,00 %
08.05.2016 02:54 11,8 C 64 % 1011,6 hPa 0,0 l/m 20,7 km/h (4 Bft) O-NO 67 0 min 0,000 mm 0,0 UV-I 0 W/m 5,2 C 5,4 C 25,7 km/h (4 Bft) 100,00 %
08.05.2016 02:55 11,8 C 64 % 1011,6 hPa 0,0 l/m 19,4 km/h (3 Bft) NO 45 0 min 0,000 mm 0,0 UV-I 0 W/m 5,2 C 5,8 C 27,4 km/h (4 Bft) 100,00 %
08.05.2016 02:56 11,8 C 64 % 1011,6 hPa 0,0 l/m 21,2 km/h (4 Bft) NO 49 0 min 0,000 mm 0,0 UV-I 0 W/m 5,2 C 5,3 C 29,0 km/h (5 Bft) 100,00 %
08.05.2016 02:57 11,8 C 64 % 1011,6 hPa 0,0 l/m 18,6 km/h (3 Bft) NO 49 0 min 0,000 mm 0,0 UV-I 0 W/m 5,2 C 6,0 C 24,1 km/h (4 Bft) 100,00 %
08.05.2016 02:58 11,7 C 64 % 1011,6 hPa 0,0 l/m 19,0 km/h (3 Bft) NO 54 0 min 0,000 mm 0,0 UV-I 0 W/m 5,1 C 5,8 C 22,5 km/h (4 Bft) 100,00 %
08.05.2016 02:59 11,7 C 64 % 1011,6 hPa 0,0 l/m 16,2 km/h (3 Bft) NO 53 0 min 0,000 mm 0,0 UV-I 0 W/m 5,1 C 6,7 C 20,9 km/h (4 Bft) 100,00 %
08.05.2016 03:00 11,7 C 65 % 1011,6 hPa 0,0 l/m 17,9 km/h (3 Bft) O-NO 63 0 min 0,076 mm 0,0 UV-I 0 W/m 5,3 C 6,1 C 20,9 km/h (4 Bft) 100,00 %
08.05.2016 03:01 11,7 C 65 % 1011,6 hPa 0,0 l/m 18,1 km/h (3 Bft) NO 45 0 min 0,000 mm 0,0 UV-I 0 W/m 5,3 C 6,1 C 22,5 km/h (4 Bft) 100,00 %
08.05.2016 03:02 11,6 C 65 % 1011,5 hPa 0,0 l/m 17,6 km/h (3 Bft) NO 56 0 min 0,000 mm 0,0 UV-I 0 W/m 5,2 C 6,1 C 22,5 km/h (4 Bft) 100,00 %
08.05.2016 03:03 11,6 C 65 % 1011,5 hPa 0,0 l/m 15,4 km/h (3 Bft) NO 44 0 min 0,000 mm 0,0 UV-I 0 W/m 5,2 C 6,9 C 19,3 km/h (3 Bft) 95,83 %
08.05.2016 03:04 11,6 C 65 % 1011,5 hPa 0,0 l/m 17,6 km/h (3 Bft) O-NO 74 0 min 0,000 mm 0,0 UV-I 0 W/m 5,2 C 6,1 C 20,9 km/h (4 Bft) 91,30 %
08.05.2016 03:05 11,6 C 65 % 1011,5 hPa 0,0 l/m 14,3 km/h (3 Bft) O-NO 65 0 min 0,000 mm 0,0 UV-I 0 W/m 5,2 C 7,4 C 17,7 km/h (3 Bft) 100,00 %
08.05.2016 03:06 11,5 C 66 % 1011,5 hPa 0,0 l/m 18,2 km/h (3 Bft) O-NO 59 0 min 0,000 mm 0,0 UV-I 0 W/m 5,4 C 5,8 C 24,1 km/h (4 Bft) 96,15 %
08.05.2016 03:07 11,4 C 66 % 1011,5 hPa 0,0 l/m 18,7 km/h (3 Bft) NO 49 0 min 0,000 mm 0,0 UV-I 0 W/m 5,3 C 5,5 C 25,7 km/h (4 Bft) 100,00 %
08.05.2016 03:08 11,4 C 66 % 1011,5 hPa 0,0 l/m 16,9 km/h (3 Bft) NO 55 0 min 0,000 mm 0,0 UV-I 0 W/m 5,3 C 6,1 C 20,9 km/h (4 Bft) 100,00 %
08.05.2016 03:09 11,4 C 66 % 1011,5 hPa 0,0 l/m 19,6 km/h (3 Bft) O-NO 69 0 min 0,000 mm 0,0 UV-I 0 W/m 5,3 C 5,2 C 24,1 km/h (4 Bft) 100,00 %
08.05.2016 03:10 11,3 C 66 % 1011,4 hPa 0,0 l/m 13,9 km/h (3 Bft) O-NO 69 0 min 0,000 mm 0,0 UV-I 0 W/m 5,2 C 7,2 C 19,3 km/h (3 Bft) 100,00 %
08.05.2016 03:11 11,3 C 66 % 1011,5 hPa 0,0 l/m 16,4 km/h (3 Bft) NO 50 0 min 0,000 mm 0,0 UV-I 0 W/m 5,2 C 6,2 C 20,9 km/h (4 Bft) 100,00 %
08.05.2016 03:12 11,3 C 66 % 1011,6 hPa 0,0 l/m 13,5 km/h (3 Bft) NO 54 0 min 0,000 mm 0,0 UV-I 0 W/m 5,2 C 7,3 C 19,3 km/h (3 Bft) 100,00 %
08.05.2016 03:13 11,3 C 66 % 1011,5 hPa 0,0 l/m 18,0 km/h (3 Bft) NO 35 0 min 0,000 mm 0,0 UV-I 0 W/m 5,2 C 5,6 C 20,9 km/h (4 Bft) 100,00 %
08.05.2016 03:14 11,3 C 67 % 1011,5 hPa 0,0 l/m 15,8 km/h (3 Bft) O-NO 69 0 min 0,000 mm 0,0 UV-I 0 W/m 5,4 C 6,4 C 19,3 km/h (3 Bft) 100,00 %
08.05.2016 03:15 11,3 C 67 % 1011,5 hPa 0,0 l/m 14,6 km/h (3 Bft) NO 45 0 min 0,000 mm 0,0 UV-I 0 W/m 5,4 C 6,9 C 17,7 km/h (3 Bft) 100,00 %
08.05.2016 03:16 11,3 C 67 % 1011,6 hPa 0,0 l/m 13,4 km/h (3 Bft) O-NO 59 0 min 0,000 mm 0,0 UV-I 0 W/m 5,4 C 7,4 C 19,3 km/h (3 Bft) 95,65 %
08.05.2016 03:17 11,2 C 67 % 1011,5 hPa 0,0 l/m 17,1 km/h (3 Bft) NO 51 0 min 0,000 mm 0,0 UV-I 0 W/m 5,3 C 5,8 C 22,5 km/h (4 Bft) 100,00 %
08.05.2016 03:18 11,2 C 67 % 1011,6 hPa 0,0 l/m 13,7 km/h (3 Bft) N-NO 25 0 min 0,000 mm 0,0 UV-I 0 W/m 5,3 C 7,1 C 19,3 km/h (3 Bft) 100,00 %
08.05.2016 03:19 11,2 C 67 % 1011,6 hPa 0,0 l/m 15,4 km/h (3 Bft) NO 56 0 min 0,000 mm 0,0 UV-I 0 W/m 5,3 C 6,4 C 20,9 km/h (4 Bft) 93,33 %
08.05.2016 03:20 11,2 C 67 % 1011,6 hPa 0,0 l/m 15,8 km/h (3 Bft) O-NO 74 0 min 0,000 mm 0,0 UV-I 0 W/m 5,3 C 6,3 C 19,3 km/h (3 Bft) 100,00 %
08.05.2016 03:21 11,2 C 67 % 1011,6 hPa 0,0 l/m 14,0 km/h (3 Bft) NO 52 0 min 0,000 mm 0,0 UV-I 0 W/m 5,3 C 7,0 C 17,7 km/h (3 Bft) 100,00 %
08.05.2016 03:22 11,2 C 67 % 1011,6 hPa 0,0 l/m 13,7 km/h (3 Bft) NO 50 0 min 0,000 mm 0,0 UV-I 0 W/m 5,3 C 7,1 C 19,3 km/h (3 Bft) 100,00 %
08.05.2016 03:23 11,2 C 67 % 1011,6 hPa 0,0 l/m 13,2 km/h (3 Bft) NO 48 0 min 0,000 mm 0,0 UV-I 0 W/m 5,3 C 7,3 C 19,3 km/h (3 Bft) 91,30 %
08.05.2016 03:24 11,1 C 67 % 1011,6 hPa 0,0 l/m 11,7 km/h (2 Bft) NO 54 0 min 0,000 mm 0,0 UV-I 0 W/m 5,2 C 7,9 C 17,7 km/h (3 Bft) 100,00 %
08.05.2016 03:25 11,1 C 67 % 1011,6 hPa 0,0 l/m 10,9 km/h (2 Bft) NO 46 0 min 0,000 mm 0,0 UV-I 0 W/m 5,2 C 8,3 C 16,1 km/h (3 Bft) 100,00 %
08.05.2016 03:26 11,1 C 67 % 1011,6 hPa 0,0 l/m 9,1 km/h (2 Bft) NO 51 0 min 0,000 mm 0,0 UV-I 0 W/m 5,2 C 9,3 C 14,5 km/h (3 Bft) 100,00 %
08.05.2016 03:27 11,1 C 67 % 1011,6 hPa 0,0 l/m 9,5 km/h (2 Bft) NO 54 0 min 0,000 mm 0,0 UV-I 0 W/m 5,2 C 9,1 C 14,5 km/h (3 Bft) 100,00 %
08.05.2016 03:28 11,1 C 67 % 1011,6 hPa 0,0 l/m 12,5 km/h (3 Bft) NO 55 0 min 0,000 mm 0,0 UV-I 0 W/m 5,2 C 7,5 C 17,7 km/h (3 Bft) 100,00 %
08.05.2016 03:29 11,0 C 68 % 1011,6 hPa 0,0 l/m 15,3 km/h (3 Bft) NO 51 0 min 0,000 mm 0,0 UV-I 0 W/m 5,3 C 6,2 C 20,9 km/h (4 Bft) 95,65 %
08.05.2016 03:30 11,0 C 68 % 1011,6 hPa 0,0 l/m 10,5 km/h (2 Bft) N-NO 28 0 min 0,000 mm 0,0 UV-I 0 W/m 5,3 C 8,4 C 17,7 km/h (3 Bft) 100,00 %
08.05.2016 03:31 11,0 C 68 % 1011,6 hPa 0,0 l/m 7,1 km/h (2 Bft) O-NO 58 0 min 0,000 mm 0,0 UV-I 0 W/m 5,3 C 10,5 C 11,3 km/h (2 Bft) 100,00 %
08.05.2016 03:32 11,0 C 68 % 1011,6 hPa 0,0 l/m 8,2 km/h (2 Bft) O-NO 57 0 min 0,000 mm 0,0 UV-I 0 W/m 5,3 C 9,8 C 14,5 km/h (3 Bft) 95,83 %
08.05.2016 03:33 10,9 C 68 % 1011,6 hPa 0,0 l/m 12,9 km/h (3 Bft) NO 46 0 min 0,000 mm 0,0 UV-I 0 W/m 5,2 C 7,1 C 17,7 km/h (3 Bft) 100,00 %
08.05.2016 03:34 10,9 C 68 % 1011,6 hPa 0,0 l/m 10,6 km/h (2 Bft) O-NO 61 0 min 0,000 mm 0,0 UV-I 0 W/m 5,2 C 8,3 C 17,7 km/h (3 Bft) 100,00 %
08.05.2016 03:35 10,9 C 68 % 1011,6 hPa 0,0 l/m 14,6 km/h (3 Bft) NO 43 0 min 0,000 mm 0,0 UV-I 0 W/m 5,2 C 6,4 C 19,3 km/h (3 Bft) 95,65 %
08.05.2016 03:36 10,9 C 68 % 1011,6 hPa 0,0 l/m 11,2 km/h (2 Bft) NO 56 0 min 0,000 mm 0,0 UV-I 0 W/m 5,2 C 7,9 C 16,1 km/h (3 Bft) 95,83 %
08.05.2016 03:37 10,9 C 68 % 1011,6 hPa 0,0 l/m 10,0 km/h (2 Bft) NO 55 0 min 0,000 mm 0,0 UV-I 0 W/m 5,2 C 8,6 C 16,1 km/h (3 Bft) 100,00 %
08.05.2016 03:38 10,8 C 68 % 1011,6 hPa 0,0 l/m 9,1 km/h (2 Bft) NO 39 0 min 0,000 mm 0,0 UV-I 0 W/m 5,1 C 9,0 C 16,1 km/h (3 Bft) 95,65 %
08.05.2016 03:39 10,8 C 69 % 1011,7 hPa 0,0 l/m 10,6 km/h (2 Bft) NO 55 0 min 0,000 mm 0,0 UV-I 0 W/m 5,3 C 8,2 C 17,7 km/h (3 Bft) 100,00 %
08.05.2016 03:40 10,8 C 69 % 1011,7 hPa 0,0 l/m 10,8 km/h (2 Bft) NO 49 0 min 0,000 mm 0,0 UV-I 0 W/m 5,3 C 8,0 C 16,1 km/h (3 Bft) 100,00 %
08.05.2016 03:41 10,8 C 69 % 1011,6 hPa 0,0 l/m 10,8 km/h (2 Bft) O-NO 60 0 min 0,000 mm 0,0 UV-I 0 W/m 5,3 C 8,0 C 14,5 km/h (3 Bft) 100,00 %
08.05.2016 03:42 10,7 C 69 % 1011,6 hPa 0,0 l/m 8,7 km/h (2 Bft) O-NO 57 0 min 0,000 mm 0,0 UV-I 0 W/m 5,2 C 9,1 C 14,5 km/h (3 Bft) 95,65 %
08.05.2016 03:43 10,7 C 69 % 1011,6 hPa 0,0 l/m 7,8 km/h (2 Bft) NO 39 0 min 0,000 mm 0,0 UV-I 0 W/m 5,2 C 9,7 C 9,7 km/h (2 Bft) 100,00 %
08.05.2016 03:44 10,7 C 70 % 1011,6 hPa 0,0 l/m 10,4 km/h (2 Bft) NO 41 0 min 0,000 mm 0,0 UV-I 0 W/m 5,5 C 8,1 C 17,7 km/h (3 Bft) 92,86 %
08.05.2016 03:45 10,6 C 70 % 1011,6 hPa 0,0 l/m 12,8 km/h (3 Bft) O-NO 67 0 min 0,000 mm 0,0 UV-I 0 W/m 5,4 C 6,8 C 17,7 km/h (3 Bft) 100,00 %
08.05.2016 03:46 10,6 C 70 % 1011,6 hPa 0,0 l/m 11,1 km/h (2 Bft) NO 55 0 min 0,000 mm 0,0 UV-I 0 W/m 5,4 C 7,7 C 16,1 km/h (3 Bft) 100,00 %
08.05.2016 03:47 10,6 C 70 % 1011,5 hPa 0,0 l/m 7,8 km/h (2 Bft) N 11 0 min 0,000 mm 0,0 UV-I 0 W/m 5,4 C 9,6 C 14,5 km/h (3 Bft) 100,00 %
08.05.2016 03:48 10,6 C 70 % 1011,5 hPa 0,0 l/m 12,2 km/h (2 Bft) NO 48 0 min 0,000 mm 0,0 UV-I 0 W/m 5,4 C 7,1 C 16,1 km/h (3 Bft) 95,65 %
08.05.2016 03:49 10,6 C 70 % 1011,5 hPa 0,0 l/m 9,2 km/h (2 Bft) NO 55 0 min 0,000 mm 0,0 UV-I 0 W/m 5,4 C 8,7 C 14,5 km/h (3 Bft) 100,00 %
08.05.2016 03:50 10,6 C 70 % 1011,5 hPa 0,0 l/m 12,5 km/h (3 Bft) NO 38 0 min 0,000 mm 0,0 UV-I 0 W/m 5,4 C 7,0 C 17,7 km/h (3 Bft) 100,00 %
08.05.2016 03:51 10,6 C 70 % 1011,4 hPa 0,0 l/m 12,1 km/h (2 Bft) N-NO 24 0 min 0,000 mm 0,0 UV-I 0 W/m 5,4 C 7,2 C 19,3 km/h (3 Bft) 100,00 %
08.05.2016 03:52 10,6 C 70 % 1011,5 hPa 0,0 l/m 12,7 km/h (3 Bft) NO 42 0 min 0,000 mm 0,0 UV-I 0 W/m 5,4 C 6,9 C 22,5 km/h (4 Bft) 95,65 %
08.05.2016 03:53 10,6 C 70 % 1011,4 hPa 0,0 l/m 12,9 km/h (3 Bft) NO 38 0 min 0,000 mm 0,0 UV-I 0 W/m 5,4 C 6,8 C 20,9 km/h (4 Bft) 100,00 %
08.05.2016 03:54 10,6 C 70 % 1011,4 hPa 0,0 l/m 14,5 km/h (3 Bft) N-NO 26 0 min 0,000 mm 0,0 UV-I 0 W/m 5,4 C 6,1 C 19,3 km/h (3 Bft) 95,83 %
08.05.2016 03:55 10,5 C 70 % 1011,5 hPa 0,0 l/m 15,0 km/h (3 Bft) N-NO 26 0 min 0,000 mm 0,0 UV-I 0 W/m 5,3 C 5,7 C 22,5 km/h (4 Bft) 100,00 %
08.05.2016 03:56 10,5 C 71 % 1011,4 hPa 0,0 l/m 18,1 km/h (3 Bft) NO 36 0 min 0,000 mm 0,0 UV-I 0 W/m 5,5 C 4,6 C 24,1 km/h (4 Bft) 100,00 %
08.05.2016 03:57 10,4 C 71 % 1011,5 hPa 0,0 l/m 17,7 km/h (3 Bft) NO 45 0 min 0,000 mm 0,0 UV-I 0 W/m 5,4 C 4,6 C 24,1 km/h (4 Bft) 100,00 %
08.05.2016 03:58 10,4 C 71 % 1011,4 hPa 0,0 l/m 16,5 km/h (3 Bft) O-NO 66 0 min 0,000 mm 0,0 UV-I 0 W/m 5,4 C 5,0 C 22,5 km/h (4 Bft) 100,00 %
08.05.2016 03:59 10,4 C 71 % 1011,4 hPa 0,0 l/m 19,5 km/h (3 Bft) NO 41 0 min 0,000 mm 0,0 UV-I 0 W/m 5,4 C 4,0 C 27,4 km/h (4 Bft) 100,00 %
08.05.2016 04:00 10,4 C 71 % 1011,4 hPa 0,0 l/m 16,8 km/h (3 Bft) NO 46 0 min 0,051 mm 0,0 UV-I 0 W/m 5,4 C 4,9 C 20,9 km/h (4 Bft) 100,00 %
08.05.2016 04:01 10,3 C 71 % 1011,4 hPa 0,0 l/m 14,6 km/h (3 Bft) N-NO 27 0 min 0,000 mm 0,0 UV-I 0 W/m 5,3 C 5,7 C 19,3 km/h (3 Bft) 100,00 %
08.05.2016 04:02 10,3 C 71 % 1011,4 hPa 0,0 l/m 17,4 km/h (3 Bft) NO 42 0 min 0,000 mm 0,0 UV-I 0 W/m 5,3 C 4,6 C 24,1 km/h (4 Bft) 100,00 %
08.05.2016 04:03 10,3 C 71 % 1011,4 hPa 0,0 l/m 15,5 km/h (3 Bft) NO 47 0 min 0,000 mm 0,0 UV-I 0 W/m 5,3 C 5,3 C 19,3 km/h (3 Bft) 100,00 %
08.05.2016 04:04 10,3 C 71 % 1011,4 hPa 0,0 l/m 12,7 km/h (3 Bft) O-NO 57 0 min 0,000 mm 0,0 UV-I 0 W/m 5,3 C 6,5 C 24,1 km/h (4 Bft) 100,00 %
08.05.2016 04:05 10,3 C 71 % 1011,4 hPa 0,0 l/m 18,5 km/h (3 Bft) NO 39 0 min 0,000 mm 0,0 UV-I 0 W/m 5,3 C 4,2 C 22,5 km/h (4 Bft) 100,00 %
08.05.2016 04:06 10,3 C 71 % 1011,4 hPa 0,0 l/m 15,0 km/h (3 Bft) O-NO 59 0 min 0,000 mm 0,0 UV-I 0 W/m 5,3 C 5,5 C 20,9 km/h (4 Bft) 100,00 %
08.05.2016 04:07 10,3 C 72 % 1011,3 hPa 0,0 l/m 18,0 km/h (3 Bft) NO 46 0 min 0,000 mm 0,0 UV-I 0 W/m 5,5 C 4,3 C 24,1 km/h (4 Bft) 100,00 %
08.05.2016 04:08 10,3 C 72 % 1011,3 hPa 0,0 l/m 16,9 km/h (3 Bft) NO 38 0 min 0,000 mm 0,0 UV-I 0 W/m 5,5 C 4,7 C 22,5 km/h (4 Bft) 100,00 %
08.05.2016 04:09 10,2 C 72 % 1011,4 hPa 0,0 l/m 21,5 km/h (4 Bft) NO 53 0 min 0,000 mm 0,0 UV-I 0 W/m 5,4 C 3,1 C 29,0 km/h (5 Bft) 100,00 %
08.05.2016 04:10 10,2 C 72 % 1011,3 hPa 0,0 l/m 21,7 km/h (4 Bft) N-NO 26 0 min 0,000 mm 0,0 UV-I 0 W/m 5,4 C 3,0 C 27,4 km/h (4 Bft) 95,83 %
08.05.2016 04:11 10,2 C 72 % 1011,3 hPa 0,0 l/m 19,2 km/h (3 Bft) NO 46 0 min 0,000 mm 0,0 UV-I 0 W/m 5,4 C 3,8 C 24,1 km/h (4 Bft) 95,83 %
08.05.2016 04:12 10,2 C 72 % 1011,3 hPa 0,0 l/m 14,0 km/h (3 Bft) N-NO 33 0 min 0,000 mm 0,0 UV-I 0 W/m 5,4 C 5,8 C 17,7 km/h (3 Bft) 100,00 %
08.05.2016 04:13 10,2 C 72 % 1011,3 hPa 0,0 l/m 20,8 km/h (4 Bft) NO 36 0 min 0,000 mm 0,0 UV-I 0 W/m 5,4 C 3,3 C 27,4 km/h (4 Bft) 95,83 %
08.05.2016 04:14 10,2 C 72 % 1011,3 hPa 0,0 l/m 21,3 km/h (4 Bft) NO 44 0 min 0,000 mm 0,0 UV-I 0 W/m 5,4 C 3,1 C 25,7 km/h (4 Bft) 100,00 %
08.05.2016 04:15 10,3 C 72 % 1011,3 hPa 0,0 l/m 22,0 km/h (4 Bft) N-NO 19 0 min 0,000 mm 0,0 UV-I 0 W/m 5,5 C 3,1 C 27,4 km/h (4 Bft) 96,15 %
08.05.2016 04:16 10,2 C 72 % 1011,2 hPa 0,0 l/m 14,9 km/h (3 Bft) NO 55 0 min 0,000 mm 0,0 UV-I 0 W/m 5,4 C 5,4 C 22,5 km/h (4 Bft) 95,83 %
08.05.2016 04:17 10,3 C 72 % 1011,2 hPa 0,0 l/m 18,9 km/h (3 Bft) N 11 0 min 0,000 mm 0,0 UV-I 0 W/m 5,5 C 4,0 C 25,7 km/h (4 Bft) 100,00 %
08.05.2016 04:18 10,2 C 72 % 1011,2 hPa 0,0 l/m 16,9 km/h (3 Bft) O-NO 69 0 min 0,000 mm 0,0 UV-I 0 W/m 5,4 C 4,6 C 22,5 km/h (4 Bft) 91,30 %
08.05.2016 04:19 10,3 C 72 % 1011,2 hPa 0,0 l/m 18,0 km/h (3 Bft) NO 45 0 min 0,000 mm 0,0 UV-I 0 W/m 5,5 C 4,3 C 24,1 km/h (4 Bft) 100,00 %
08.05.2016 04:20 10,2 C 72 % 1011,3 hPa 0,0 l/m 14,0 km/h (3 Bft) NO 51 0 min 0,000 mm 0,0 UV-I 0 W/m 5,4 C 5,8 C 20,9 km/h (4 Bft) 96,15 %
08.05.2016 04:21 10,2 C 72 % 1011,3 hPa 0,0 l/m 16,9 km/h (3 Bft) NO 46 0 min 0,000 mm 0,0 UV-I 0 W/m 5,4 C 4,6 C 25,7 km/h (4 Bft) 100,00 %
08.05.2016 04:22 10,3 C 72 % 1011,3 hPa 0,0 l/m 16,0 km/h (3 Bft) NO 48 0 min 0,000 mm 0,0 UV-I 0 W/m 5,5 C 5,1 C 20,9 km/h (4 Bft) 95,65 %
08.05.2016 04:23 10,3 C 72 % 1011,2 hPa 0,0 l/m 15,2 km/h (3 Bft) NO 47 0 min 0,000 mm 0,0 UV-I 0 W/m 5,5 C 5,4 C 20,9 km/h (4 Bft) 100,00 %
08.05.2016 04:24 10,3 C 72 % 1011,2 hPa 0,0 l/m 17,8 km/h (3 Bft) NO 51 0 min 0,000 mm 0,0 UV-I 0 W/m 5,5 C 4,4 C 25,7 km/h (4 Bft) 95,65 %
08.05.2016 04:25 10,3 C 72 % 1011,3 hPa 0,0 l/m 16,4 km/h (3 Bft) O-NO 57 0 min 0,000 mm 0,0 UV-I 0 W/m 5,5 C 4,9 C 22,5 km/h (4 Bft) 100,00 %
08.05.2016 04:26 10,3 C 71 % 1011,3 hPa 0,0 l/m 14,3 km/h (3 Bft) NO 42 0 min 0,000 mm 0,0 UV-I 0 W/m 5,3 C 5,8 C 20,9 km/h (4 Bft) 91,30 %
08.05.2016 04:27 10,3 C 71 % 1011,3 hPa 0,0 l/m 14,4 km/h (3 Bft) NO 52 0 min 0,000 mm 0,0 UV-I 0 W/m 5,3 C 5,8 C 19,3 km/h (3 Bft) 95,83 %
08.05.2016 04:28 10,3 C 71 % 1011,3 hPa 0,0 l/m 12,1 km/h (2 Bft) NO 50 0 min 0,000 mm 0,0 UV-I 0 W/m 5,3 C 6,8 C 16,1 km/h (3 Bft) 100,00 %
08.05.2016 04:29 10,3 C 71 % 1011,3 hPa 0,0 l/m 15,6 km/h (3 Bft) NO 54 0 min 0,000 mm 0,0 UV-I 0 W/m 5,3 C 5,3 C 19,3 km/h (3 Bft) 95,83 %
08.05.2016 04:30 10,3 C 71 % 1011,3 hPa 0,0 l/m 11,3 km/h (2 Bft) O-NO 73 0 min 0,000 mm 0,0 UV-I 0 W/m 5,3 C 7,2 C 17,7 km/h (3 Bft) 100,00 %
08.05.2016 04:31 10,3 C 71 % 1011,3 hPa 0,0 l/m 13,7 km/h (3 Bft) O-NO 65 0 min 0,000 mm 0,0 UV-I 0 W/m 5,3 C 6,1 C 19,3 km/h (3 Bft) 96,30 %
08.05.2016 04:32 10,3 C 71 % 1011,4 hPa 0,0 l/m 12,4 km/h (3 Bft) O-NO 69 0 min 0,000 mm 0,0 UV-I 0 W/m 5,3 C 6,7 C 19,3 km/h (3 Bft) 100,00 %
08.05.2016 04:33 10,3 C 71 % 1011,3 hPa 0,0 l/m 14,0 km/h (3 Bft) O-NO 59 0 min 0,000 mm 0,0 UV-I 0 W/m 5,3 C 5,9 C 19,3 km/h (3 Bft) 96,30 %
08.05.2016 04:34 10,3 C 71 % 1011,3 hPa 0,0 l/m 12,9 km/h (3 Bft) NO 38 0 min 0,000 mm 0,0 UV-I 0 W/m 5,3 C 6,4 C 16,1 km/h (3 Bft) 100,00 %
08.05.2016 04:35 10,3 C 71 % 1011,4 hPa 0,0 l/m 10,9 km/h (2 Bft) O-NO 68 0 min 0,000 mm 0,0 UV-I 0 W/m 5,3 C 7,4 C 17,7 km/h (3 Bft) 96,67 %
08.05.2016 04:36 10,3 C 71 % 1011,4 hPa 0,0 l/m 11,7 km/h (2 Bft) O-NO 73 0 min 0,000 mm 0,0 UV-I 0 W/m 5,3 C 7,0 C 17,7 km/h (3 Bft) 95,83 %
08.05.2016 04:37 10,3 C 71 % 1011,4 hPa 0,0 l/m 8,9 km/h (2 Bft) O-NO 72 0 min 0,000 mm 0,0 UV-I 0 W/m 5,3 C 8,6 C 17,7 km/h (3 Bft) 95,65 %
08.05.2016 04:38 10,3 C 71 % 1011,4 hPa 0,0 l/m 8,0 km/h (2 Bft) O-NO 57 0 min 0,000 mm 0,0 UV-I 0 W/m 5,3 C 9,2 C 14,5 km/h (3 Bft) 100,00 %
08.05.2016 04:39 10,3 C 72 % 1011,4 hPa 0,0 l/m 12,3 km/h (3 Bft) O-NO 65 0 min 0,000 mm 0,0 UV-I 0 W/m 5,5 C 6,7 C 16,1 km/h (3 Bft) 100,00 %
08.05.2016 04:40 10,3 C 72 % 1011,4 hPa 0,0 l/m 10,7 km/h (2 Bft) O-NO 69 0 min 0,000 mm 0,0 UV-I 0 W/m 5,5 C 7,5 C 16,1 km/h (3 Bft) 95,83 %
08.05.2016 04:41 10,3 C 72 % 1011,4 hPa 0,0 l/m 9,7 km/h (2 Bft) NO 53 0 min 0,000 mm 0,0 UV-I 0 W/m 5,5 C 8,1 C 12,9 km/h (3 Bft) 96,15 %
08.05.2016 04:42 10,3 C 72 % 1011,4 hPa 0,0 l/m 6,4 km/h (2 Bft) NO 53 0 min 0,000 mm 0,0 UV-I 0 W/m 5,5 C 10,3 C 8,0 km/h (2 Bft) 100,00 %
08.05.2016 04:43 10,3 C 72 % 1011,5 hPa 0,0 l/m 11,2 km/h (2 Bft) O-NO 63 0 min 0,000 mm 0,0 UV-I 0 W/m 5,5 C 7,3 C 14,5 km/h (3 Bft) 91,30 %
08.05.2016 04:44 10,3 C 72 % 1011,4 hPa 0,0 l/m 8,4 km/h (2 Bft) NO 38 0 min 0,000 mm 0,0 UV-I 0 W/m 5,5 C 8,9 C 11,3 km/h (2 Bft) 100,00 %
08.05.2016 04:45 10,3 C 72 % 1011,5 hPa 0,0 l/m 8,2 km/h (2 Bft) NO 55 0 min 0,000 mm 0,0 UV-I 0 W/m 5,5 C 9,0 C 12,9 km/h (3 Bft) 100,00 %
08.05.2016 04:46 10,2 C 72 % 1011,4 hPa 0,0 l/m 8,5 km/h (2 Bft) NO 35 0 min 0,000 mm 0,0 UV-I 0 W/m 5,4 C 8,7 C 16,1 km/h (3 Bft) 100,00 %
08.05.2016 04:47 10,2 C 72 % 1011,4 hPa 0,0 l/m 12,1 km/h (2 Bft) N-NO 26 0 min 0,000 mm 0,0 UV-I 0 W/m 5,4 C 6,7 C 16,1 km/h (3 Bft) 100,00 %
08.05.2016 04:48 10,1 C 73 % 1011,4 hPa 0,0 l/m 11,5 km/h (2 Bft) O-NO 61 0 min 0,000 mm 0,0 UV-I 0 W/m 5,5 C 6,9 C 16,1 km/h (3 Bft) 100,00 %
08.05.2016 04:49 10,1 C 73 % 1011,4 hPa 0,0 l/m 10,7 km/h (2 Bft) NO 41 0 min 0,000 mm 0,0 UV-I 0 W/m 5,5 C 7,3 C 16,1 km/h (3 Bft) 95,65 %
08.05.2016 04:50 9,9 C 73 % 1011,5 hPa 0,0 l/m 9,1 km/h (2 Bft) NO 39 0 min 0,000 mm 0,0 UV-I 0 W/m 5,3 C 8,0 C 12,9 km/h (3 Bft) 95,83 %
08.05.2016 04:51 9,9 C 74 % 1011,4 hPa 0,0 l/m 12,2 km/h (2 Bft) NO 47 0 min 0,000 mm 0,0 UV-I 0 W/m 5,5 C 6,3 C 17,7 km/h (3 Bft) 95,65 %
08.05.2016 04:52 9,8 C 74 % 1011,4 hPa 0,0 l/m 11,2 km/h (2 Bft) N-NO 32 0 min 0,000 mm 0,0 UV-I 0 W/m 5,4 C 6,7 C 16,1 km/h (3 Bft) 100,00 %
08.05.2016 04:53 9,8 C 74 % 1011,5 hPa 0,0 l/m 11,3 km/h (2 Bft) NO 38 0 min 0,000 mm 0,0 UV-I 0 W/m 5,4 C 6,6 C 14,5 km/h (3 Bft) 96,43 %
08.05.2016 04:54 9,7 C 74 % 1011,5 hPa 0,0 l/m 9,4 km/h (2 Bft) N-NO 19 0 min 0,000 mm 0,0 UV-I 0 W/m 5,3 C 7,6 C 16,1 km/h (3 Bft) 95,65 %
08.05.2016 04:55 9,7 C 74 % 1011,5 hPa 0,0 l/m 9,7 km/h (2 Bft) NO 38 0 min 0,000 mm 0,0 UV-I 0 W/m 5,3 C 7,4 C 16,1 km/h (3 Bft) 100,00 %
08.05.2016 04:56 9,7 C 74 % 1011,5 hPa 0,0 l/m 6,4 km/h (2 Bft) O-NO 64 0 min 0,000 mm 0,0 UV-I 0 W/m 5,3 C 9,7 C 11,3 km/h (2 Bft) 100,00 %
08.05.2016 04:57 9,7 C 75 % 1011,5 hPa 0,0 l/m 10,7 km/h (2 Bft) N-NO 27 0 min 0,000 mm 0,0 UV-I 0 W/m 5,5 C 6,9 C 16,1 km/h (3 Bft) 100,00 %
08.05.2016 04:58 9,7 C 75 % 1011,5 hPa 0,0 l/m 7,5 km/h (2 Bft) NO 52 0 min 0,000 mm 0,0 UV-I 0 W/m 5,5 C 8,9 C 11,3 km/h (2 Bft) 100,00 %
08.05.2016 04:59 9,7 C 75 % 1011,5 hPa 0,0 l/m 11,2 km/h (2 Bft) O-NO 74 0 min 0,000 mm 0,0 UV-I 0 W/m 5,5 C 6,6 C 14,5 km/h (3 Bft) 100,00 %
08.05.2016 05:00 9,6 C 75 % 1011,5 hPa 0,0 l/m 7,5 km/h (2 Bft) N-NO 27 0 min 0,000 mm 0,0 UV-I 0 W/m 5,4 C 8,8 C 12,9 km/h (3 Bft) 100,00 %
08.05.2016 05:01 9,7 C 75 % 1011,5 hPa 0,0 l/m 9,5 km/h (2 Bft) N-NO 23 0 min 0,051 mm 0,0 UV-I 0 W/m 5,5 C 7,6 C 11,3 km/h (2 Bft) 100,00 %
08.05.2016 05:02 9,7 C 75 % 1011,5 hPa 0,0 l/m 7,8 km/h (2 Bft) NO 47 0 min 0,000 mm 0,0 UV-I 0 W/m 5,5 C 8,7 C 11,3 km/h (2 Bft) 100,00 %
08.05.2016 05:03 9,7 C 75 % 1011,5 hPa 0,0 l/m 7,4 km/h (2 Bft) NO 40 0 min 0,000 mm 0,0 UV-I 0 W/m 5,5 C 9,0 C 17,7 km/h (3 Bft) 100,00 %
08.05.2016 05:04 9,7 C 75 % 1011,5 hPa 0,0 l/m 14,1 km/h (3 Bft) O-NO 69 0 min 0,000 mm 0,0 UV-I 0 W/m 5,5 C 5,2 C 17,7 km/h (3 Bft) 95,65 %
08.05.2016 05:05 9,7 C 75 % 1011,5 hPa 0,0 l/m 10,5 km/h (2 Bft) NO 46 0 min 0,000 mm 0,0 UV-I 0 W/m 5,5 C 7,0 C 16,1 km/h (3 Bft) 100,00 %
08.05.2016 05:06 9,7 C 75 % 1011,5 hPa 0,0 l/m 13,9 km/h (3 Bft) O-NO 66 0 min 0,000 mm 0,0 UV-I 0 W/m 5,5 C 5,3 C 22,5 km/h (4 Bft) 95,65 %
08.05.2016 05:07 9,8 C 74 % 1011,6 hPa 0,0 l/m 9,2 km/h (2 Bft) O-NO 57 0 min 0,000 mm 0,0 UV-I 0 W/m 5,4 C 7,9 C 16,1 km/h (3 Bft) 100,00 %
08.05.2016 05:08 9,8 C 74 % 1011,5 hPa 0,0 l/m 9,3 km/h (2 Bft) NO 46 0 min 0,000 mm 0,0 UV-I 0 W/m 5,4 C 7,8 C 12,9 km/h (3 Bft) 95,65 %
08.05.2016 05:09 9,8 C 75 % 1011,5 hPa 0,0 l/m 12,3 km/h (3 Bft) N-NO 28 0 min 0,000 mm 0,0 UV-I 0 W/m 5,6 C 6,1 C 19,3 km/h (3 Bft) 100,00 %
08.05.2016 05:10 9,8 C 75 % 1011,5 hPa 0,0 l/m 8,6 km/h (2 Bft) NO 53 0 min 0,000 mm 0,0 UV-I 0 W/m 5,6 C 8,2 C 11,3 km/h (2 Bft) 100,00 %
08.05.2016 05:11 9,8 C 75 % 1011,6 hPa 0,0 l/m 9,8 km/h (2 Bft) NO 40 0 min 0,000 mm 0,0 UV-I 0 W/m 5,6 C 7,5 C 12,9 km/h (3 Bft) 100,00 %
08.05.2016 05:12 9,8 C 74 % 1011,5 hPa 0,0 l/m 9,0 km/h (2 Bft) O-NO 77 0 min 0,000 mm 0,0 UV-I 0 W/m 5,4 C 8,0 C 17,7 km/h (3 Bft) 100,00 %
08.05.2016 05:13 9,8 C 75 % 1011,5 hPa 0,0 l/m 9,1 km/h (2 Bft) NO 40 0 min 0,000 mm 0,0 UV-I 0 W/m 5,6 C 7,9 C 14,5 km/h (3 Bft) 100,00 %
08.05.2016 05:14 9,8 C 75 % 1011,5 hPa 0,0 l/m 11,4 km/h (2 Bft) O-NO 57 0 min 0,000 mm 0,0 UV-I 0 W/m 5,6 C 6,6 C 17,7 km/h (3 Bft) 100,00 %
08.05.2016 05:15 9,8 C 75 % 1011,5 hPa 0,0 l/m 10,1 km/h (2 Bft) NO 50 0 min 0,000 mm 0,0 UV-I 0 W/m 5,6 C 7,3 C 14,5 km/h (3 Bft) 100,00 %
08.05.2016 05:16 9,8 C 75 % 1011,6 hPa 0,0 l/m 13,5 km/h (3 Bft) NO 36 0 min 0,000 mm 0,0 UV-I 0 W/m 5,6 C 5,6 C 19,3 km/h (3 Bft) 100,00 %
08.05.2016 05:17 9,8 C 75 % 1011,5 hPa 0,0 l/m 10,3 km/h (2 Bft) NO 37 0 min 0,000 mm 0,0 UV-I 0 W/m 5,6 C 7,2 C 12,9 km/h (3 Bft) 100,00 %
08.05.2016 05:18 9,8 C 75 % 1011,6 hPa 0,0 l/m 9,6 km/h (2 Bft) NO 53 0 min 0,000 mm 0,0 UV-I 0 W/m 5,6 C 7,6 C 17,7 km/h (3 Bft) 100,00 %
08.05.2016 05:19 9,8 C 75 % 1011,6 hPa 0,0 l/m 15,9 km/h (3 Bft) O-NO 59 0 min 0,000 mm 0,0 UV-I 0 W/m 5,6 C 4,5 C 20,9 km/h (4 Bft) 100,00 %
08.05.2016 05:20 9,8 C 75 % 1011,6 hPa 0,0 l/m 16,0 km/h (3 Bft) O 80 0 min 0,000 mm 0,0 UV-I 0 W/m 5,6 C 4,5 C 24,1 km/h (4 Bft) 100,00 %
08.05.2016 05:21 9,8 C 75 % 1011,6 hPa 0,0 l/m 14,7 km/h (3 Bft) O 82 0 min 0,000 mm 0,0 UV-I 0 W/m 5,6 C 5,0 C 22,5 km/h (4 Bft) 100,00 %
08.05.2016 05:22 9,8 C 75 % 1011,6 hPa 0,0 l/m 7,5 km/h (2 Bft) NO 52 0 min 0,000 mm 0,0 UV-I 0 W/m 5,6 C 9,0 C 16,1 km/h (3 Bft) 100,00 %
08.05.2016 05:23 9,8 C 75 % 1011,6 hPa 0,0 l/m 14,2 km/h (3 Bft) NO 55 0 min 0,000 mm 0,0 UV-I 0 W/m 5,6 C 5,2 C 19,3 km/h (3 Bft) 100,00 %
08.05.2016 05:24 9,9 C 75 % 1011,6 hPa 0,0 l/m 10,6 km/h (2 Bft) O 83 0 min 0,000 mm 0,0 UV-I 0 W/m 5,7 C 7,1 C 16,1 km/h (3 Bft) 100,00 %
08.05.2016 05:25 9,8 C 75 % 1011,6 hPa 0,0 l/m 11,8 km/h (2 Bft) O-NO 73 0 min 0,000 mm 0,0 UV-I 0 W/m 5,6 C 6,4 C 16,1 km/h (3 Bft) 95,65 %
08.05.2016 05:26 9,8 C 75 % 1011,6 hPa 0,0 l/m 12,1 km/h (2 Bft) O-NO 63 0 min 0,000 mm 0,0 UV-I 0 W/m 5,6 C 6,2 C 16,1 km/h (3 Bft) 100,00 %
08.05.2016 05:27 9,8 C 75 % 1011,6 hPa 0,0 l/m 12,2 km/h (2 Bft) O-NO 67 0 min 0,000 mm 0,0 UV-I 0 W/m 5,6 C 6,2 C 14,5 km/h (3 Bft) 100,00 %
08.05.2016 05:28 9,8 C 75 % 1011,6 hPa 0,0 l/m 12,4 km/h (3 Bft) O-NO 59 0 min 0,000 mm 0,0 UV-I 0 W/m 5,6 C 6,1 C 19,3 km/h (3 Bft) 100,00 %
08.05.2016 05:29 9,8 C 75 % 1011,5 hPa 0,0 l/m 11,6 km/h (2 Bft) O 81 0 min 0,000 mm 0,0 UV-I 0 W/m 5,6 C 6,5 C 17,7 km/h (3 Bft) 100,00 %
08.05.2016 05:30 9,8 C 75 % 1011,6 hPa 0,0 l/m 12,3 km/h (3 Bft) O-NO 65 0 min 0,000 mm 0,0 UV-I 0 W/m 5,6 C 6,1 C 16,1 km/h (3 Bft) 100,00 %
08.05.2016 05:31 9,8 C 75 % 1011,6 hPa 0,0 l/m 13,1 km/h (3 Bft) O-NO 57 0 min 0,000 mm 0,0 UV-I 0 W/m 5,6 C 5,7 C 17,7 km/h (3 Bft) 100,00 %
08.05.2016 05:32 9,8 C 75 % 1011,6 hPa 0,0 l/m 16,5 km/h (3 Bft) O-NO 65 0 min 0,000 mm 0,0 UV-I 0 W/m 5,6 C 4,3 C 19,3 km/h (3 Bft) 100,00 %
08.05.2016 05:33 9,8 C 75 % 1011,5 hPa 0,0 l/m 16,0 km/h (3 Bft) NO 51 0 min 0,000 mm 0,0 UV-I 5 W/m 5,6 C 4,5 C 19,3 km/h (3 Bft) 100,00 %
08.05.2016 05:34 9,8 C 75 % 1011,5 hPa 0,0 l/m 15,6 km/h (3 Bft) NO 56 0 min 0,000 mm 0,0 UV-I 5 W/m 5,6 C 4,6 C 19,3 km/h (3 Bft) 100,00 %
08.05.2016 05:35 9,8 C 75 % 1011,5 hPa 0,0 l/m 16,2 km/h (3 Bft) NO 53 0 min 0,000 mm 0,0 UV-I 5 W/m 5,6 C 4,4 C 22,5 km/h (4 Bft) 100,00 %
08.05.2016 05:36 9,8 C 75 % 1011,5 hPa 0,0 l/m 12,7 km/h (3 Bft) O-NO 57 0 min 0,000 mm 0,0 UV-I 5 W/m 5,6 C 5,9 C 20,9 km/h (4 Bft) 100,00 %
08.05.2016 05:37 9,8 C 75 % 1011,4 hPa 0,0 l/m 14,8 km/h (3 Bft) NO 36 0 min 0,000 mm 0,0 UV-I 5 W/m 5,6 C 5,0 C 19,3 km/h (3 Bft) 100,00 %
08.05.2016 05:38 9,8 C 75 % 1011,4 hPa 0,0 l/m 12,5 km/h (3 Bft) NO 54 0 min 0,000 mm 0,0 UV-I 6 W/m 5,6 C 6,0 C 20,9 km/h (4 Bft) 100,00 %
08.05.2016 05:39 9,8 C 75 % 1011,5 hPa 0,0 l/m 12,8 km/h (3 Bft) O-NO 60 0 min 0,000 mm 0,0 UV-I 7 W/m 5,6 C 5,9 C 16,1 km/h (3 Bft) 95,83 %
08.05.2016 05:40 9,8 C 75 % 1011,5 hPa 0,0 l/m 14,1 km/h (3 Bft) O-NO 65 0 min 0,000 mm 0,0 UV-I 7 W/m 5,6 C 5,3 C 17,7 km/h (3 Bft) 100,00 %
08.05.2016 05:41 9,8 C 76 % 1011,5 hPa 0,0 l/m 13,5 km/h (3 Bft) O-NO 65 0 min 0,000 mm 0,0 UV-I 7 W/m 5,8 C 5,6 C 17,7 km/h (3 Bft) 100,00 %
08.05.2016 05:42 9,7 C 76 % 1011,5 hPa 0,0 l/m 12,2 km/h (2 Bft) O-NO 67 0 min 0,000 mm 0,0 UV-I 7 W/m 5,7 C 6,1 C 17,7 km/h (3 Bft) 100,00 %
08.05.2016 05:43 9,7 C 76 % 1011,5 hPa 0,0 l/m 12,7 km/h (3 Bft) O-NO 61 0 min 0,000 mm 0,0 UV-I 9 W/m 5,7 C 5,8 C 16,1 km/h (3 Bft) 100,00 %
08.05.2016 05:44 9,7 C 76 % 1011,5 hPa 0,0 l/m 11,2 km/h (2 Bft) O 79 0 min 0,000 mm 0,0 UV-I 9 W/m 5,7 C 6,6 C 14,5 km/h (3 Bft) 100,00 %
08.05.2016 05:45 9,7 C 76 % 1011,5 hPa 0,0 l/m 11,7 km/h (2 Bft) NO 55 1 min 0,000 mm 0,0 UV-I 9 W/m 5,7 C 6,3 C 17,7 km/h (3 Bft) 100,00 %
08.05.2016 05:46 9,7 C 76 % 1011,5 hPa 0,0 l/m 12,2 km/h (2 Bft) O-NO 77 0 min 0,000 mm 0,0 UV-I 9 W/m 5,7 C 6,1 C 16,1 km/h (3 Bft) 100,00 %
08.05.2016 05:47 9,7 C 76 % 1011,6 hPa 0,0 l/m 14,5 km/h (3 Bft) O-NO 64 0 min 0,000 mm 0,0 UV-I 10 W/m 5,7 C 5,0 C 17,7 km/h (3 Bft) 100,00 %
08.05.2016 05:48 9,7 C 76 % 1011,6 hPa 0,0 l/m 14,6 km/h (3 Bft) O-NO 62 0 min 0,000 mm 0,0 UV-I 11 W/m 5,7 C 4,9 C 17,7 km/h (3 Bft) 100,00 %
08.05.2016 05:49 9,6 C 76 % 1011,6 hPa 0,0 l/m 15,1 km/h (3 Bft) O-NO 67 0 min 0,000 mm 0,0 UV-I 11 W/m 5,6 C 4,6 C 19,3 km/h (3 Bft) 100,00 %
08.05.2016 05:50 9,6 C 76 % 1011,6 hPa 0,0 l/m 14,6 km/h (3 Bft) O-NO 59 0 min 0,000 mm 0,0 UV-I 11 W/m 5,6 C 4,8 C 20,9 km/h (4 Bft) 100,00 %
08.05.2016 05:51 9,6 C 76 % 1011,6 hPa 0,0 l/m 14,6 km/h (3 Bft) O-NO 58 0 min 0,000 mm 0,0 UV-I 11 W/m 5,6 C 4,8 C 19,3 km/h (3 Bft) 100,00 %
08.05.2016 05:52 9,6 C 76 % 1011,6 hPa 0,0 l/m 15,8 km/h (3 Bft) O-NO 57 0 min 0,000 mm 0,0 UV-I 12 W/m 5,6 C 4,3 C 20,9 km/h (4 Bft) 86,96 %
08.05.2016 05:53 9,6 C 76 % 1011,6 hPa 0,0 l/m 14,8 km/h (3 Bft) O-NO 61 0 min 0,000 mm 0,0 UV-I 12 W/m 5,6 C 4,7 C 20,9 km/h (4 Bft) 100,00 %
08.05.2016 05:54 9,6 C 76 % 1011,6 hPa 0,0 l/m 12,6 km/h (3 Bft) O-NO 59 0 min 0,000 mm 0,0 UV-I 12 W/m 5,6 C 5,8 C 17,7 km/h (3 Bft) 100,00 %
08.05.2016 05:55 9,6 C 76 % 1011,6 hPa 0,0 l/m 14,9 km/h (3 Bft) O-NO 69 0 min 0,000 mm 0,0 UV-I 12 W/m 5,6 C 4,7 C 19,3 km/h (3 Bft) 100,00 %
08.05.2016 05:56 9,6 C 77 % 1011,6 hPa 0,0 l/m 18,1 km/h (3 Bft) O-NO 67 0 min 0,000 mm 0,0 UV-I 14 W/m 5,8 C 3,4 C 22,5 km/h (4 Bft) 100,00 %
08.05.2016 05:57 9,6 C 77 % 1011,6 hPa 0,0 l/m 14,9 km/h (3 Bft) O-NO 59 0 min 0,000 mm 0,0 UV-I 14 W/m 5,8 C 4,7 C 19,3 km/h (3 Bft) 100,00 %
08.05.2016 05:58 9,6 C 76 % 1011,6 hPa 0,0 l/m 9,2 km/h (2 Bft) O-NO 57 0 min 0,000 mm 0,0 UV-I 14 W/m 5,6 C 7,6 C 14,5 km/h (3 Bft) 100,00 %
08.05.2016 05:59 9,6 C 76 % 1011,6 hPa 0,0 l/m 7,6 km/h (2 Bft) O-NO 66 0 min 0,000 mm 0,0 UV-I 14 W/m 5,6 C 8,7 C 12,9 km/h (3 Bft) 100,00 %
08.05.2016 06:00 9,6 C 77 % 1011,6 hPa 0,0 l/m 13,3 km/h (3 Bft) O-NO 69 0 min 0,000 mm 0,0 UV-I 16 W/m 5,8 C 5,4 C 20,9 km/h (4 Bft) 100,00 %
08.05.2016 06:01 9,6 C 76 % 1011,7 hPa 0,0 l/m 12,0 km/h (2 Bft) NO 55 0 min 0,025 mm 0,0 UV-I 16 W/m 5,6 C 6,1 C 16,1 km/h (3 Bft) 100,00 %
08.05.2016 06:02 9,6 C 76 % 1011,7 hPa 0,0 l/m 12,2 km/h (2 Bft) NO 46 0 min 0,000 mm 0,0 UV-I 16 W/m 5,6 C 6,0 C 16,1 km/h (3 Bft) 100,00 %
08.05.2016 06:03 9,7 C 77 % 1011,7 hPa 0,0 l/m 14,5 km/h (3 Bft) O-NO 65 0 min 0,000 mm 0,0 UV-I 16 W/m 5,9 C 5,0 C 19,3 km/h (3 Bft) 100,00 %
08.05.2016 06:04 9,7 C 77 % 1011,8 hPa 0,0 l/m 14,7 km/h (3 Bft) NO 45 0 min 0,000 mm 0,0 UV-I 17 W/m 5,9 C 4,9 C 22,5 km/h (4 Bft) 100,00 %
08.05.2016 06:05 9,7 C 76 % 1011,8 hPa 0,0 l/m 12,8 km/h (3 Bft) NO 40 0 min 0,000 mm 0,0 UV-I 18 W/m 5,7 C 5,8 C 20,9 km/h (4 Bft) 95,65 %
08.05.2016 06:06 9,7 C 76 % 1011,8 hPa 0,0 l/m 13,2 km/h (3 Bft) O-NO 70 0 min 0,000 mm 0,0 UV-I 18 W/m 5,7 C 5,6 C 20,9 km/h (4 Bft) 100,00 %
08.05.2016 06:07 9,7 C 76 % 1011,8 hPa 0,0 l/m 15,2 km/h (3 Bft) O-NO 57 0 min 0,000 mm 0,0 UV-I 18 W/m 5,7 C 4,7 C 20,9 km/h (4 Bft) 100,00 %
08.05.2016 06:08 9,7 C 76 % 1011,9 hPa 0,0 l/m 16,6 km/h (3 Bft) NO 52 0 min 0,000 mm 0,0 UV-I 18 W/m 5,7 C 4,1 C 22,5 km/h (4 Bft) 100,00 %
08.05.2016 06:09 9,7 C 76 % 1011,8 hPa 0,0 l/m 16,4 km/h (3 Bft) NO 39 0 min 0,000 mm 0,0 UV-I 19 W/m 5,7 C 4,2 C 24,1 km/h (4 Bft) 100,00 %
08.05.2016 06:10 9,7 C 76 % 1011,9 hPa 0,0 l/m 13,2 km/h (3 Bft) NO 51 0 min 0,000 mm 0,0 UV-I 19 W/m 5,7 C 5,6 C 20,9 km/h (4 Bft) 100,00 %
08.05.2016 06:11 9,7 C 76 % 1011,9 hPa 0,0 l/m 17,5 km/h (3 Bft) O 89 0 min 0,000 mm 0,0 UV-I 19 W/m 5,7 C 3,8 C 20,9 km/h (4 Bft) 95,83 %
08.05.2016 06:12 9,8 C 76 % 1011,9 hPa 0,0 l/m 12,4 km/h (3 Bft) NO 45 0 min 0,000 mm 0,0 UV-I 19 W/m 5,8 C 6,1 C 17,7 km/h (3 Bft) 91,30 %
08.05.2016 06:13 9,8 C 76 % 1011,9 hPa 0,0 l/m 12,5 km/h (3 Bft) O-NO 58 0 min 0,000 mm 0,0 UV-I 20 W/m 5,8 C 6,0 C 17,7 km/h (3 Bft) 95,83 %
08.05.2016 06:14 9,8 C 76 % 1011,9 hPa 0,0 l/m 15,3 km/h (3 Bft) NO 38 0 min 0,000 mm 0,0 UV-I 21 W/m 5,8 C 4,8 C 19,3 km/h (3 Bft) 91,30 %
08.05.2016 06:15 9,8 C 76 % 1011,8 hPa 0,0 l/m 12,1 km/h (2 Bft) O-NO 59 0 min 0,000 mm 0,0 UV-I 21 W/m 5,8 C 6,2 C 16,1 km/h (3 Bft) 95,83 %
08.05.2016 06:16 9,8 C 76 % 1011,9 hPa 0,0 l/m 13,4 km/h (3 Bft) O-NO 58 0 min 0,000 mm 0,0 UV-I 21 W/m 5,8 C 5,6 C 19,3 km/h (3 Bft) 100,00 %
08.05.2016 06:17 9,8 C 76 % 1011,9 hPa 0,0 l/m 15,3 km/h (3 Bft) NO 40 0 min 0,000 mm 0,0 UV-I 21 W/m 5,8 C 4,8 C 20,9 km/h (4 Bft) 95,83 %
08.05.2016 06:18 9,8 C 76 % 1011,9 hPa 0,0 l/m 11,1 km/h (2 Bft) O-NO 69 0 min 0,000 mm 0,0 UV-I 21 W/m 5,8 C 6,8 C 16,1 km/h (3 Bft) 91,30 %
08.05.2016 06:19 9,8 C 76 % 1011,9 hPa 0,0 l/m 9,7 km/h (2 Bft) NO 54 0 min 0,000 mm 0,0 UV-I 22 W/m 5,8 C 7,6 C 16,1 km/h (3 Bft) 100,00 %
08.05.2016 06:20 9,8 C 76 % 1011,9 hPa 0,0 l/m 12,9 km/h (3 Bft) O-NO 67 0 min 0,000 mm 0,0 UV-I 23 W/m 5,8 C 5,8 C 16,1 km/h (3 Bft) 95,65 %
08.05.2016 06:21 9,8 C 76 % 1011,9 hPa 0,0 l/m 11,5 km/h (2 Bft) O 79 0 min 0,000 mm 0,0 UV-I 23 W/m 5,8 C 6,5 C 14,5 km/h (3 Bft) 100,00 %
08.05.2016 06:22 9,8 C 76 % 1012,0 hPa 0,0 l/m 12,2 km/h (2 Bft) O-NO 57 0 min 0,000 mm 0,0 UV-I 23 W/m 5,8 C 6,2 C 16,1 km/h (3 Bft) 95,65 %
08.05.2016 06:23 9,9 C 76 % 1011,9 hPa 0,0 l/m 10,8 km/h (2 Bft) O-NO 59 0 min 0,000 mm 0,0 UV-I 23 W/m 5,9 C 7,0 C 16,1 km/h (3 Bft) 100,00 %
08.05.2016 06:24 9,8 C 76 % 1011,9 hPa 0,0 l/m 10,4 km/h (2 Bft) N-NO 26 0 min 0,000 mm 0,0 UV-I 23 W/m 5,8 C 7,1 C 16,1 km/h (3 Bft) 95,65 %
08.05.2016 06:25 9,9 C 77 % 1012,0 hPa 0,0 l/m 9,9 km/h (2 Bft) O-NO 71 0 min 0,000 mm 0,0 UV-I 25 W/m 6,1 C 7,5 C 16,1 km/h (3 Bft) 100,00 %
08.05.2016 06:26 9,9 C 76 % 1012,0 hPa 0,0 l/m 14,3 km/h (3 Bft) O-NO 72 0 min 0,000 mm 0,0 UV-I 25 W/m 5,9 C 5,3 C 20,9 km/h (4 Bft) 96,15 %
08.05.2016 06:27 9,9 C 77 % 1012,0 hPa 0,0 l/m 16,6 km/h (3 Bft) O-NO 69 0 min 0,000 mm 0,0 UV-I 25 W/m 6,1 C 4,4 C 24,1 km/h (4 Bft) 95,83 %
08.05.2016 06:28 9,9 C 76 % 1012,0 hPa 0,0 l/m 13,9 km/h (3 Bft) O-NO 77 0 min 0,000 mm 0,0 UV-I 25 W/m 5,9 C 5,5 C 20,9 km/h (4 Bft) 95,65 %
08.05.2016 06:29 9,9 C 76 % 1012,0 hPa 0,0 l/m 17,6 km/h (3 Bft) O-NO 63 0 min 0,000 mm 0,0 UV-I 25 W/m 5,9 C 4,0 C 24,1 km/h (4 Bft) 95,83 %
08.05.2016 06:30 9,9 C 76 % 1012,0 hPa 0,0 l/m 15,7 km/h (3 Bft) NO 55 0 min 0,000 mm 0,0 UV-I 26 W/m 5,9 C 4,7 C 25,7 km/h (4 Bft) 100,00 %
08.05.2016 06:31 9,9 C 76 % 1012,0 hPa 0,0 l/m 14,2 km/h (3 Bft) O-NO 65 0 min 0,000 mm 0,0 UV-I 26 W/m 5,9 C 5,4 C 19,3 km/h (3 Bft) 95,83 %
08.05.2016 06:32 10,0 C 76 % 1012,0 hPa 0,0 l/m 16,9 km/h (3 Bft) O-NO 64 0 min 0,000 mm 0,0 UV-I 26 W/m 6,0 C 4,4 C 20,9 km/h (4 Bft) 100,00 %
08.05.2016 06:33 10,0 C 76 % 1012,0 hPa 0,0 l/m 12,7 km/h (3 Bft) N-NO 30 0 min 0,000 mm 0,0 UV-I 26 W/m 6,0 C 6,2 C 22,5 km/h (4 Bft) 96,15 %
08.05.2016 06:34 10,1 C 76 % 1012,0 hPa 0,0 l/m 15,5 km/h (3 Bft) O-NO 67 0 min 0,000 mm 0,0 UV-I 26 W/m 6,1 C 5,0 C 20,9 km/h (4 Bft) 100,00 %
08.05.2016 06:35 10,1 C 76 % 1012,0 hPa 0,0 l/m 12,1 km/h (2 Bft) NO 38 0 min 0,000 mm 0,0 UV-I 26 W/m 6,1 C 6,6 C 17,7 km/h (3 Bft) 95,65 %
08.05.2016 06:36 10,1 C 76 % 1012,0 hPa 0,0 l/m 9,6 km/h (2 Bft) NO 46 0 min 0,000 mm 0,0 UV-I 26 W/m 6,1 C 7,9 C 14,5 km/h (3 Bft) 95,83 %
08.05.2016 06:37 10,1 C 76 % 1012,0 hPa 0,0 l/m 9,6 km/h (2 Bft) O-NO 63 0 min 0,000 mm 0,0 UV-I 28 W/m 6,1 C 7,9 C 14,5 km/h (3 Bft) 100,00 %
08.05.2016 06:38 10,1 C 76 % 1012,0 hPa 0,0 l/m 12,5 km/h (3 Bft) NO 52 0 min 0,000 mm 0,0 UV-I 28 W/m 6,1 C 6,4 C 17,7 km/h (3 Bft) 95,83 %
08.05.2016 06:39 10,1 C 76 % 1012,0 hPa 0,0 l/m 12,5 km/h (3 Bft) O-NO 59 0 min 0,000 mm 0,0 UV-I 28 W/m 6,1 C 6,4 C 17,7 km/h (3 Bft) 100,00 %
08.05.2016 06:40 10,1 C 76 % 1012,0 hPa 0,0 l/m 15,3 km/h (3 Bft) O-NO 65 0 min 0,000 mm 0,0 UV-I 28 W/m 6,1 C 5,1 C 20,9 km/h (4 Bft) 96,30 %
08.05.2016 06:41 10,1 C 76 % 1012,0 hPa 0,0 l/m 17,0 km/h (3 Bft) O-NO 72 0 min 0,000 mm 0,0 UV-I 28 W/m 6,1 C 4,5 C 22,5 km/h (4 Bft) 95,65 %
08.05.2016 06:42 10,1 C 76 % 1012,0 hPa 0,0 l/m 13,1 km/h (3 Bft) O-NO 58 0 min 0,000 mm 0,0 UV-I 28 W/m 6,1 C 6,1 C 20,9 km/h (4 Bft) 95,83 %
08.05.2016 06:43 10,1 C 76 % 1012,0 hPa 0,0 l/m 16,2 km/h (3 Bft) O-NO 67 0 min 0,000 mm 0,0 UV-I 29 W/m 6,1 C 4,8 C 22,5 km/h (4 Bft) 100,00 %
08.05.2016 06:44 10,2 C 76 % 1012,1 hPa 0,0 l/m 14,9 km/h (3 Bft) NO 46 0 min 0,000 mm 0,0 UV-I 30 W/m 6,2 C 5,4 C 19,3 km/h (3 Bft) 95,83 %
08.05.2016 06:45 10,2 C 76 % 1012,1 hPa 0,0 l/m 19,9 km/h (4 Bft) NO 43 0 min 0,000 mm 0,0 UV-I 32 W/m 6,2 C 3,6 C 25,7 km/h (4 Bft) 96,15 %
08.05.2016 06:46 10,2 C 76 % 1012,1 hPa 0,0 l/m 16,6 km/h (3 Bft) O-NO 60 0 min 0,000 mm 0,0 UV-I 50 W/m 6,2 C 4,7 C 24,1 km/h (4 Bft) 100,00 %
08.05.2016 06:47 10,2 C 76 % 1012,1 hPa 0,0 l/m 15,2 km/h (3 Bft) NO 55 0 min 0,000 mm 0,0 UV-I 83 W/m 6,2 C 5,3 C 20,9 km/h (4 Bft) 100,00 %
08.05.2016 06:48 10,2 C 76 % 1012,1 hPa 0,0 l/m 17,0 km/h (3 Bft) NO 38 0 min 0,000 mm 0,0 UV-I 96 W/m 6,2 C 4,6 C 22,5 km/h (4 Bft) 100,00 %
08.05.2016 06:49 10,2 C 76 % 1012,1 hPa 0,0 l/m 15,6 km/h (3 Bft) O-NO 57 0 min 0,000 mm 0,0 UV-I 97 W/m 6,2 C 5,1 C 20,9 km/h (4 Bft) 91,67 %
08.05.2016 06:50 10,2 C 76 % 1012,1 hPa 0,0 l/m 11,4 km/h (2 Bft) O-NO 68 0 min 0,000 mm 0,0 UV-I 99 W/m 6,2 C 7,1 C 19,3 km/h (3 Bft) 96,43 %
08.05.2016 06:51 10,2 C 76 % 1012,1 hPa 0,0 l/m 15,1 km/h (3 Bft) O-NO 71 0 min 0,000 mm 0,0 UV-I 103 W/m 6,2 C 5,3 C 20,9 km/h (4 Bft) 100,00 %
08.05.2016 06:52 10,2 C 76 % 1012,1 hPa 0,0 l/m 17,0 km/h (3 Bft) N-NO 13 0 min 0,000 mm 0,0 UV-I 105 W/m 6,2 C 4,6 C 20,9 km/h (4 Bft) 95,83 %
08.05.2016 06:53 10,3 C 76 % 1012,1 hPa 0,0 l/m 21,2 km/h (4 Bft) O-NO 74 0 min 0,000 mm 0,0 UV-I 107 W/m 6,3 C 3,3 C 27,4 km/h (4 Bft) 100,00 %
08.05.2016 06:54 10,3 C 76 % 1012,1 hPa 0,0 l/m 18,7 km/h (3 Bft) NO 53 1 min 0,000 mm 0,0 UV-I 112 W/m 6,3 C 4,1 C 27,4 km/h (4 Bft) 100,00 %
08.05.2016 06:55 10,3 C 76 % 1012,1 hPa 0,0 l/m 12,5 km/h (3 Bft) O-NO 58 1 min 0,000 mm 0,0 UV-I 114 W/m 6,3 C 6,6 C 19,3 km/h (3 Bft) 100,00 %
08.05.2016 06:56 10,3 C 76 % 1012,2 hPa 0,0 l/m 18,5 km/h (3 Bft) O-NO 59 1 min 0,000 mm 0,0 UV-I 117 W/m 6,3 C 4,2 C 24,1 km/h (4 Bft) 100,00 %
08.05.2016 06:57 10,3 C 76 % 1012,2 hPa 0,0 l/m 19,4 km/h (3 Bft) O-NO 61 1 min 0,000 mm 0,0 UV-I 120 W/m 6,3 C 3,9 C 24,1 km/h (4 Bft) 95,83 %
08.05.2016 06:58 10,4 C 76 % 1012,2 hPa 0,0 l/m 19,7 km/h (3 Bft) O-NO 58 1 min 0,000 mm 0,0 UV-I 123 W/m 6,4 C 3,9 C 24,1 km/h (4 Bft) 95,65 %
08.05.2016 06:59 10,4 C 75 % 1012,3 hPa 0,0 l/m 14,7 km/h (3 Bft) O-NO 57 1 min 0,000 mm 0,0 UV-I 127 W/m 6,2 C 5,7 C 16,1 km/h (3 Bft) 100,00 %
08.05.2016 07:00 10,4 C 76 % 1012,3 hPa 0,0 l/m 18,2 km/h (3 Bft) NO 49 1 min 0,051 mm 0,0 UV-I 129 W/m 6,4 C 4,4 C 25,7 km/h (4 Bft) 100,00 %
08.05.2016 07:01 10,4 C 76 % 1012,2 hPa 0,0 l/m 10,9 km/h (2 Bft) N-NO 28 1 min 0,000 mm 0,0 UV-I 131 W/m 6,4 C 7,5 C 16,1 km/h (3 Bft) 100,00 %
08.05.2016 07:02 10,4 C 76 % 1012,2 hPa 0,0 l/m 18,0 km/h (3 Bft) O-NO 61 1 min 0,000 mm 0,0 UV-I 133 W/m 6,4 C 4,5 C 24,1 km/h (4 Bft) 100,00 %
08.05.2016 07:03 10,5 C 76 % 1012,2 hPa 0,0 l/m 20,6 km/h (4 Bft) NO 55 1 min 0,000 mm 0,0 UV-I 134 W/m 6,5 C 3,7 C 27,4 km/h (4 Bft) 100,00 %
08.05.2016 07:04 10,5 C 75 % 1012,3 hPa 0,0 l/m 15,8 km/h (3 Bft) NO 48 1 min 0,000 mm 0,0 UV-I 135 W/m 6,3 C 5,4 C 22,5 km/h (4 Bft) 100,00 %
08.05.2016 07:05 10,6 C 75 % 1012,3 hPa 0,0 l/m 17,4 km/h (3 Bft) NO 47 1 min 0,000 mm 0,0 UV-I 135 W/m 6,4 C 4,9 C 20,9 km/h (4 Bft) 100,00 %
08.05.2016 07:06 10,6 C 75 % 1012,3 hPa 0,0 l/m 21,8 km/h (4 Bft) O-NO 61 1 min 0,000 mm 0,0 UV-I 135 W/m 6,4 C 3,5 C 29,0 km/h (5 Bft) 100,00 %
08.05.2016 07:07 10,6 C 75 % 1012,3 hPa 0,0 l/m 17,1 km/h (3 Bft) O-NO 65 1 min 0,000 mm 0,0 UV-I 136 W/m 6,4 C 5,0 C 20,9 km/h (4 Bft) 100,00 %
08.05.2016 07:08 10,6 C 76 % 1012,2 hPa 0,0 l/m 16,3 km/h (3 Bft) NO 53 1 min 0,000 mm 0,0 UV-I 137 W/m 6,5 C 5,3 C 24,1 km/h (4 Bft) 100,00 %
08.05.2016 07:09 10,6 C 76 % 1012,2 hPa 0,0 l/m 15,5 km/h (3 Bft) O 84 1 min 0,000 mm 0,0 UV-I 137 W/m 6,5 C 5,7 C 22,5 km/h (4 Bft) 100,00 %
08.05.2016 07:10 10,6 C 76 % 1012,3 hPa 0,0 l/m 18,8 km/h (3 Bft) NO 36 1 min 0,000 mm 0,0 UV-I 137 W/m 6,5 C 4,5 C 27,4 km/h (4 Bft) 100,00 %
08.05.2016 07:11 10,6 C 76 % 1012,2 hPa 0,0 l/m 18,2 km/h (3 Bft) O-NO 74 1 min 0,000 mm 0,0 UV-I 137 W/m 6,5 C 4,7 C 27,4 km/h (4 Bft) 100,00 %
08.05.2016 07:12 10,7 C 75 % 1012,3 hPa 0,0 l/m 16,1 km/h (3 Bft) O-NO 61 1 min 0,000 mm 0,0 UV-I 140 W/m 6,5 C 5,5 C 20,9 km/h (4 Bft) 100,00 %
08.05.2016 07:13 10,7 C 75 % 1012,3 hPa 0,0 l/m 9,1 km/h (2 Bft) NO 53 1 min 0,000 mm 0,0 UV-I 142 W/m 6,5 C 8,9 C 14,5 km/h (3 Bft) 95,83 %
08.05.2016 07:14 10,7 C 76 % 1012,4 hPa 0,0 l/m 13,9 km/h (3 Bft) NO 56 1 min 0,000 mm 0,0 UV-I 146 W/m 6,6 C 6,4 C 20,9 km/h (4 Bft) 100,00 %
08.05.2016 07:15 10,7 C 76 % 1012,4 hPa 0,0 l/m 17,1 km/h (3 Bft) NO 43 1 min 0,000 mm 0,0 UV-I 150 W/m 6,6 C 5,2 C 22,5 km/h (4 Bft) 100,00 %
08.05.2016 07:16 10,7 C 75 % 1012,4 hPa 0,0 l/m 17,6 km/h (3 Bft) NO 55 1 min 0,000 mm 0,0 UV-I 156 W/m 6,5 C 5,0 C 20,9 km/h (4 Bft) 100,00 %
08.05.2016 07:17 10,7 C 75 % 1012,4 hPa 0,0 l/m 20,5 km/h (4 Bft) O-NO 59 1 min 0,000 mm 0,0 UV-I 162 W/m 6,5 C 4,0 C 27,4 km/h (4 Bft) 100,00 %
08.05.2016 07:18 10,8 C 75 % 1012,4 hPa 0,0 l/m 16,3 km/h (3 Bft) O-NO 59 1 min 0,000 mm 0,0 UV-I 167 W/m 6,5 C 5,6 C 20,9 km/h (4 Bft) 100,00 %
08.05.2016 07:19 10,8 C 75 % 1012,4 hPa 0,0 l/m 20,2 km/h (4 Bft) NO 50 1 min 0,000 mm 0,0 UV-I 175 W/m 6,5 C 4,3 C 27,4 km/h (4 Bft) 100,00 %
08.05.2016 07:20 10,8 C 75 % 1012,4 hPa 0,0 l/m 20,6 km/h (4 Bft) O-NO 63 1 min 0,000 mm 0,0 UV-I 181 W/m 6,5 C 4,1 C 27,4 km/h (4 Bft) 100,00 %
08.05.2016 07:21 10,8 C 75 % 1012,4 hPa 0,0 l/m 16,7 km/h (3 Bft) O-NO 67 1 min 0,000 mm 0,0 UV-I 187 W/m 6,5 C 5,4 C 22,5 km/h (4 Bft) 100,00 %
08.05.2016 07:22 10,9 C 75 % 1012,4 hPa 0,0 l/m 21,7 km/h (4 Bft) O-NO 61 1 min 0,000 mm 0,0 UV-I 193 W/m 6,6 C 3,9 C 27,4 km/h (4 Bft) 100,00 %
08.05.2016 07:23 10,9 C 75 % 1012,4 hPa 0,0 l/m 18,2 km/h (3 Bft) O-NO 60 1 min 0,000 mm 0,0 UV-I 200 W/m 6,6 C 5,0 C 24,1 km/h (4 Bft) 100,00 %
08.05.2016 07:24 10,9 C 75 % 1012,4 hPa 0,0 l/m 17,2 km/h (3 Bft) NO 49 1 min 0,000 mm 0,0 UV-I 205 W/m 6,6 C 5,4 C 20,9 km/h (4 Bft) 100,00 %
08.05.2016 07:25 10,9 C 75 % 1012,4 hPa 0,0 l/m 16,4 km/h (3 Bft) NO 44 1 min 0,000 mm 0,0 UV-I 208 W/m 6,6 C 5,7 C 22,5 km/h (4 Bft) 100,00 %
08.05.2016 07:26 10,9 C 75 % 1012,4 hPa 0,0 l/m 14,8 km/h (3 Bft) NO 51 1 min 0,000 mm 0,0 UV-I 211 W/m 6,6 C 6,3 C 19,3 km/h (3 Bft) 100,00 %
08.05.2016 07:27 11,0 C 75 % 1012,5 hPa 0,0 l/m 17,2 km/h (3 Bft) NO 51 1 min 0,000 mm 0,0 UV-I 216 W/m 6,7 C 5,5 C 24,1 km/h (4 Bft) 100,00 %
08.05.2016 07:28 11,0 C 75 % 1012,5 hPa 0,0 l/m 17,3 km/h (3 Bft) NO 49 1 min 0,000 mm 0,0 UV-I 218 W/m 6,7 C 5,5 C 25,7 km/h (4 Bft) 100,00 %
08.05.2016 07:29 11,1 C 75 % 1012,5 hPa 0,0 l/m 19,4 km/h (3 Bft) O-NO 68 1 min 0,000 mm 0,0 UV-I 221 W/m 6,8 C 4,9 C 27,4 km/h (4 Bft) 100,00 %
08.05.2016 07:30 11,1 C 74 % 1012,5 hPa 0,0 l/m 21,9 km/h (4 Bft) O-NO 59 1 min 0,000 mm 0,0 UV-I 224 W/m 6,6 C 4,1 C 30,6 km/h (5 Bft) 100,00 %
08.05.2016 07:31 11,1 C 74 % 1012,6 hPa 0,0 l/m 17,4 km/h (3 Bft) NO 51 1 min 0,000 mm 0,0 UV-I 226 W/m 6,6 C 5,6 C 20,9 km/h (4 Bft) 100,00 %
08.05.2016 07:32 11,1 C 74 % 1012,5 hPa 0,0 l/m 14,5 km/h (3 Bft) NO 56 1 min 0,000 mm 0,0 UV-I 229 W/m 6,6 C 6,7 C 20,9 km/h (4 Bft) 95,83 %
08.05.2016 07:33 11,2 C 74 % 1012,5 hPa 0,0 l/m 21,6 km/h (4 Bft) NO 56 1 min 0,000 mm 0,0 UV-I 232 W/m 6,7 C 4,4 C 32,2 km/h (5 Bft) 100,00 %
08.05.2016 07:34 11,2 C 74 % 1012,5 hPa 0,0 l/m 16,7 km/h (3 Bft) O-NO 74 1 min 0,000 mm 0,0 UV-I 236 W/m 6,7 C 5,9 C 20,9 km/h (4 Bft) 100,00 %
08.05.2016 07:35 11,2 C 74 % 1012,5 hPa 0,0 l/m 14,8 km/h (3 Bft) NO 51 1 min 0,000 mm 0,0 UV-I 238 W/m 6,7 C 6,7 C 17,7 km/h (3 Bft) 100,00 %
08.05.2016 07:36 11,2 C 75 % 1012,6 hPa 0,0 l/m 18,3 km/h (3 Bft) O-NO 65 1 min 0,000 mm 0,0 UV-I 241 W/m 6,9 C 5,4 C 24,1 km/h (4 Bft) 100,00 %
08.05.2016 07:37 11,2 C 74 % 1012,6 hPa 0,0 l/m 20,5 km/h (4 Bft) NO 55 1 min 0,000 mm 0,0 UV-I 244 W/m 6,7 C 4,7 C 25,7 km/h (4 Bft) 100,00 %
08.05.2016 07:38 11,3 C 74 % 1012,6 hPa 0,0 l/m 14,7 km/h (3 Bft) NO 45 1 min 0,000 mm 0,0 UV-I 246 W/m 6,8 C 6,8 C 20,9 km/h (4 Bft) 100,00 %
08.05.2016 07:39 11,3 C 75 % 1012,6 hPa 0,0 l/m 13,6 km/h (3 Bft) NO 51 1 min 0,000 mm 0,0 UV-I 248 W/m 7,0 C 7,3 C 19,3 km/h (3 Bft) 100,00 %
08.05.2016 07:40 11,3 C 75 % 1012,6 hPa 0,0 l/m 14,6 km/h (3 Bft) NO 44 1 min 0,000 mm 0,4 UV-I 251 W/m 7,0 C 6,9 C 19,3 km/h (3 Bft) 100,00 %
08.05.2016 07:41 11,3 C 75 % 1012,6 hPa 0,0 l/m 13,8 km/h (3 Bft) NO 51 1 min 0,000 mm 0,5 UV-I 254 W/m 7,0 C 7,2 C 22,5 km/h (4 Bft) 95,83 %
08.05.2016 07:42 11,3 C 74 % 1012,6 hPa 0,0 l/m 19,2 km/h (3 Bft) O-NO 64 1 min 0,000 mm 0,5 UV-I 256 W/m 6,8 C 5,2 C 24,1 km/h (4 Bft) 100,00 %
08.05.2016 07:43 11,4 C 75 % 1012,5 hPa 0,0 l/m 16,2 km/h (3 Bft) O-NO 63 1 min 0,000 mm 0,5 UV-I 259 W/m 7,1 C 6,4 C 22,5 km/h (4 Bft) 100,00 %
08.05.2016 07:44 11,4 C 74 % 1012,6 hPa 0,0 l/m 16,0 km/h (3 Bft) O-NO 74 1 min 0,000 mm 0,5 UV-I 263 W/m 6,9 C 6,4 C 20,9 km/h (4 Bft) 100,00 %
08.05.2016 07:45 11,4 C 74 % 1012,6 hPa 0,0 l/m 17,7 km/h (3 Bft) O-NO 63 1 min 0,000 mm 0,5 UV-I 265 W/m 6,9 C 5,8 C 24,1 km/h (4 Bft) 100,00 %
08.05.2016 07:46 11,4 C 74 % 1012,6 hPa 0,0 l/m 23,3 km/h (4 Bft) NO 47 1 min 0,000 mm 0,5 UV-I 269 W/m 6,9 C 4,2 C 29,0 km/h (5 Bft) 96,15 %
08.05.2016 07:47 11,5 C 74 % 1012,6 hPa 0,0 l/m 19,2 km/h (3 Bft) NO 53 1 min 0,000 mm 0,5 UV-I 272 W/m 7,0 C 5,5 C 24,1 km/h (4 Bft) 100,00 %
08.05.2016 07:48 11,5 C 74 % 1012,6 hPa 0,0 l/m 16,8 km/h (3 Bft) O-NO 65 1 min 0,000 mm 0,5 UV-I 275 W/m 7,0 C 6,3 C 25,7 km/h (4 Bft) 100,00 %
08.05.2016 07:49 11,5 C 73 % 1012,6 hPa 0,0 l/m 22,4 km/h (4 Bft) O-NO 59 1 min 0,000 mm 0,5 UV-I 277 W/m 6,8 C 4,5 C 30,6 km/h (5 Bft) 100,00 %
08.05.2016 07:50 11,6 C 74 % 1012,6 hPa 0,0 l/m 17,9 km/h (3 Bft) O-NO 68 1 min 0,000 mm 0,5 UV-I 280 W/m 7,1 C 6,0 C 22,5 km/h (4 Bft) 100,00 %
08.05.2016 07:51 11,6 C 74 % 1012,6 hPa 0,0 l/m 18,2 km/h (3 Bft) NO 46 1 min 0,000 mm 0,6 UV-I 283 W/m 7,1 C 5,9 C 20,9 km/h (4 Bft) 100,00 %
08.05.2016 07:52 11,6 C 74 % 1012,6 hPa 0,0 l/m 19,8 km/h (3 Bft) NO 46 1 min 0,000 mm 0,6 UV-I 286 W/m 7,1 C 5,4 C 25,7 km/h (4 Bft) 100,00 %
08.05.2016 07:53 11,6 C 74 % 1012,6 hPa 0,0 l/m 15,1 km/h (3 Bft) NO 55 1 min 0,000 mm 0,6 UV-I 288 W/m 7,1 C 7,0 C 24,1 km/h (4 Bft) 100,00 %
08.05.2016 07:54 11,6 C 74 % 1012,6 hPa 0,0 l/m 16,8 km/h (3 Bft) NO 41 1 min 0,000 mm 0,6 UV-I 289 W/m 7,1 C 6,4 C 25,7 km/h (4 Bft) 100,00 %
08.05.2016 07:55 11,7 C 74 % 1012,6 hPa 0,0 l/m 15,5 km/h (3 Bft) NO 51 1 min 0,000 mm 0,6 UV-I 290 W/m 7,2 C 7,0 C 20,9 km/h (4 Bft) 100,00 %
08.05.2016 07:56 11,7 C 74 % 1012,6 hPa 0,0 l/m 13,4 km/h (3 Bft) NO 37 1 min 0,000 mm 0,6 UV-I 290 W/m 7,2 C 7,8 C 19,3 km/h (3 Bft) 100,00 %
08.05.2016 07:57 11,7 C 74 % 1012,6 hPa 0,0 l/m 17,2 km/h (3 Bft) O-NO 65 1 min 0,000 mm 0,6 UV-I 288 W/m 7,2 C 6,4 C 22,5 km/h (4 Bft) 100,00 %
08.05.2016 07:58 11,7 C 74 % 1012,6 hPa 0,0 l/m 12,9 km/h (3 Bft) NO 44 1 min 0,000 mm 0,6 UV-I 287 W/m 7,2 C 8,1 C 24,1 km/h (4 Bft) 100,00 %
08.05.2016 07:59 11,8 C 74 % 1012,6 hPa 0,0 l/m 17,8 km/h (3 Bft) O-NO 66 1 min 0,000 mm 0,6 UV-I 284 W/m 7,3 C 6,3 C 22,5 km/h (4 Bft) 100,00 %
08.05.2016 08:00 11,8 C 74 % 1012,6 hPa 0,0 l/m 17,8 km/h (3 Bft) O-NO 74 1 min 0,152 mm 0,6 UV-I 281 W/m 7,3 C 6,3 C 24,1 km/h (4 Bft) 100,00 %
08.05.2016 08:01 11,8 C 73 % 1012,6 hPa 0,0 l/m 15,1 km/h (3 Bft) O-NO 63 1 min 0,000 mm 0,6 UV-I 277 W/m 7,1 C 7,3 C 24,1 km/h (4 Bft) 100,00 %
08.05.2016 08:02 11,8 C 74 % 1012,6 hPa 0,0 l/m 15,3 km/h (3 Bft) NO 37 1 min 0,000 mm 0,7 UV-I 273 W/m 7,3 C 7,2 C 24,1 km/h (4 Bft) 100,00 %
08.05.2016 08:03 11,9 C 73 % 1012,6 hPa 0,0 l/m 15,7 km/h (3 Bft) NO 55 1 min 0,000 mm 0,7 UV-I 269 W/m 7,2 C 7,2 C 22,5 km/h (4 Bft) 100,00 %
08.05.2016 08:04 11,9 C 73 % 1012,6 hPa 0,0 l/m 13,7 km/h (3 Bft) NO 46 1 min 0,000 mm 0,7 UV-I 267 W/m 7,2 C 8,0 C 17,7 km/h (3 Bft) 100,00 %
08.05.2016 08:05 11,9 C 73 % 1012,7 hPa 0,0 l/m 18,1 km/h (3 Bft) NO 53 1 min 0,000 mm 0,7 UV-I 265 W/m 7,2 C 6,3 C 25,7 km/h (4 Bft) 95,65 %
08.05.2016 08:06 11,9 C 73 % 1012,6 hPa 0,0 l/m 14,0 km/h (3 Bft) NO 38 1 min 0,000 mm 0,7 UV-I 264 W/m 7,2 C 7,8 C 20,9 km/h (4 Bft) 100,00 %
08.05.2016 08:07 12,0 C 72 % 1012,6 hPa 0,0 l/m 17,0 km/h (3 Bft) O-NO 59 1 min 0,000 mm 0,7 UV-I 264 W/m 7,1 C 6,8 C 24,1 km/h (4 Bft) 100,00 %
08.05.2016 08:08 12,0 C 73 % 1012,6 hPa 0,0 l/m 14,4 km/h (3 Bft) NO 46 1 min 0,000 mm 0,7 UV-I 265 W/m 7,3 C 7,8 C 19,3 km/h (3 Bft) 100,00 %
08.05.2016 08:09 12,1 C 73 % 1012,6 hPa 0,0 l/m 9,9 km/h (2 Bft) NO 41 1 min 0,000 mm 0,7 UV-I 269 W/m 7,4 C 10,0 C 17,7 km/h (3 Bft) 95,65 %
08.05.2016 08:10 12,1 C 73 % 1012,6 hPa 0,0 l/m 14,6 km/h (3 Bft) O-NO 58 1 min 0,000 mm 0,7 UV-I 274 W/m 7,4 C 7,8 C 20,9 km/h (4 Bft) 95,83 %
08.05.2016 08:11 12,1 C 73 % 1012,6 hPa 0,0 l/m 15,4 km/h (3 Bft) O-NO 67 1 min 0,000 mm 0,8 UV-I 282 W/m 7,4 C 7,5 C 19,3 km/h (3 Bft) 100,00 %
08.05.2016 08:12 12,2 C 74 % 1012,6 hPa 0,0 l/m 17,6 km/h (3 Bft) NO 53 1 min 0,000 mm 0,8 UV-I 294 W/m 7,7 C 6,9 C 20,9 km/h (4 Bft) 91,30 %
08.05.2016 08:13 12,2 C 72 % 1012,6 hPa 0,0 l/m 18,3 km/h (3 Bft) O-NO 61 1 min 0,000 mm 0,8 UV-I 306 W/m 7,3 C 6,7 C 24,1 km/h (4 Bft) 91,67 %
08.05.2016 08:14 12,2 C 72 % 1012,6 hPa 0,0 l/m 21,0 km/h (4 Bft) NO 55 1 min 0,000 mm 0,8 UV-I 319 W/m 7,3 C 5,8 C 29,0 km/h (5 Bft) 100,00 %
08.05.2016 08:15 12,3 C 72 % 1012,6 hPa 0,0 l/m 16,4 km/h (3 Bft) NO 55 1 min 0,000 mm 0,8 UV-I 333 W/m 7,4 C 7,4 C 20,9 km/h (4 Bft) 96,30 %
08.05.2016 08:16 12,3 C 72 % 1012,6 hPa 0,0 l/m 12,7 km/h (3 Bft) NO 49 1 min 0,000 mm 0,8 UV-I 343 W/m 7,4 C 8,9 C 17,7 km/h (3 Bft) 100,00 %
08.05.2016 08:17 12,3 C 73 % 1012,6 hPa 0,0 l/m 11,4 km/h (2 Bft) O-NO 57 1 min 0,000 mm 0,8 UV-I 350 W/m 7,6 C 9,4 C 16,1 km/h (3 Bft) 95,83 %
08.05.2016 08:18 12,3 C 72 % 1012,5 hPa 0,0 l/m 14,3 km/h (3 Bft) NO 34 1 min 0,000 mm 0,8 UV-I 356 W/m 7,4 C 8,2 C 20,9 km/h (4 Bft) 95,65 %
08.05.2016 08:19 12,4 C 72 % 1012,6 hPa 0,0 l/m 13,5 km/h (3 Bft) NO 49 1 min 0,000 mm 0,9 UV-I 361 W/m 7,5 C 8,6 C 17,7 km/h (3 Bft) 95,83 %
08.05.2016 08:20 12,4 C 72 % 1012,6 hPa 0,0 l/m 17,2 km/h (3 Bft) O-NO 64 1 min 0,000 mm 0,9 UV-I 366 W/m 7,5 C 7,3 C 25,7 km/h (4 Bft) 95,65 %
08.05.2016 08:21 12,4 C 71 % 1012,6 hPa 0,0 l/m 19,2 km/h (3 Bft) NO 48 1 min 0,000 mm 0,9 UV-I 368 W/m 7,3 C 6,6 C 22,5 km/h (4 Bft) 100,00 %
08.05.2016 08:22 12,5 C 71 % 1012,6 hPa 0,0 l/m 22,7 km/h (4 Bft) O-NO 66 1 min 0,000 mm 0,9 UV-I 372 W/m 7,4 C 5,8 C 30,6 km/h (5 Bft) 95,65 %
08.05.2016 08:23 12,5 C 70 % 1012,6 hPa 0,0 l/m 18,2 km/h (3 Bft) NO 55 1 min 0,000 mm 0,9 UV-I 374 W/m 7,2 C 7,1 C 25,7 km/h (4 Bft) 100,00 %
08.05.2016 08:24 12,5 C 71 % 1012,6 hPa 0,0 l/m 16,0 km/h (3 Bft) O-NO 73 1 min 0,000 mm 0,9 UV-I 376 W/m 7,4 C 7,8 C 24,1 km/h (4 Bft) 91,30 %
08.05.2016 08:25 12,6 C 71 % 1012,6 hPa 0,0 l/m 19,2 km/h (3 Bft) O 88 1 min 0,000 mm 0,9 UV-I 377 W/m 7,5 C 6,9 C 27,4 km/h (4 Bft) 100,00 %
08.05.2016 08:26 12,6 C 71 % 1012,7 hPa 0,0 l/m 18,3 km/h (3 Bft) NO 41 1 min 0,000 mm 0,9 UV-I 380 W/m 7,5 C 7,2 C 22,5 km/h (4 Bft) 95,65 %
08.05.2016 08:27 12,6 C 72 % 1012,7 hPa 0,0 l/m 15,2 km/h (3 Bft) NO 45 1 min 0,000 mm 0,9 UV-I 380 W/m 7,7 C 8,2 C 20,9 km/h (4 Bft) 100,00 %
08.05.2016 08:28 12,6 C 72 % 1012,7 hPa 0,0 l/m 13,0 km/h (3 Bft) NO 43 1 min 0,000 mm 1,0 UV-I 382 W/m 7,7 C 9,1 C 19,3 km/h (3 Bft) 95,65 %
08.05.2016 08:29 12,7 C 72 % 1012,7 hPa 0,0 l/m 19,1 km/h (3 Bft) O-NO 67 1 min 0,000 mm 1,0 UV-I 382 W/m 7,8 C 7,0 C 22,5 km/h (4 Bft) 91,67 %
08.05.2016 08:30 12,7 C 71 % 1012,7 hPa 0,0 l/m 18,9 km/h (3 Bft) NO 56 1 min 0,000 mm 1,0 UV-I 381 W/m 7,6 C 7,1 C 25,7 km/h (4 Bft) 100,00 %
08.05.2016 08:31 12,7 C 71 % 1012,7 hPa 0,0 l/m 17,6 km/h (3 Bft) O-NO 67 1 min 0,000 mm 1,0 UV-I 381 W/m 7,6 C 7,5 C 20,9 km/h (4 Bft) 92,31 %
08.05.2016 08:32 12,7 C 71 % 1012,7 hPa 0,0 l/m 17,0 km/h (3 Bft) O-NO 65 1 min 0,000 mm 1,0 UV-I 381 W/m 7,6 C 7,7 C 20,9 km/h (4 Bft) 100,00 %
08.05.2016 08:33 12,7 C 71 % 1012,7 hPa 0,0 l/m 19,0 km/h (3 Bft) O-NO 69 1 min 0,000 mm 1,0 UV-I 380 W/m 7,6 C 7,1 C 22,5 km/h (4 Bft) 91,30 %
08.05.2016 08:34 12,8 C 72 % 1012,7 hPa 0,0 l/m 17,1 km/h (3 Bft) N-NO 24 1 min 0,000 mm 1,0 UV-I 378 W/m 7,9 C 7,8 C 20,9 km/h (4 Bft) 100,00 %
08.05.2016 08:35 12,8 C 72 % 1012,7 hPa 0,0 l/m 18,5 km/h (3 Bft) O-NO 67 1 min 0,000 mm 1,0 UV-I 378 W/m 7,9 C 7,3 C 24,1 km/h (4 Bft) 95,65 %
08.05.2016 08:36 12,8 C 70 % 1012,7 hPa 0,0 l/m 20,0 km/h (4 Bft) NO 36 1 min 0,000 mm 1,1 UV-I 377 W/m 7,5 C 6,9 C 25,7 km/h (4 Bft) 95,83 %
08.05.2016 08:37 12,8 C 70 % 1012,7 hPa 0,0 l/m 16,8 km/h (3 Bft) NO 48 1 min 0,000 mm 1,1 UV-I 374 W/m 7,5 C 7,9 C 22,5 km/h (4 Bft) 100,00 %
08.05.2016 08:38 12,8 C 70 % 1012,7 hPa 0,0 l/m 17,4 km/h (3 Bft) O-NO 70 1 min 0,000 mm 1,1 UV-I 369 W/m 7,5 C 7,7 C 24,1 km/h (4 Bft) 95,83 %
08.05.2016 08:39 12,9 C 71 % 1012,7 hPa 0,0 l/m 12,7 km/h (3 Bft) O-NO 67 1 min 0,000 mm 1,1 UV-I 363 W/m 7,8 C 9,6 C 17,7 km/h (3 Bft) 100,00 %
08.05.2016 08:40 12,9 C 71 % 1012,7 hPa 0,0 l/m 18,5 km/h (3 Bft) NO 47 1 min 0,000 mm 1,1 UV-I 354 W/m 7,8 C 7,5 C 24,1 km/h (4 Bft) 100,00 %
08.05.2016 08:41 12,9 C 70 % 1012,7 hPa 0,0 l/m 17,6 km/h (3 Bft) O-NO 60 1 min 0,000 mm 1,1 UV-I 346 W/m 7,6 C 7,8 C 22,5 km/h (4 Bft) 100,00 %
08.05.2016 08:42 12,9 C 71 % 1012,7 hPa 0,0 l/m 13,0 km/h (3 Bft) NO 53 1 min 0,000 mm 1,1 UV-I 336 W/m 7,8 C 9,4 C 16,1 km/h (3 Bft) 96,30 %
08.05.2016 08:43 13,1 C 71 % 1012,8 hPa 0,0 l/m 12,8 km/h (3 Bft) NO 48 1 min 0,000 mm 1,2 UV-I 326 W/m 8,0 C 9,7 C 19,3 km/h (3 Bft) 100,00 %
08.05.2016 08:44 13,1 C 70 % 1012,7 hPa 0,0 l/m 23,6 km/h (4 Bft) O-NO 71 1 min 0,000 mm 1,2 UV-I 316 W/m 7,8 C 6,4 C 29,0 km/h (5 Bft) 95,83 %
08.05.2016 08:45 13,1 C 70 % 1012,7 hPa 0,0 l/m 21,2 km/h (4 Bft) NO 55 1 min 0,000 mm 1,2 UV-I 305 W/m 7,8 C 7,0 C 27,4 km/h (4 Bft) 93,10 %
08.05.2016 08:46 13,1 C 69 % 1012,7 hPa 0,0 l/m 22,5 km/h (4 Bft) O-NO 59 1 min 0,000 mm 1,2 UV-I 295 W/m 7,5 C 6,6 C 29,0 km/h (5 Bft) 100,00 %
08.05.2016 08:47 13,2 C 69 % 1012,7 hPa 0,0 l/m 17,2 km/h (3 Bft) NO 55 1 min 0,000 mm 1,2 UV-I 286 W/m 7,6 C 8,3 C 22,5 km/h (4 Bft) 95,65 %
08.05.2016 08:48 13,2 C 70 % 1012,8 hPa 0,0 l/m 18,2 km/h (3 Bft) NO 49 1 min 0,000 mm 1,2 UV-I 279 W/m 7,9 C 7,9 C 22,5 km/h (4 Bft) 100,00 %
08.05.2016 08:49 13,2 C 70 % 1012,8 hPa 0,0 l/m 14,0 km/h (3 Bft) O-NO 64 0 min 0,000 mm 1,2 UV-I 272 W/m 7,9 C 9,4 C 17,7 km/h (3 Bft) 91,30 %
08.05.2016 08:50 13,2 C 71 % 1012,7 hPa 0,0 l/m 20,5 km/h (4 Bft) O-NO 65 0 min 0,000 mm 1,3 UV-I 271 W/m 8,1 C 7,3 C 32,2 km/h (5 Bft) 95,83 %
08.05.2016 08:51 13,3 C 69 % 1012,7 hPa 0,0 l/m 20,2 km/h (4 Bft) O 83 0 min 0,000 mm 1,3 UV-I 274 W/m 7,7 C 7,5 C 27,4 km/h (4 Bft) 95,83 %
08.05.2016 08:52 13,3 C 69 % 1012,8 hPa 0,0 l/m 21,7 km/h (4 Bft) O-NO 66 0 min 0,000 mm 1,3 UV-I 282 W/m 7,7 C 7,1 C 29,0 km/h (5 Bft) 100,00 %
08.05.2016 08:53 13,3 C 68 % 1012,8 hPa 0,0 l/m 23,1 km/h (4 Bft) NO 49 1 min 0,000 mm 1,3 UV-I 291 W/m 7,5 C 6,7 C 33,8 km/h (5 Bft) 100,00 %
08.05.2016 08:54 13,3 C 68 % 1012,8 hPa 0,0 l/m 27,7 km/h (4 Bft) NO 54 1 min 0,000 mm 1,3 UV-I 302 W/m 7,5 C 5,7 C 35,4 km/h (5 Bft) 100,00 %
08.05.2016 08:55 13,3 C 69 % 1012,8 hPa 0,0 l/m 23,7 km/h (4 Bft) NO 44 1 min 0,000 mm 1,3 UV-I 313 W/m 7,7 C 6,6 C 29,0 km/h (5 Bft) 100,00 %
08.05.2016 08:56 13,3 C 69 % 1012,8 hPa 0,0 l/m 27,2 km/h (4 Bft) O-NO 67 1 min 0,000 mm 1,3 UV-I 317 W/m 7,7 C 5,8 C 35,4 km/h (5 Bft) 95,65 %
08.05.2016 08:57 13,3 C 68 % 1012,8 hPa 0,0 l/m 25,5 km/h (4 Bft) NO 51 1 min 0,000 mm 1,3 UV-I 342 W/m 7,5 C 6,2 C 37,0 km/h (5 Bft) 100,00 %
08.05.2016 08:58 13,3 C 68 % 1012,8 hPa 0,0 l/m 26,6 km/h (4 Bft) O 94 1 min 0,000 mm 1,3 UV-I 353 W/m 7,5 C 6,0 C 32,2 km/h (5 Bft) 100,00 %
08.05.2016 08:59 13,3 C 68 % 1012,8 hPa 0,0 l/m 27,1 km/h (4 Bft) O 83 1 min 0,000 mm 1,4 UV-I 364 W/m 7,5 C 5,9 C 35,4 km/h (5 Bft) 100,00 %
08.05.2016 09:00 13,3 C 68 % 1012,8 hPa 0,0 l/m 25,7 km/h (4 Bft) O-NO 60 1 min 0,229 mm 1,4 UV-I 376 W/m 7,5 C 6,2 C 32,2 km/h (5 Bft) 100,00 %
08.05.2016 09:01 13,3 C 68 % 1012,8 hPa 0,0 l/m 27,2 km/h (4 Bft) O-NO 62 1 min 0,000 mm 1,4 UV-I 384 W/m 7,5 C 5,8 C 35,4 km/h (5 Bft) 100,00 %
08.05.2016 09:02 13,4 C 68 % 1012,8 hPa 0,0 l/m 26,6 km/h (4 Bft) NO 48 1 min 0,000 mm 1,4 UV-I 395 W/m 7,6 C 6,1 C 32,2 km/h (5 Bft) 100,00 %
08.05.2016 09:03 13,4 C 68 % 1012,8 hPa 0,0 l/m 26,7 km/h (4 Bft) NO 42 1 min 0,000 mm 1,4 UV-I 402 W/m 7,6 C 6,1 C 32,2 km/h (5 Bft) 100,00 %
08.05.2016 09:04 13,4 C 68 % 1012,8 hPa 0,0 l/m 26,3 km/h (4 Bft) NO 55 1 min 0,000 mm 1,4 UV-I 409 W/m 7,6 C 6,2 C 38,6 km/h (5 Bft) 100,00 %
08.05.2016 09:05 13,4 C 68 % 1012,7 hPa 0,0 l/m 23,4 km/h (4 Bft) O-NO 65 1 min 0,000 mm 1,4 UV-I 417 W/m 7,6 C 6,8 C 27,4 km/h (4 Bft) 100,00 %
08.05.2016 09:06 13,4 C 68 % 1012,8 hPa 0,0 l/m 23,0 km/h (4 Bft) NO 44 1 min 0,000 mm 1,5 UV-I 425 W/m 7,6 C 6,9 C 30,6 km/h (5 Bft) 100,00 %
08.05.2016 09:07 13,4 C 69 % 1012,8 hPa 0,0 l/m 28,2 km/h (4 Bft) O-NO 63 1 min 0,000 mm 1,5 UV-I 433 W/m 7,8 C 5,8 C 35,4 km/h (5 Bft) 95,65 %
08.05.2016 09:08 13,5 C 68 % 1012,8 hPa 0,0 l/m 23,9 km/h (4 Bft) O-NO 57 1 min 0,000 mm 1,5 UV-I 440 W/m 7,7 C 6,8 C 32,2 km/h (5 Bft) 100,00 %
08.05.2016 09:09 13,6 C 69 % 1012,8 hPa 0,0 l/m 20,2 km/h (4 Bft) O-NO 65 1 min 0,000 mm 1,5 UV-I 448 W/m 8,0 C 7,9 C 29,0 km/h (5 Bft) 100,00 %
08.05.2016 09:10 13,6 C 69 % 1012,8 hPa 0,0 l/m 29,0 km/h (5 Bft) NO 47 1 min 0,000 mm 1,5 UV-I 456 W/m 8,0 C 5,9 C 33,8 km/h (5 Bft) 100,00 %
08.05.2016 09:11 13,6 C 68 % 1012,8 hPa 0,0 l/m 25,7 km/h (4 Bft) NO 51 1 min 0,000 mm 1,5 UV-I 463 W/m 7,8 C 6,6 C 33,8 km/h (5 Bft) 100,00 %
08.05.2016 09:12 13,6 C 68 % 1012,8 hPa 0,0 l/m 25,2 km/h (4 Bft) O-NO 69 1 min 0,000 mm 1,6 UV-I 471 W/m 7,8 C 6,7 C 32,2 km/h (5 Bft) 100,00 %
08.05.2016 09:13 13,6 C 69 % 1012,8 hPa 0,0 l/m 23,9 km/h (4 Bft) NO 55 1 min 0,000 mm 1,6 UV-I 481 W/m 8,0 C 7,0 C 33,8 km/h (5 Bft) 100,00 %
08.05.2016 09:14 13,6 C 68 % 1012,8 hPa 0,0 l/m 21,6 km/h (4 Bft) NO 49 1 min 0,000 mm 1,6 UV-I 486 W/m 7,8 C 7,5 C 27,4 km/h (4 Bft) 95,83 %
08.05.2016 09:15 13,7 C 68 % 1012,8 hPa 0,0 l/m 23,9 km/h (4 Bft) O-NO 58 1 min 0,000 mm 1,6 UV-I 492 W/m 7,9 C 7,1 C 33,8 km/h (5 Bft) 95,65 %
08.05.2016 09:16 13,7 C 68 % 1012,9 hPa 0,0 l/m 20,6 km/h (4 Bft) NO 52 1 min 0,000 mm 1,6 UV-I 500 W/m 7,9 C 7,9 C 25,7 km/h (4 Bft) 100,00 %
08.05.2016 09:17 13,7 C 69 % 1012,9 hPa 0,0 l/m 18,6 km/h (3 Bft) O-NO 61 1 min 0,000 mm 1,6 UV-I 507 W/m 8,1 C 8,5 C 24,1 km/h (4 Bft) 100,00 %
08.05.2016 09:18 13,8 C 69 % 1012,8 hPa 0,0 l/m 23,3 km/h (4 Bft) O-NO 64 1 min 0,000 mm 1,7 UV-I 512 W/m 8,2 C 7,4 C 32,2 km/h (5 Bft) 100,00 %
08.05.2016 09:19 13,8 C 69 % 1012,8 hPa 0,0 l/m 25,0 km/h (4 Bft) NO 38 1 min 0,000 mm 1,7 UV-I 519 W/m 8,2 C 7,0 C 32,2 km/h (5 Bft) 95,65 %
08.05.2016 09:20 13,8 C 69 % 1012,8 hPa 0,0 l/m 17,2 km/h (3 Bft) NO 51 1 min 0,000 mm 1,7 UV-I 523 W/m 8,2 C 9,0 C 25,7 km/h (4 Bft) 100,00 %
08.05.2016 09:21 13,9 C 70 % 1012,9 hPa 0,0 l/m 18,4 km/h (3 Bft) O-NO 67 1 min 0,000 mm 1,7 UV-I 527 W/m 8,5 C 8,8 C 27,4 km/h (4 Bft) 100,00 %
08.05.2016 09:22 14,0 C 70 % 1012,9 hPa 0,0 l/m 23,3 km/h (4 Bft) O-NO 57 1 min 0,000 mm 1,7 UV-I 531 W/m 8,6 C 7,6 C 30,6 km/h (5 Bft) 100,00 %
08.05.2016 09:23 14,1 C 68 % 1012,8 hPa 0,0 l/m 24,4 km/h (4 Bft) O-NO 65 1 min 0,000 mm 1,7 UV-I 534 W/m 8,3 C 7,5 C 32,2 km/h (5 Bft) 100,00 %
08.05.2016 09:24 14,1 C 67 % 1012,8 hPa 0,0 l/m 27,9 km/h (4 Bft) NO 54 1 min 0,000 mm 1,8 UV-I 538 W/m 8,1 C 6,8 C 33,8 km/h (5 Bft) 100,00 %
08.05.2016 09:25 14,1 C 67 % 1012,8 hPa 0,0 l/m 22,8 km/h (4 Bft) O-NO 58 1 min 0,000 mm 1,8 UV-I 540 W/m 8,1 C 7,9 C 32,2 km/h (5 Bft) 100,00 %
08.05.2016 09:26 14,1 C 67 % 1012,8 hPa 0,0 l/m 24,7 km/h (4 Bft) O-NO 67 1 min 0,000 mm 1,8 UV-I 542 W/m 8,1 C 7,5 C 33,8 km/h (5 Bft) 100,00 %
08.05.2016 09:27 14,1 C 67 % 1012,9 hPa 0,0 l/m 26,3 km/h (4 Bft) NO 56 1 min 0,000 mm 1,8 UV-I 545 W/m 8,1 C 7,1 C 33,8 km/h (5 Bft) 100,00 %
08.05.2016 09:28 14,1 C 66 % 1012,9 hPa 0,0 l/m 24,8 km/h (4 Bft) O-NO 72 1 min 0,000 mm 1,8 UV-I 546 W/m 7,8 C 7,4 C 38,6 km/h (5 Bft) 95,65 %
08.05.2016 09:29 14,1 C 66 % 1012,8 hPa 0,0 l/m 29,9 km/h (5 Bft) NO 49 1 min 0,000 mm 1,8 UV-I 549 W/m 7,8 C 6,4 C 40,2 km/h (6 Bft) 100,00 %
08.05.2016 09:30 14,1 C 66 % 1012,8 hPa 0,0 l/m 26,6 km/h (4 Bft) O-NO 76 1 min 0,000 mm 1,9 UV-I 552 W/m 7,8 C 7,1 C 40,2 km/h (6 Bft) 100,00 %
08.05.2016 09:31 14,1 C 67 % 1012,8 hPa 0,0 l/m 23,5 km/h (4 Bft) NO 36 1 min 0,000 mm 1,9 UV-I 555 W/m 8,1 C 7,7 C 30,6 km/h (5 Bft) 100,00 %
08.05.2016 09:32 14,1 C 68 % 1012,8 hPa 0,0 l/m 22,0 km/h (4 Bft) O-NO 60 1 min 0,000 mm 1,9 UV-I 556 W/m 8,3 C 8,1 C 30,6 km/h (5 Bft) 95,65 %
08.05.2016 09:33 14,1 C 68 % 1012,9 hPa 0,0 l/m 17,2 km/h (3 Bft) O-NO 59 1 min 0,000 mm 1,9 UV-I 560 W/m 8,3 C 9,4 C 24,1 km/h (4 Bft) 100,00 %
08.05.2016 09:34 14,2 C 68 % 1012,9 hPa 0,0 l/m 19,3 km/h (3 Bft) O-NO 67 1 min 0,000 mm 1,9 UV-I 561 W/m 8,4 C 8,9 C 27,4 km/h (4 Bft) 91,30 %
08.05.2016 09:35 14,2 C 68 % 1012,9 hPa 0,0 l/m 20,3 km/h (4 Bft) O-NO 63 1 min 0,000 mm 1,9 UV-I 564 W/m 8,4 C 8,6 C 25,7 km/h (4 Bft) 100,00 %
08.05.2016 09:36 14,2 C 67 % 1012,9 hPa 0,0 l/m 21,8 km/h (4 Bft) NO 49 1 min 0,000 mm 2,0 UV-I 568 W/m 8,2 C 8,3 C 25,7 km/h (4 Bft) 100,00 %
08.05.2016 09:37 14,3 C 69 % 1012,8 hPa 0,0 l/m 16,6 km/h (3 Bft) NO 55 1 min 0,000 mm 2,0 UV-I 570 W/m 8,7 C 9,8 C 20,9 km/h (4 Bft) 100,00 %
08.05.2016 09:38 14,3 C 69 % 1012,9 hPa 0,0 l/m 18,0 km/h (3 Bft) O-NO 71 1 min 0,000 mm 2,0 UV-I 573 W/m 8,7 C 9,4 C 25,7 km/h (4 Bft) 95,65 %
08.05.2016 09:39 14,4 C 69 % 1012,9 hPa 0,0 l/m 19,6 km/h (3 Bft) O-NO 59 1 min 0,000 mm 2,0 UV-I 576 W/m 8,8 C 9,1 C 25,7 km/h (4 Bft) 100,00 %
08.05.2016 09:40 14,4 C 68 % 1012,9 hPa 0,0 l/m 20,8 km/h (4 Bft) O 90 1 min 0,000 mm 2,0 UV-I 578 W/m 8,6 C 8,8 C 27,4 km/h (4 Bft) 100,00 %
08.05.2016 09:41 14,4 C 68 % 1012,9 hPa 0,0 l/m 18,5 km/h (3 Bft) O-NO 68 1 min 0,000 mm 2,0 UV-I 578 W/m 8,6 C 9,4 C 22,5 km/h (4 Bft) 100,00 %
08.05.2016 09:42 14,4 C 67 % 1012,8 hPa 0,0 l/m 20,8 km/h (4 Bft) NO 56 1 min 0,000 mm 2,1 UV-I 581 W/m 8,4 C 8,8 C 25,7 km/h (4 Bft) 100,00 %
08.05.2016 09:43 14,4 C 68 % 1012,8 hPa 0,0 l/m 21,9 km/h (4 Bft) O-SO 103 1 min 0,000 mm 2,1 UV-I 581 W/m 8,6 C 8,5 C 27,4 km/h (4 Bft) 100,00 %
08.05.2016 09:44 14,4 C 68 % 1012,8 hPa 0,0 l/m 20,3 km/h (4 Bft) O-NO 75 1 min 0,000 mm 2,1 UV-I 586 W/m 8,6 C 8,9 C 27,4 km/h (4 Bft) 100,00 %
08.05.2016 09:45 14,5 C 67 % 1012,8 hPa 0,0 l/m 18,8 km/h (3 Bft) O 86 1 min 0,000 mm 2,1 UV-I 590 W/m 8,4 C 9,4 C 30,6 km/h (5 Bft) 100,00 %
08.05.2016 09:46 14,6 C 69 % 1012,8 hPa 0,0 l/m 16,8 km/h (3 Bft) O-NO 60 1 min 0,000 mm 2,1 UV-I 593 W/m 9,0 C 10,1 C 20,9 km/h (4 Bft) 100,00 %
08.05.2016 09:47 14,6 C 69 % 1012,9 hPa 0,0 l/m 19,7 km/h (3 Bft) O-NO 65 1 min 0,000 mm 2,2 UV-I 595 W/m 9,0 C 9,3 C 25,7 km/h (4 Bft) 95,65 %
08.05.2016 09:48 14,7 C 67 % 1012,8 hPa 0,0 l/m 19,6 km/h (3 Bft) O-NO 73 1 min 0,000 mm 2,2 UV-I 596 W/m 8,6 C 9,5 C 29,0 km/h (5 Bft) 100,00 %
08.05.2016 09:49 14,7 C 67 % 1012,8 hPa 0,0 l/m 22,7 km/h (4 Bft) O-NO 70 1 min 0,000 mm 2,2 UV-I 599 W/m 8,6 C 8,7 C 27,4 km/h (4 Bft) 100,00 %
08.05.2016 09:50 14,7 C 68 % 1012,8 hPa 0,0 l/m 21,2 km/h (4 Bft) NO 50 1 min 0,000 mm 2,2 UV-I 602 W/m 8,9 C 9,1 C 29,0 km/h (5 Bft) 100,00 %
08.05.2016 09:51 14,8 C 68 % 1012,8 hPa 0,0 l/m 17,0 km/h (3 Bft) O-NO 67 1 min 0,000 mm 2,2 UV-I 605 W/m 9,0 C 10,3 C 24,1 km/h (4 Bft) 100,00 %
08.05.2016 09:52 14,8 C 68 % 1012,8 hPa 0,0 l/m 17,1 km/h (3 Bft) N-NO 31 1 min 0,000 mm 2,2 UV-I 606 W/m 9,0 C 10,3 C 20,9 km/h (4 Bft) 100,00 %
08.05.2016 09:53 14,8 C 68 % 1012,8 hPa 0,0 l/m 17,4 km/h (3 Bft) NO 55 1 min 0,000 mm 2,3 UV-I 609 W/m 9,0 C 10,2 C 22,5 km/h (4 Bft) 95,65 %
08.05.2016 09:54 14,9 C 68 % 1012,8 hPa 0,0 l/m 19,8 km/h (3 Bft) NO 44 1 min 0,000 mm 2,3 UV-I 610 W/m 9,0 C 9,7 C 25,7 km/h (4 Bft) 100,00 %
08.05.2016 09:55 14,9 C 67 % 1012,8 hPa 0,0 l/m 20,5 km/h (4 Bft) O-NO 77 1 min 0,000 mm 2,3 UV-I 613 W/m 8,8 C 9,5 C 25,7 km/h (4 Bft) 100,00 %
08.05.2016 09:56 14,9 C 67 % 1012,8 hPa 0,0 l/m 17,9 km/h (3 Bft) O-NO 78 1 min 0,000 mm 2,3 UV-I 614 W/m 8,8 C 10,2 C 24,1 km/h (4 Bft) 91,67 %
08.05.2016 09:57 14,9 C 68 % 1012,8 hPa 0,0 l/m 25,2 km/h (4 Bft) O-NO 71 1 min 0,000 mm 2,3 UV-I 619 W/m 9,0 C 8,4 C 32,2 km/h (5 Bft) 100,00 %
08.05.2016 09:58 15,0 C 66 % 1012,8 hPa 0,0 l/m 25,8 km/h (4 Bft) O-NO 59 1 min 0,000 mm 2,3 UV-I 621 W/m 8,7 C 8,4 C 32,2 km/h (5 Bft) 95,83 %
08.05.2016 09:59 15,0 C 66 % 1012,8 hPa 0,0 l/m 22,7 km/h (4 Bft) O-NO 57 1 min 0,000 mm 2,4 UV-I 622 W/m 8,7 C 9,1 C 32,2 km/h (5 Bft) 100,00 %
08.05.2016 10:00 15,0 C 66 % 1012,8 hPa 0,0 l/m 25,1 km/h (4 Bft) NO 51 1 min 0,000 mm 2,4 UV-I 626 W/m 8,7 C 8,6 C 30,6 km/h (5 Bft) 100,00 %
08.05.2016 10:01 14,9 C 66 % 1012,8 hPa 0,0 l/m 22,5 km/h (4 Bft) O 85 1 min 0,355 mm 2,4 UV-I 629 W/m 8,6 C 9,0 C 29,0 km/h (5 Bft) 100,00 %
08.05.2016 10:02 15,0 C 68 % 1012,9 hPa 0,0 l/m 18,8 km/h (3 Bft) O-NO 66 1 min 0,000 mm 2,4 UV-I 631 W/m 9,1 C 10,1 C 27,4 km/h (4 Bft) 95,83 %
08.05.2016 10:03 15,0 C 67 % 1012,9 hPa 0,0 l/m 21,8 km/h (4 Bft) O-NO 67 1 min 0,000 mm 2,4 UV-I 632 W/m 8,9 C 9,3 C 27,4 km/h (4 Bft) 95,65 %
08.05.2016 10:04 15,0 C 66 % 1012,9 hPa 0,0 l/m 24,2 km/h (4 Bft) O 81 1 min 0,000 mm 2,4 UV-I 635 W/m 8,7 C 8,8 C 29,0 km/h (5 Bft) 95,83 %
08.05.2016 10:05 15,1 C 66 % 1012,8 hPa 0,0 l/m 22,4 km/h (4 Bft) NO 43 1 min 0,000 mm 2,5 UV-I 636 W/m 8,8 C 9,3 C 25,7 km/h (4 Bft) 100,00 %
08.05.2016 10:06 15,1 C 68 % 1012,8 hPa 0,0 l/m 20,4 km/h (4 Bft) O-NO 60 1 min 0,000 mm 2,5 UV-I 640 W/m 9,2 C 9,8 C 27,4 km/h (4 Bft) 93,33 %
08.05.2016 10:07 15,1 C 67 % 1012,9 hPa 0,0 l/m 23,3 km/h (4 Bft) O-NO 67 1 min 0,000 mm 2,5 UV-I 640 W/m 9,0 C 9,1 C 32,2 km/h (5 Bft) 100,00 %
08.05.2016 10:08 15,2 C 67 % 1012,9 hPa 0,0 l/m 25,5 km/h (4 Bft) O 83 1 min 0,000 mm 2,5 UV-I 642 W/m 9,1 C 8,8 C 30,6 km/h (5 Bft) 95,65 %
08.05.2016 10:09 15,2 C 67 % 1012,8 hPa 0,0 l/m 24,6 km/h (4 Bft) O 86 1 min 0,000 mm 2,5 UV-I 644 W/m 9,1 C 9,0 C 33,8 km/h (5 Bft) 100,00 %
08.05.2016 10:10 15,2 C 66 % 1012,9 hPa 0,0 l/m 25,4 km/h (4 Bft) O-NO 63 1 min 0,000 mm 2,6 UV-I 646 W/m 8,9 C 8,8 C 30,6 km/h (5 Bft) 95,65 %
08.05.2016 10:11 15,2 C 66 % 1012,9 hPa 0,0 l/m 25,0 km/h (4 Bft) O-NO 66 1 min 0,000 mm 2,6 UV-I 649 W/m 8,9 C 8,9 C 35,4 km/h (5 Bft) 100,00 %
08.05.2016 10:12 15,2 C 65 % 1012,9 hPa 0,0 l/m 22,5 km/h (4 Bft) O-NO 65 1 min 0,000 mm 2,6 UV-I 649 W/m 8,7 C 9,4 C 32,2 km/h (5 Bft) 91,30 %
08.05.2016 10:13 15,2 C 66 % 1012,9 hPa 0,0 l/m 24,2 km/h (4 Bft) O 99 1 min 0,000 mm 2,6 UV-I 654 W/m 8,9 C 9,0 C 33,8 km/h (5 Bft) 95,83 %
08.05.2016 10:14 15,2 C 67 % 1012,9 hPa 0,0 l/m 18,6 km/h (3 Bft) O-NO 78 1 min 0,000 mm 2,6 UV-I 657 W/m 9,1 C 10,4 C 22,5 km/h (4 Bft) 100,00 %
08.05.2016 10:15 15,2 C 66 % 1012,9 hPa 0,0 l/m 19,7 km/h (3 Bft) O 87 1 min 0,000 mm 2,7 UV-I 659 W/m 8,9 C 10,1 C 27,4 km/h (4 Bft) 95,83 %
08.05.2016 10:16 15,2 C 66 % 1012,9 hPa 0,0 l/m 23,4 km/h (4 Bft) O 88 1 min 0,000 mm 2,7 UV-I 659 W/m 8,9 C 9,2 C 32,2 km/h (5 Bft) 100,00 %
08.05.2016 10:17 15,2 C 66 % 1012,8 hPa 0,0 l/m 21,1 km/h (4 Bft) O-NO 71 1 min 0,000 mm 2,7 UV-I 662 W/m 8,9 C 9,7 C 27,4 km/h (4 Bft) 91,67 %
08.05.2016 10:18 15,3 C 66 % 1012,8 hPa 0,0 l/m 17,8 km/h (3 Bft) O-NO 61 1 min 0,000 mm 2,7 UV-I 664 W/m 9,0 C 10,7 C 27,4 km/h (4 Bft) 100,00 %
08.05.2016 10:19 15,3 C 66 % 1012,9 hPa 0,0 l/m 19,3 km/h (3 Bft) O-NO 59 1 min 0,000 mm 2,7 UV-I 664 W/m 9,0 C 10,3 C 27,4 km/h (4 Bft) 95,83 %
08.05.2016 10:20 15,3 C 66 % 1012,9 hPa 0,0 l/m 15,9 km/h (3 Bft) NO 53 1 min 0,000 mm 2,7 UV-I 666 W/m 9,0 C 11,3 C 25,7 km/h (4 Bft) 95,65 %
08.05.2016 10:21 15,3 C 67 % 1012,8 hPa 0,0 l/m 18,0 km/h (3 Bft) O 84 1 min 0,000 mm 2,8 UV-I 671 W/m 9,2 C 10,7 C 24,1 km/h (4 Bft) 95,83 %
08.05.2016 10:22 15,4 C 68 % 1012,8 hPa 0,0 l/m 15,4 km/h (3 Bft) O 80 1 min 0,000 mm 2,8 UV-I 672 W/m 9,5 C 11,5 C 19,3 km/h (3 Bft) 95,65 %
08.05.2016 10:23 15,7 C 69 % 1012,8 hPa 0,0 l/m 11,1 km/h (2 Bft) O 100 1 min 0,000 mm 2,8 UV-I 676 W/m 10,0 C 13,4 C 16,1 km/h (3 Bft) 95,83 %
08.05.2016 10:24 15,8 C 69 % 1012,8 hPa 0,0 l/m 14,4 km/h (3 Bft) O-NO 65 1 min 0,000 mm 2,9 UV-I 677 W/m 10,1 C 12,4 C 19,3 km/h (3 Bft) 92,31 %
08.05.2016 10:25 15,9 C 66 % 1012,8 hPa 0,0 l/m 18,1 km/h (3 Bft) O-NO 65 1 min 0,000 mm 2,9 UV-I 681 W/m 9,6 C 11,4 C 22,5 km/h (4 Bft) 100,00 %
08.05.2016 10:26 15,8 C 64 % 1012,8 hPa 0,0 l/m 14,3 km/h (3 Bft) O-NO 76 1 min 0,000 mm 2,9 UV-I 685 W/m 9,0 C 12,4 C 22,5 km/h (4 Bft) 91,30 %
08.05.2016 10:27 15,8 C 66 % 1012,8 hPa 0,0 l/m 16,0 km/h (3 Bft) O-NO 73 1 min 0,000 mm 2,9 UV-I 687 W/m 9,5 C 11,9 C 22,5 km/h (4 Bft) 95,83 %
08.05.2016 10:28 15,8 C 66 % 1012,8 hPa 0,0 l/m 14,3 km/h (3 Bft) O-NO 72 1 min 0,000 mm 2,9 UV-I 687 W/m 9,5 C 12,4 C 19,3 km/h (3 Bft) 100,00 %
08.05.2016 10:29 15,8 C 66 % 1012,8 hPa 0,0 l/m 17,1 km/h (3 Bft) O-NO 64 1 min 0,000 mm 3,0 UV-I 689 W/m 9,5 C 11,5 C 22,5 km/h (4 Bft) 95,83 %
08.05.2016 10:30 15,8 C 66 % 1012,8 hPa 0,0 l/m 14,8 km/h (3 Bft) O 80 1 min 0,000 mm 3,0 UV-I 689 W/m 9,5 C 12,2 C 20,9 km/h (4 Bft) 91,67 %
08.05.2016 10:31 15,9 C 66 % 1012,8 hPa 0,0 l/m 16,5 km/h (3 Bft) O-NO 67 1 min 0,000 mm 3,0 UV-I 692 W/m 9,6 C 11,8 C 24,1 km/h (4 Bft) 100,00 %
08.05.2016 10:32 15,9 C 65 % 1012,8 hPa 0,0 l/m 12,3 km/h (3 Bft) O-NO 72 1 min 0,000 mm 3,0 UV-I 694 W/m 9,3 C 13,2 C 16,1 km/h (3 Bft) 100,00 %
08.05.2016 10:33 16,0 C 65 % 1012,8 hPa 0,0 l/m 18,6 km/h (3 Bft) O-NO 72 1 min 0,000 mm 3,0 UV-I 698 W/m 9,4 C 11,4 C 27,4 km/h (4 Bft) 91,30 %
08.05.2016 10:34 16,0 C 65 % 1012,7 hPa 0,0 l/m 21,6 km/h (4 Bft) O-NO 76 1 min 0,000 mm 3,1 UV-I 700 W/m 9,4 C 10,7 C 32,2 km/h (5 Bft) 100,00 %
08.05.2016 10:35 16,0 C 63 % 1012,7 hPa 0,0 l/m 22,3 km/h (4 Bft) O-NO 78 1 min 0,000 mm 3,1 UV-I 703 W/m 9,0 C 10,5 C 29,0 km/h (5 Bft) 100,00 %
08.05.2016 10:36 16,0 C 64 % 1012,8 hPa 0,0 l/m 22,1 km/h (4 Bft) O 82 1 min 0,000 mm 3,1 UV-I 703 W/m 9,2 C 10,6 C 30,6 km/h (5 Bft) 95,83 %
08.05.2016 10:37 15,9 C 64 % 1012,8 hPa 0,0 l/m 21,9 km/h (4 Bft) O-NO 59 1 min 0,000 mm 3,1 UV-I 706 W/m 9,1 C 10,5 C 29,0 km/h (5 Bft) 95,65 %
08.05.2016 10:38 15,9 C 64 % 1012,7 hPa 0,0 l/m 22,9 km/h (4 Bft) NO 42 1 min 0,000 mm 3,1 UV-I 707 W/m 9,1 C 10,3 C 27,4 km/h (4 Bft) 100,00 %
08.05.2016 10:39 15,9 C 64 % 1012,7 hPa 0,0 l/m 19,8 km/h (3 Bft) O-NO 71 1 min 0,000 mm 3,1 UV-I 708 W/m 9,1 C 11,0 C 27,4 km/h (4 Bft) 95,65 %
08.05.2016 10:40 15,9 C 64 % 1012,7 hPa 0,0 l/m 16,0 km/h (3 Bft) O-NO 58 1 min 0,000 mm 3,1 UV-I 712 W/m 9,1 C 12,0 C 19,3 km/h (3 Bft) 100,00 %
08.05.2016 10:41 15,9 C 64 % 1012,8 hPa 0,0 l/m 14,3 km/h (3 Bft) O 85 1 min 0,000 mm 3,2 UV-I 714 W/m 9,1 C 12,5 C 20,9 km/h (4 Bft) 95,65 %
08.05.2016 10:42 15,9 C 65 % 1012,7 hPa 0,0 l/m 12,9 km/h (3 Bft) O-SO 104 1 min 0,000 mm 3,2 UV-I 715 W/m 9,3 C 13,0 C 22,5 km/h (4 Bft) 95,83 %
08.05.2016 10:43 15,9 C 65 % 1012,7 hPa 0,0 l/m 17,7 km/h (3 Bft) O 82 1 min 0,000 mm 3,2 UV-I 717 W/m 9,3 C 11,5 C 24,1 km/h (4 Bft) 95,65 %
08.05.2016 10:44 16,0 C 64 % 1012,7 hPa 0,0 l/m 19,5 km/h (3 Bft) O 85 1 min 0,000 mm 3,2 UV-I 717 W/m 9,2 C 11,2 C 22,5 km/h (4 Bft) 100,00 %
08.05.2016 10:45 16,0 C 65 % 1012,7 hPa 0,0 l/m 23,4 km/h (4 Bft) NO 41 1 min 0,000 mm 3,2 UV-I 720 W/m 9,4 C 10,3 C 30,6 km/h (5 Bft) 95,83 %
08.05.2016 10:46 16,1 C 67 % 1012,7 hPa 0,0 l/m 16,1 km/h (3 Bft) O-NO 61 1 min 0,000 mm 3,2 UV-I 721 W/m 10,0 C 12,2 C 20,9 km/h (4 Bft) 100,00 %
08.05.2016 10:47 16,2 C 67 % 1012,7 hPa 0,0 l/m 14,7 km/h (3 Bft) O 90 1 min 0,000 mm 3,3 UV-I 724 W/m 10,1 C 12,7 C 20,9 km/h (4 Bft) 100,00 %
08.05.2016 10:48 16,3 C 65 % 1012,7 hPa 0,0 l/m 17,6 km/h (3 Bft) O 82 1 min 0,000 mm 3,3 UV-I 726 W/m 9,7 C 12,0 C 24,1 km/h (4 Bft) 100,00 %
08.05.2016 10:49 16,3 C 64 % 1012,7 hPa 0,0 l/m 11,2 km/h (2 Bft) O-NO 61 1 min 0,000 mm 3,3 UV-I 728 W/m 9,5 C 14,1 C 17,7 km/h (3 Bft) 95,83 %
08.05.2016 10:50 16,3 C 65 % 1012,7 hPa 0,0 l/m 21,3 km/h (4 Bft) O-NO 67 1 min 0,000 mm 3,3 UV-I 730 W/m 9,7 C 11,1 C 25,7 km/h (4 Bft) 100,00 %
08.05.2016 10:51 16,3 C 64 % 1012,7 hPa 0,0 l/m 15,4 km/h (3 Bft) O-NO 60 1 min 0,000 mm 3,3 UV-I 732 W/m 9,5 C 12,6 C 22,5 km/h (4 Bft) 100,00 %
08.05.2016 10:52 16,4 C 65 % 1012,7 hPa 0,0 l/m 15,2 km/h (3 Bft) O-NO 71 1 min 0,000 mm 3,4 UV-I 733 W/m 9,8 C 12,8 C 24,1 km/h (4 Bft) 100,00 %
08.05.2016 10:53 16,5 C 66 % 1012,7 hPa 0,0 l/m 16,6 km/h (3 Bft) NO 51 1 min 0,000 mm 3,4 UV-I 735 W/m 10,1 C 12,5 C 24,1 km/h (4 Bft) 100,00 %
08.05.2016 10:54 16,6 C 65 % 1012,7 hPa 0,0 l/m 21,4 km/h (4 Bft) NO 46 1 min 0,000 mm 3,4 UV-I 736 W/m 10,0 C 11,5 C 32,2 km/h (5 Bft) 100,00 %
08.05.2016 10:55 16,6 C 65 % 1012,7 hPa 0,0 l/m 21,3 km/h (4 Bft) NO 55 1 min 0,000 mm 3,4 UV-I 738 W/m 10,0 C 11,5 C 27,4 km/h (4 Bft) 100,00 %
08.05.2016 10:56 16,7 C 64 % 1012,7 hPa 0,0 l/m 22,2 km/h (4 Bft) O-NO 58 1 min 0,000 mm 3,4 UV-I 740 W/m 9,9 C 11,5 C 29,0 km/h (5 Bft) 100,00 %
08.05.2016 10:57 16,7 C 63 % 1012,7 hPa 0,0 l/m 24,8 km/h (4 Bft) O 79 1 min 0,000 mm 3,5 UV-I 743 W/m 9,6 C 10,9 C 33,8 km/h (5 Bft) 100,00 %
08.05.2016 10:58 16,6 C 63 % 1012,7 hPa 0,0 l/m 28,6 km/h (4 Bft) O-NO 67 1 min 0,000 mm 3,5 UV-I 744 W/m 9,5 C 10,2 C 38,6 km/h (5 Bft) 100,00 %
08.05.2016 10:59 16,6 C 63 % 1012,7 hPa 0,0 l/m 26,8 km/h (4 Bft) O-NO 75 1 min 0,000 mm 3,5 UV-I 745 W/m 9,5 C 10,5 C 35,4 km/h (5 Bft) 100,00 %
08.05.2016 11:00 16,6 C 63 % 1012,7 hPa 0,0 l/m 18,4 km/h (3 Bft) O-NO 76 1 min 0,458 mm 3,5 UV-I 746 W/m 9,5 C 12,2 C 24,1 km/h (4 Bft) 100,00 %
08.05.2016 11:01 16,6 C 64 % 1012,7 hPa 0,0 l/m 13,8 km/h (3 Bft) O-NO 69 1 min 0,000 mm 3,5 UV-I 749 W/m 9,8 C 13,5 C 19,3 km/h (3 Bft) 100,00 %
08.05.2016 11:02 16,7 C 66 % 1012,7 hPa 0,0 l/m 16,3 km/h (3 Bft) NO 55 1 min 0,000 mm 3,5 UV-I 750 W/m 10,3 C 12,9 C 22,5 km/h (4 Bft) 100,00 %
08.05.2016 11:03 16,7 C 64 % 1012,7 hPa 0,0 l/m 16,2 km/h (3 Bft) O-NO 71 1 min 0,000 mm 3,5 UV-I 752 W/m 9,9 C 12,9 C 22,5 km/h (4 Bft) 100,00 %
08.05.2016 11:04 16,8 C 65 % 1012,6 hPa 0,0 l/m 21,5 km/h (4 Bft) O-NO 69 1 min 0,000 mm 3,6 UV-I 754 W/m 10,2 C 11,7 C 27,4 km/h (4 Bft) 100,00 %
08.05.2016 11:05 16,8 C 65 % 1012,7 hPa 0,0 l/m 22,9 km/h (4 Bft) NO 53 1 min 0,000 mm 3,6 UV-I 756 W/m 10,2 C 11,4 C 29,0 km/h (5 Bft) 100,00 %
08.05.2016 11:06 16,8 C 63 % 1012,7 hPa 0,0 l/m 18,3 km/h (3 Bft) NO 51 1 min 0,000 mm 3,6 UV-I 757 W/m 9,7 C 12,5 C 25,7 km/h (4 Bft) 95,83 %
08.05.2016 11:07 16,9 C 64 % 1012,7 hPa 0,0 l/m 14,4 km/h (3 Bft) O 88 1 min 0,000 mm 3,6 UV-I 757 W/m 10,0 C 13,7 C 24,1 km/h (4 Bft) 100,00 %
08.05.2016 11:08 17,0 C 65 % 1012,6 hPa 0,0 l/m 19,8 km/h (3 Bft) O 85 1 min 0,000 mm 3,6 UV-I 758 W/m 10,4 C 12,4 C 27,4 km/h (4 Bft) 100,00 %
08.05.2016 11:09 17,1 C 64 % 1012,7 hPa 0,0 l/m 24,0 km/h (4 Bft) O-NO 68 1 min 0,000 mm 3,7 UV-I 761 W/m 10,2 C 11,6 C 37,0 km/h (5 Bft) 96,15 %
08.05.2016 11:10 17,1 C 64 % 1012,7 hPa 0,0 l/m 22,9 km/h (4 Bft) O-NO 61 1 min 0,000 mm 3,7 UV-I 764 W/m 10,2 C 11,8 C 30,6 km/h (5 Bft) 100,00 %
08.05.2016 11:11 17,1 C 63 % 1012,7 hPa 0,0 l/m 24,6 km/h (4 Bft) NO 56 1 min 0,000 mm 3,7 UV-I 765 W/m 10,0 C 11,5 C 30,6 km/h (5 Bft) 100,00 %
08.05.2016 11:12 17,1 C 62 % 1012,7 hPa 0,0 l/m 25,5 km/h (4 Bft) O-NO 78 1 min 0,000 mm 3,7 UV-I 765 W/m 9,8 C 11,4 C 32,2 km/h (5 Bft) 100,00 %
08.05.2016 11:13 17,0 C 62 % 1012,7 hPa 0,0 l/m 18,1 km/h (3 Bft) O-NO 67 1 min 0,000 mm 3,7 UV-I 767 W/m 9,7 C 12,8 C 25,7 km/h (4 Bft) 100,00 %
08.05.2016 11:14 17,0 C 63 % 1012,7 hPa 0,0 l/m 20,7 km/h (4 Bft) O-NO 78 1 min 0,000 mm 3,7 UV-I 770 W/m 9,9 C 12,2 C 29,0 km/h (5 Bft) 100,00 %
08.05.2016 11:15 17,0 C 63 % 1012,6 hPa 0,0 l/m 16,5 km/h (3 Bft) O-NO 63 1 min 0,000 mm 3,8 UV-I 773 W/m 9,9 C 13,2 C 20,9 km/h (4 Bft) 100,00 %
08.05.2016 11:16 17,1 C 64 % 1012,6 hPa 0,0 l/m 15,4 km/h (3 Bft) O 88 1 min 0,000 mm 3,8 UV-I 772 W/m 10,2 C 13,6 C 22,5 km/h (4 Bft) 100,00 %
08.05.2016 11:17 17,1 C 64 % 1012,6 hPa 0,0 l/m 23,7 km/h (4 Bft) O-NO 65 1 min 0,000 mm 3,8 UV-I 773 W/m 10,2 C 11,7 C 32,2 km/h (5 Bft) 100,00 %
08.05.2016 11:18 17,2 C 63 % 1012,6 hPa 0,0 l/m 27,2 km/h (4 Bft) O-NO 57 1 min 0,000 mm 3,8 UV-I 776 W/m 10,1 C 11,2 C 32,2 km/h (5 Bft) 100,00 %
08.05.2016 11:19 17,1 C 63 % 1012,6 hPa 0,0 l/m 23,4 km/h (4 Bft) NO 42 1 min 0,000 mm 3,8 UV-I 776 W/m 10,0 C 11,8 C 27,4 km/h (4 Bft) 100,00 %
08.05.2016 11:20 17,1 C 63 % 1012,6 hPa 0,0 l/m 23,2 km/h (4 Bft) NO 46 1 min 0,000 mm 3,8 UV-I 777 W/m 10,0 C 11,8 C 30,6 km/h (5 Bft) 100,00 %
08.05.2016 11:21 17,1 C 65 % 1012,6 hPa 0,0 l/m 20,8 km/h (4 Bft) NO 49 1 min 0,000 mm 3,9 UV-I 781 W/m 10,5 C 12,3 C 27,4 km/h (4 Bft) 100,00 %
08.05.2016 11:22 17,2 C 64 % 1012,6 hPa 0,0 l/m 23,1 km/h (4 Bft) NO 54 1 min 0,000 mm 3,9 UV-I 780 W/m 10,3 C 11,9 C 30,6 km/h (5 Bft) 100,00 %
08.05.2016 11:23 17,2 C 63 % 1012,6 hPa 0,0 l/m 21,8 km/h (4 Bft) NO 48 1 min 0,000 mm 3,9 UV-I 782 W/m 10,1 C 12,2 C 32,2 km/h (5 Bft) 100,00 %
08.05.2016 11:24 17,2 C 63 % 1012,6 hPa 0,0 l/m 20,2 km/h (4 Bft) NO 49 1 min 0,000 mm 3,9 UV-I 783 W/m 10,1 C 12,5 C 30,6 km/h (5 Bft) 91,30 %
08.05.2016 11:25 17,2 C 64 % 1012,6 hPa 0,0 l/m 22,3 km/h (4 Bft) O-NO 59 1 min 0,000 mm 3,9 UV-I 784 W/m 10,3 C 12,1 C 30,6 km/h (5 Bft) 100,00 %
08.05.2016 11:26 17,2 C 63 % 1012,6 hPa 0,0 l/m 23,9 km/h (4 Bft) O-NO 59 1 min 0,000 mm 3,9 UV-I 786 W/m 10,1 C 11,8 C 29,0 km/h (5 Bft) 95,65 %
08.05.2016 11:27 17,2 C 64 % 1012,6 hPa 0,0 l/m 20,3 km/h (4 Bft) NO 49 1 min 0,000 mm 4,0 UV-I 789 W/m 10,3 C 12,5 C 25,7 km/h (4 Bft) 100,00 %
08.05.2016 11:28 17,3 C 65 % 1012,5 hPa 0,0 l/m 18,4 km/h (3 Bft) O-NO 61 1 min 0,000 mm 4,0 UV-I 789 W/m 10,7 C 13,1 C 25,7 km/h (4 Bft) 100,00 %
08.05.2016 11:29 17,3 C 66 % 1012,5 hPa 0,0 l/m 21,2 km/h (4 Bft) NO 47 1 min 0,000 mm 4,0 UV-I 789 W/m 10,9 C 12,5 C 30,6 km/h (5 Bft) 100,00 %
08.05.2016 11:30 17,4 C 67 % 1012,5 hPa 0,0 l/m 25,2 km/h (4 Bft) O-NO 60 1 min 0,000 mm 4,0 UV-I 790 W/m 11,2 C 11,8 C 33,8 km/h (5 Bft) 95,65 %
08.05.2016 11:31 17,5 C 64 % 1012,5 hPa 0,0 l/m 26,7 km/h (4 Bft) NO 46 1 min 0,000 mm 4,0 UV-I 792 W/m 10,6 C 11,7 C 32,2 km/h (5 Bft) 100,00 %
08.05.2016 11:32 17,6 C 62 % 1012,5 hPa 0,0 l/m 25,3 km/h (4 Bft) O-NO 59 1 min 0,000 mm 4,0 UV-I 792 W/m 10,2 C 12,1 C 30,6 km/h (5 Bft) 95,65 %
08.05.2016 11:33 17,5 C 62 % 1012,5 hPa 0,0 l/m 17,3 km/h (3 Bft) N-NO 25 1 min 0,000 mm 4,0 UV-I 795 W/m 10,1 C 13,6 C 20,9 km/h (4 Bft) 100,00 %
08.05.2016 11:34 17,6 C 66 % 1012,5 hPa 0,0 l/m 24,0 km/h (4 Bft) O-NO 61 1 min 0,000 mm 4,0 UV-I 796 W/m 11,2 C 12,3 C 32,2 km/h (5 Bft) 100,00 %
08.05.2016 11:35 17,7 C 64 % 1012,4 hPa 0,0 l/m 18,8 km/h (3 Bft) NO 54 1 min 0,000 mm 4,1 UV-I 796 W/m 10,8 C 13,5 C 25,7 km/h (4 Bft) 95,83 %
08.05.2016 11:36 17,7 C 63 % 1012,5 hPa 0,0 l/m 23,1 km/h (4 Bft) NO 37 1 min 0,000 mm 4,1 UV-I 798 W/m 10,6 C 12,6 C 35,4 km/h (5 Bft) 100,00 %
08.05.2016 11:37 17,7 C 63 % 1012,4 hPa 0,0 l/m 24,7 km/h (4 Bft) NO 55 1 min 0,000 mm 4,1 UV-I 799 W/m 10,6 C 12,3 C 30,6 km/h (5 Bft) 100,00 %
08.05.2016 11:38 17,7 C 62 % 1012,5 hPa 0,0 l/m 20,5 km/h (4 Bft) NO 53 1 min 0,000 mm 4,1 UV-I 801 W/m 10,3 C 13,1 C 27,4 km/h (4 Bft) 100,00 %
08.05.2016 11:39 17,7 C 62 % 1012,5 hPa 0,0 l/m 19,9 km/h (4 Bft) NO 44 1 min 0,000 mm 4,1 UV-I 804 W/m 10,3 C 13,3 C 25,7 km/h (4 Bft) 100,00 %
08.05.2016 11:40 17,7 C 64 % 1012,5 hPa 0,0 l/m 21,8 km/h (4 Bft) NO 51 1 min 0,000 mm 4,1 UV-I 807 W/m 10,8 C 12,9 C 27,4 km/h (4 Bft) 100,00 %
08.05.2016 11:41 17,8 C 66 % 1012,4 hPa 0,0 l/m 20,2 km/h (4 Bft) NO 46 1 min 0,000 mm 4,2 UV-I 807 W/m 11,4 C 13,3 C 25,7 km/h (4 Bft) 100,00 %
08.05.2016 11:42 17,8 C 63 % 1012,5 hPa 0,0 l/m 22,2 km/h (4 Bft) O-NO 61 1 min 0,000 mm 4,2 UV-I 806 W/m 10,7 C 12,9 C 29,0 km/h (5 Bft) 95,65 %
08.05.2016 11:43 17,8 C 64 % 1012,5 hPa 0,0 l/m 22,3 km/h (4 Bft) N-NO 32 1 min 0,000 mm 4,2 UV-I 805 W/m 10,9 C 12,9 C 29,0 km/h (5 Bft) 100,00 %
08.05.2016 11:44 17,8 C 64 % 1012,4 hPa 0,0 l/m 21,9 km/h (4 Bft) NO 42 1 min 0,000 mm 4,2 UV-I 805 W/m 10,9 C 13,0 C 38,6 km/h (5 Bft) 100,00 %
08.05.2016 11:45 17,8 C 64 % 1012,4 hPa 0,0 l/m 27,9 km/h (4 Bft) N-NO 31 1 min 0,000 mm 4,2 UV-I 805 W/m 10,9 C 11,9 C 37,0 km/h (5 Bft) 95,65 %
08.05.2016 11:46 17,9 C 63 % 1012,4 hPa 0,0 l/m 25,9 km/h (4 Bft) N-NO 28 1 min 0,000 mm 4,2 UV-I 812 W/m 10,8 C 12,4 C 32,2 km/h (5 Bft) 100,00 %
08.05.2016 11:47 17,9 C 63 % 1012,4 hPa 0,0 l/m 22,6 km/h (4 Bft) NO 49 1 min 0,000 mm 4,2 UV-I 811 W/m 10,8 C 13,0 C 32,2 km/h (5 Bft) 100,00 %
08.05.2016 11:48 17,9 C 64 % 1012,4 hPa 0,0 l/m 24,8 km/h (4 Bft) NO 55 1 min 0,000 mm 4,3 UV-I 812 W/m 11,0 C 12,6 C 33,8 km/h (5 Bft) 95,83 %
08.05.2016 11:49 17,9 C 63 % 1012,4 hPa 0,0 l/m 23,2 km/h (4 Bft) NO 36 1 min 0,000 mm 4,3 UV-I 811 W/m 10,8 C 12,9 C 32,2 km/h (5 Bft) 100,00 %
08.05.2016 11:50 17,9 C 64 % 1012,4 hPa 0,0 l/m 26,2 km/h (4 Bft) NO 47 1 min 0,000 mm 4,3 UV-I 814 W/m 11,0 C 12,3 C 33,8 km/h (5 Bft) 95,83 %
08.05.2016 11:51 17,8 C 65 % 1012,4 hPa 0,0 l/m 25,7 km/h (4 Bft) NO 53 1 min 0,000 mm 4,3 UV-I 814 W/m 11,1 C 12,3 C 33,8 km/h (5 Bft) 100,00 %
08.05.2016 11:52 17,8 C 63 % 1012,4 hPa 0,0 l/m 22,9 km/h (4 Bft) O 79 1 min 0,000 mm 4,3 UV-I 817 W/m 10,7 C 12,8 C 33,8 km/h (5 Bft) 92,59 %
08.05.2016 11:53 17,8 C 63 % 1012,4 hPa 0,0 l/m 25,7 km/h (4 Bft) O-NO 62 1 min 0,000 mm 4,3 UV-I 816 W/m 10,7 C 12,3 C 37,0 km/h (5 Bft) 100,00 %
08.05.2016 11:54 17,8 C 62 % 1012,4 hPa 0,0 l/m 21,1 km/h (4 Bft) NO 54 1 min 0,000 mm 4,3 UV-I 818 W/m 10,4 C 13,1 C 29,0 km/h (5 Bft) 95,83 %
08.05.2016 11:55 17,8 C 62 % 1012,4 hPa 0,0 l/m 30,4 km/h (5 Bft) O-NO 60 1 min 0,000 mm 4,3 UV-I 821 W/m 10,4 C 11,6 C 41,8 km/h (6 Bft) 95,65 %
08.05.2016 11:56 17,8 C 63 % 1012,4 hPa 0,0 l/m 21,6 km/h (4 Bft) O-NO 72 1 min 0,000 mm 4,3 UV-I 819 W/m 10,7 C 13,0 C 33,8 km/h (5 Bft) 95,83 %
08.05.2016 11:57 17,8 C 63 % 1012,4 hPa 0,0 l/m 18,2 km/h (3 Bft) NO 56 1 min 0,000 mm 4,3 UV-I 819 W/m 10,7 C 13,8 C 24,1 km/h (4 Bft) 96,15 %
08.05.2016 11:58 17,9 C 63 % 1012,4 hPa 0,0 l/m 27,0 km/h (4 Bft) O-NO 67 1 min 0,000 mm 4,3 UV-I 823 W/m 10,8 C 12,2 C 38,6 km/h (5 Bft) 100,00 %
08.05.2016 11:59 17,9 C 63 % 1012,4 hPa 0,0 l/m 24,7 km/h (4 Bft) O 79 1 min 0,000 mm 4,4 UV-I 824 W/m 10,8 C 12,6 C 32,2 km/h (5 Bft) 95,65 %
08.05.2016 12:00 17,9 C 61 % 1012,4 hPa 0,0 l/m 27,4 km/h (4 Bft) O-NO 64 1 min 0,533 mm 4,4 UV-I 824 W/m 10,3 C 12,1 C 38,6 km/h (5 Bft) 100,00 %
08.05.2016 12:01 17,9 C 63 % 1012,3 hPa 0,0 l/m 28,1 km/h (4 Bft) O-NO 76 1 min 0,000 mm 4,4 UV-I 824 W/m 10,8 C 12,0 C 38,6 km/h (5 Bft) 95,83 %
08.05.2016 12:02 18,0 C 63 % 1012,4 hPa 0,0 l/m 19,3 km/h (3 Bft) NO 52 1 min 0,000 mm 4,4 UV-I 827 W/m 10,8 C 13,8 C 24,1 km/h (4 Bft) 100,00 %
08.05.2016 12:03 18,1 C 61 % 1012,3 hPa 0,0 l/m 21,7 km/h (4 Bft) O-NO 57 1 min 0,000 mm 4,4 UV-I 826 W/m 10,5 C 13,4 C 24,1 km/h (4 Bft) 95,65 %
08.05.2016 12:04 18,1 C 64 % 1012,3 hPa 0,0 l/m 19,8 km/h (3 Bft) O-NO 61 1 min 0,000 mm 4,4 UV-I 825 W/m 11,2 C 13,8 C 25,7 km/h (4 Bft) 95,83 %
08.05.2016 12:05 18,2 C 64 % 1012,3 hPa 0,0 l/m 24,8 km/h (4 Bft) O-NO 66 1 min 0,000 mm 4,4 UV-I 827 W/m 11,3 C 13,0 C 32,2 km/h (5 Bft) 100,00 %
08.05.2016 12:06 18,3 C 62 % 1012,3 hPa 0,0 l/m 22,6 km/h (4 Bft) NO 40 1 min 0,000 mm 4,4 UV-I 827 W/m 10,9 C 13,5 C 32,2 km/h (5 Bft) 95,65 %
08.05.2016 12:07 18,2 C 61 % 1012,3 hPa 0,0 l/m 25,4 km/h (4 Bft) O 84 1 min 0,000 mm 4,4 UV-I 830 W/m 10,6 C 12,9 C 33,8 km/h (5 Bft) 100,00 %
08.05.2016 12:08 18,2 C 62 % 1012,3 hPa 0,0 l/m 19,6 km/h (3 Bft) O-NO 63 1 min 0,000 mm 4,4 UV-I 831 W/m 10,8 C 14,0 C 29,0 km/h (5 Bft) 95,83 %
08.05.2016 12:09 18,2 C 62 % 1012,3 hPa 0,0 l/m 28,3 km/h (4 Bft) O-NO 77 1 min 0,000 mm 4,5 UV-I 833 W/m 10,8 C 12,4 C 32,2 km/h (5 Bft) 100,00 %
08.05.2016 12:10 18,2 C 61 % 1012,3 hPa 0,0 l/m 29,8 km/h (5 Bft) O-NO 63 1 min 0,000 mm 4,5 UV-I 831 W/m 10,6 C 12,2 C 40,2 km/h (6 Bft) 95,65 %
08.05.2016 12:11 18,2 C 61 % 1012,3 hPa 0,0 l/m 28,0 km/h (4 Bft) O-NO 61 1 min 0,000 mm 4,5 UV-I 833 W/m 10,6 C 12,5 C 35,4 km/h (5 Bft) 100,00 %
08.05.2016 12:12 18,2 C 62 % 1012,2 hPa 0,0 l/m 23,4 km/h (4 Bft) O-NO 76 1 min 0,000 mm 4,5 UV-I 833 W/m 10,8 C 13,2 C 30,6 km/h (5 Bft) 95,65 %
08.05.2016 12:13 18,2 C 64 % 1012,2 hPa 0,0 l/m 23,7 km/h (4 Bft) NO 45 1 min 0,000 mm 4,5 UV-I 836 W/m 11,3 C 13,2 C 30,6 km/h (5 Bft) 95,83 %
08.05.2016 12:14 18,3 C 63 % 1012,3 hPa 0,0 l/m 19,8 km/h (3 Bft) NO 48 1 min 0,000 mm 4,5 UV-I 834 W/m 11,1 C 14,1 C 27,4 km/h (4 Bft) 95,65 %
08.05.2016 12:15 18,3 C 64 % 1012,3 hPa 0,0 l/m 22,0 km/h (4 Bft) O-NO 67 1 min 0,000 mm 4,5 UV-I 839 W/m 11,4 C 13,6 C 32,2 km/h (5 Bft) 95,83 %
08.05.2016 12:16 18,4 C 64 % 1012,3 hPa 0,0 l/m 23,9 km/h (4 Bft) NO 50 1 min 0,000 mm 4,5 UV-I 837 W/m 11,5 C 13,4 C 37,0 km/h (5 Bft) 100,00 %
08.05.2016 12:17 18,6 C 64 % 1012,3 hPa 0,0 l/m 28,4 km/h (4 Bft) NO 46 1 min 0,000 mm 4,6 UV-I 838 W/m 11,7 C 13,0 C 41,8 km/h (6 Bft) 95,83 %
08.05.2016 12:18 18,6 C 62 % 1012,3 hPa 0,0 l/m 30,4 km/h (5 Bft) NO 49 1 min 0,000 mm 4,5 UV-I 836 W/m 11,2 C 12,7 C 40,2 km/h (6 Bft) 100,00 %
08.05.2016 12:19 18,5 C 60 % 1012,3 hPa 0,0 l/m 31,6 km/h (5 Bft) NO 54 1 min 0,000 mm 4,5 UV-I 837 W/m 10,6 C 12,4 C 38,6 km/h (5 Bft) 100,00 %
08.05.2016 12:20 18,4 C 60 % 1012,2 hPa 0,0 l/m 28,0 km/h (4 Bft) O-NO 64 1 min 0,000 mm 4,6 UV-I 840 W/m 10,5 C 12,7 C 35,4 km/h (5 Bft) 100,00 %
08.05.2016 12:21 18,4 C 61 % 1012,3 hPa 0,0 l/m 21,1 km/h (4 Bft) O 84 1 min 0,000 mm 4,6 UV-I 838 W/m 10,7 C 13,9 C 27,4 km/h (4 Bft) 96,30 %
08.05.2016 12:22 18,4 C 63 % 1012,3 hPa 0,0 l/m 23,2 km/h (4 Bft) NO 42 1 min 0,000 mm 4,6 UV-I 839 W/m 11,2 C 13,5 C 33,8 km/h (5 Bft) 100,00 %
08.05.2016 12:23 18,4 C 64 % 1012,2 hPa 0,0 l/m 23,6 km/h (4 Bft) NO 35 1 min 0,000 mm 4,6 UV-I 842 W/m 11,5 C 13,5 C 33,8 km/h (5 Bft) 100,00 %
08.05.2016 12:24 18,5 C 64 % 1012,2 hPa 0,0 l/m 26,5 km/h (4 Bft) O-NO 66 1 min 0,000 mm 4,6 UV-I 843 W/m 11,6 C 13,1 C 32,2 km/h (5 Bft) 100,00 %
08.05.2016 12:25 18,5 C 63 % 1012,3 hPa 0,0 l/m 23,6 km/h (4 Bft) NO 44 1 min 0,000 mm 4,6 UV-I 843 W/m 11,3 C 13,6 C 33,8 km/h (5 Bft) 95,65 %
08.05.2016 12:26 18,5 C 62 % 1012,3 hPa 0,0 l/m 22,6 km/h (4 Bft) N-NO 23 1 min 0,000 mm 4,6 UV-I 844 W/m 11,1 C 13,8 C 27,4 km/h (4 Bft) 100,00 %
08.05.2016 12:27 18,5 C 65 % 1012,3 hPa 0,0 l/m 25,1 km/h (4 Bft) NO 34 1 min 0,000 mm 4,6 UV-I 842 W/m 11,8 C 13,3 C 37,0 km/h (5 Bft) 100,00 %
08.05.2016 12:28 18,6 C 65 % 1012,2 hPa 0,0 l/m 30,0 km/h (5 Bft) N-NO 32 1 min 0,000 mm 4,6 UV-I 843 W/m 11,9 C 12,7 C 35,4 km/h (5 Bft) 100,00 %
08.05.2016 12:29 18,6 C 65 % 1012,2 hPa 0,0 l/m 30,0 km/h (5 Bft) NO 43 1 min 0,000 mm 4,6 UV-I 845 W/m 11,9 C 12,7 C 38,6 km/h (5 Bft) 95,65 %
08.05.2016 12:30 18,6 C 64 % 1012,2 hPa 0,0 l/m 25,6 km/h (4 Bft) NO 46 1 min 0,000 mm 4,7 UV-I 846 W/m 11,7 C 13,4 C 33,8 km/h (5 Bft) 95,83 %
08.05.2016 12:31 18,7 C 62 % 1012,2 hPa 0,0 l/m 22,4 km/h (4 Bft) N-NO 24 1 min 0,000 mm 4,7 UV-I 843 W/m 11,3 C 14,1 C 30,6 km/h (5 Bft) 95,65 %
08.05.2016 12:32 18,7 C 62 % 1012,2 hPa 0,0 l/m 27,0 km/h (4 Bft) NO 34 1 min 0,000 mm 4,7 UV-I 846 W/m 11,3 C 13,3 C 33,8 km/h (5 Bft) 100,00 %
08.05.2016 12:33 18,7 C 63 % 1012,2 hPa 0,0 l/m 27,7 km/h (4 Bft) O-NO 71 1 min 0,000 mm 4,7 UV-I 846 W/m 11,5 C 13,2 C 33,8 km/h (5 Bft) 100,00 %
08.05.2016 12:34 18,7 C 62 % 1012,3 hPa 0,0 l/m 25,1 km/h (4 Bft) NO 39 1 min 0,000 mm 4,7 UV-I 844 W/m 11,3 C 13,6 C 30,6 km/h (5 Bft) 100,00 %
08.05.2016 12:35 18,7 C 62 % 1012,3 hPa 0,0 l/m 22,9 km/h (4 Bft) NO 49 1 min 0,000 mm 4,7 UV-I 846 W/m 11,3 C 14,0 C 32,2 km/h (5 Bft) 100,00 %
08.05.2016 12:36 18,7 C 62 % 1012,3 hPa 0,0 l/m 21,4 km/h (4 Bft) O-NO 69 1 min 0,000 mm 4,7 UV-I 848 W/m 11,3 C 14,3 C 25,7 km/h (4 Bft) 100,00 %
08.05.2016 12:37 18,7 C 61 % 1012,3 hPa 0,0 l/m 24,0 km/h (4 Bft) NO 56 1 min 0,000 mm 4,7 UV-I 847 W/m 11,0 C 13,8 C 32,2 km/h (5 Bft) 100,00 %
08.05.2016 12:38 18,7 C 63 % 1012,2 hPa 0,0 l/m 24,4 km/h (4 Bft) NO 53 1 min 0,000 mm 4,7 UV-I 849 W/m 11,5 C 13,7 C 33,8 km/h (5 Bft) 100,00 %
08.05.2016 12:39 18,8 C 64 % 1012,2 hPa 0,0 l/m 27,4 km/h (4 Bft) NO 38 1 min 0,000 mm 4,7 UV-I 846 W/m 11,8 C 13,4 C 37,0 km/h (5 Bft) 100,00 %
08.05.2016 12:40 18,8 C 63 % 1012,2 hPa 0,0 l/m 19,8 km/h (3 Bft) O-NO 78 1 min 0,000 mm 4,7 UV-I 847 W/m 11,6 C 14,7 C 29,0 km/h (5 Bft) 100,00 %
08.05.2016 12:41 18,9 C 62 % 1012,3 hPa 0,0 l/m 25,7 km/h (4 Bft) O-NO 67 1 min 0,000 mm 4,7 UV-I 848 W/m 11,5 C 13,8 C 37,0 km/h (5 Bft) 100,00 %
08.05.2016 12:42 19,0 C 62 % 1012,3 hPa 0,0 l/m 29,5 km/h (5 Bft) NO 53 1 min 0,000 mm 4,7 UV-I 847 W/m 11,6 C 13,4 C 41,8 km/h (6 Bft) 95,65 %
08.05.2016 12:43 19,1 C 61 % 1012,3 hPa 0,0 l/m 18,6 km/h (3 Bft) O-NO 57 1 min 0,000 mm 4,8 UV-I 848 W/m 11,4 C 15,3 C 30,6 km/h (5 Bft) 100,00 %
08.05.2016 12:44 19,1 C 63 % 1012,2 hPa 0,0 l/m 25,8 km/h (4 Bft) NO 40 1 min 0,000 mm 4,7 UV-I 849 W/m 11,9 C 14,0 C 37,0 km/h (5 Bft) 100,00 %
08.05.2016 12:45 19,1 C 60 % 1012,3 hPa 0,0 l/m 26,9 km/h (4 Bft) NO 38 1 min 0,000 mm 4,7 UV-I 847 W/m 11,1 C 13,9 C 33,8 km/h (5 Bft) 100,00 %
08.05.2016 12:46 19,1 C 59 % 1012,3 hPa 0,0 l/m 28,4 km/h (4 Bft) O-NO 65 1 min 0,000 mm 4,8 UV-I 848 W/m 10,9 C 13,7 C 38,6 km/h (5 Bft) 100,00 %
08.05.2016 12:47 19,1 C 59 % 1012,3 hPa 0,0 l/m 23,0 km/h (4 Bft) O-NO 57 1 min 0,000 mm 4,8 UV-I 851 W/m 10,9 C 14,5 C 32,2 km/h (5 Bft) 100,00 %
08.05.2016 12:48 19,1 C 59 % 1012,3 hPa 0,0 l/m 27,2 km/h (4 Bft) O-NO 61 1 min 0,000 mm 4,8 UV-I 853 W/m 10,9 C 13,8 C 40,2 km/h (6 Bft) 100,00 %
08.05.2016 12:49 19,1 C 59 % 1012,3 hPa 0,0 l/m 29,0 km/h (5 Bft) O-NO 67 1 min 0,000 mm 4,8 UV-I 852 W/m 10,9 C 13,6 C 40,2 km/h (6 Bft) 100,00 %
08.05.2016 12:50 19,1 C 61 % 1012,2 hPa 0,0 l/m 28,1 km/h (4 Bft) O-NO 69 1 min 0,000 mm 4,8 UV-I 854 W/m 11,4 C 13,7 C 41,8 km/h (6 Bft) 100,00 %
08.05.2016 12:51 19,1 C 58 % 1012,3 hPa 0,0 l/m 29,0 km/h (5 Bft) O-NO 67 1 min 0,000 mm 4,8 UV-I 853 W/m 10,6 C 13,6 C 41,8 km/h (6 Bft) 96,67 %
08.05.2016 12:52 19,0 C 58 % 1012,3 hPa 0,0 l/m 23,4 km/h (4 Bft) O-NO 59 1 min 0,000 mm 4,8 UV-I 852 W/m 10,5 C 14,3 C 32,2 km/h (5 Bft) 100,00 %
08.05.2016 12:53 19,1 C 59 % 1012,3 hPa 0,0 l/m 25,4 km/h (4 Bft) O-NO 64 1 min 0,000 mm 4,8 UV-I 852 W/m 10,9 C 14,1 C 38,6 km/h (5 Bft) 100,00 %
08.05.2016 12:54 19,0 C 59 % 1012,2 hPa 0,0 l/m 28,5 km/h (4 Bft) N-NO 32 1 min 0,000 mm 4,8 UV-I 850 W/m 10,8 C 13,5 C 38,6 km/h (5 Bft) 100,00 %
08.05.2016 12:55 19,0 C 58 % 1012,3 hPa 0,0 l/m 26,3 km/h (4 Bft) O-NO 59 1 min 0,000 mm 4,8 UV-I 851 W/m 10,5 C 13,8 C 37,0 km/h (5 Bft) 100,00 %
08.05.2016 12:56 19,0 C 59 % 1012,3 hPa 0,0 l/m 25,3 km/h (4 Bft) NO 34 1 min 0,000 mm 4,8 UV-I 847 W/m 10,8 C 14,0 C 37,0 km/h (5 Bft) 100,00 %
08.05.2016 12:57 19,0 C 60 % 1012,2 hPa 0,0 l/m 26,3 km/h (4 Bft) NO 49 1 min 0,000 mm 4,7 UV-I 848 W/m 11,1 C 13,8 C 37,0 km/h (5 Bft) 100,00 %
08.05.2016 12:58 19,0 C 58 % 1012,3 hPa 0,0 l/m 22,6 km/h (4 Bft) O-NO 59 1 min 0,000 mm 4,8 UV-I 852 W/m 10,5 C 14,4 C 33,8 km/h (5 Bft) 100,00 %
08.05.2016 12:59 19,1 C 58 % 1012,3 hPa 0,0 l/m 27,4 km/h (4 Bft) O-NO 69 1 min 0,000 mm 4,8 UV-I 852 W/m 10,6 C 13,8 C 37,0 km/h (5 Bft) 100,00 %
08.05.2016 13:00 19,1 C 59 % 1012,3 hPa 0,0 l/m 28,8 km/h (4 Bft) O 94 1 min 0,000 mm 4,8 UV-I 850 W/m 10,9 C 13,6 C 38,6 km/h (5 Bft) 100,00 %
08.05.2016 13:01 19,1 C 59 % 1012,3 hPa 0,0 l/m 19,5 km/h (3 Bft) O-NO 67 1 min 0,584 mm 4,8 UV-I 849 W/m 10,9 C 15,1 C 29,0 km/h (5 Bft) 100,00 %
08.05.2016 13:02 19,1 C 60 % 1012,3 hPa 0,0 l/m 23,0 km/h (4 Bft) O 81 1 min 0,000 mm 4,8 UV-I 850 W/m 11,1 C 14,5 C 32,2 km/h (5 Bft) 100,00 %
08.05.2016 13:03 19,2 C 58 % 1012,3 hPa 0,0 l/m 20,5 km/h (4 Bft) O-NO 70 1 min 0,000 mm 4,7 UV-I 847 W/m 10,7 C 15,1 C 25,7 km/h (4 Bft) 100,00 %
08.05.2016 13:04 19,2 C 59 % 1012,3 hPa 0,0 l/m 32,0 km/h (5 Bft) O-NO 63 1 min 0,000 mm 4,8 UV-I 851 W/m 11,0 C 13,3 C 43,5 km/h (6 Bft) 100,00 %
08.05.2016 13:05 19,2 C 58 % 1012,3 hPa 0,0 l/m 29,0 km/h (5 Bft) O-NO 71 1 min 0,000 mm 4,8 UV-I 850 W/m 10,7 C 13,7 C 38,6 km/h (5 Bft) 100,00 %
08.05.2016 13:06 19,2 C 57 % 1012,3 hPa 0,0 l/m 28,3 km/h (4 Bft) O-SO 103 1 min 0,000 mm 4,8 UV-I 850 W/m 10,5 C 13,8 C 38,6 km/h (5 Bft) 95,83 %
08.05.2016 13:07 19,2 C 57 % 1012,3 hPa 0,0 l/m 33,9 km/h (5 Bft) NO 43 1 min 0,000 mm 4,8 UV-I 851 W/m 10,5 C 13,1 C 40,2 km/h (6 Bft) 100,00 %
08.05.2016 13:08 19,2 C 57 % 1012,4 hPa 0,0 l/m 28,9 km/h (5 Bft) O-NO 61 1 min 0,000 mm 4,8 UV-I 853 W/m 10,5 C 13,7 C 40,2 km/h (6 Bft) 100,00 %
08.05.2016 13:09 19,3 C 59 % 1012,3 hPa 0,0 l/m 31,6 km/h (5 Bft) O-NO 61 1 min 0,000 mm 4,8 UV-I 851 W/m 11,1 C 13,5 C 41,8 km/h (6 Bft) 95,65 %
08.05.2016 13:10 19,3 C 57 % 1012,3 hPa 0,0 l/m 30,5 km/h (5 Bft) O 79 1 min 0,000 mm 4,8 UV-I 851 W/m 10,6 C 13,7 C 41,8 km/h (6 Bft) 100,00 %
08.05.2016 13:11 19,2 C 55 % 1012,3 hPa 0,0 l/m 34,1 km/h (5 Bft) O-NO 61 1 min 0,000 mm 4,8 UV-I 852 W/m 9,9 C 13,1 C 40,2 km/h (6 Bft) 100,00 %
08.05.2016 13:12 19,2 C 56 % 1012,3 hPa 0,0 l/m 34,4 km/h (5 Bft) O-NO 78 1 min 0,000 mm 4,8 UV-I 852 W/m 10,2 C 13,1 C 43,5 km/h (6 Bft) 100,00 %
08.05.2016 13:13 19,2 C 55 % 1012,3 hPa 0,0 l/m 30,9 km/h (5 Bft) O-NO 61 1 min 0,000 mm 4,8 UV-I 851 W/m 9,9 C 13,5 C 45,1 km/h (6 Bft) 100,00 %
08.05.2016 13:14 19,2 C 57 % 1012,3 hPa 0,0 l/m 29,0 km/h (5 Bft) NO 53 1 min 0,000 mm 4,7 UV-I 851 W/m 10,5 C 13,7 C 38,6 km/h (5 Bft) 100,00 %
08.05.2016 13:15 19,2 C 58 % 1012,3 hPa 0,0 l/m 29,8 km/h (5 Bft) O-NO 61 1 min 0,000 mm 4,8 UV-I 853 W/m 10,7 C 13,6 C 40,2 km/h (6 Bft) 95,65 %
08.05.2016 13:16 19,2 C 57 % 1012,3 hPa 0,0 l/m 28,1 km/h (4 Bft) O-NO 72 1 min 0,000 mm 4,8 UV-I 851 W/m 10,5 C 13,8 C 40,2 km/h (6 Bft) 100,00 %
08.05.2016 13:17 19,2 C 57 % 1012,3 hPa 0,0 l/m 31,0 km/h (5 Bft) O-NO 57 1 min 0,000 mm 4,8 UV-I 849 W/m 10,5 C 13,5 C 45,1 km/h (6 Bft) 95,65 %
08.05.2016 13:18 19,3 C 58 % 1012,3 hPa 0,0 l/m 24,7 km/h (4 Bft) O-NO 68 1 min 0,000 mm 4,8 UV-I 850 W/m 10,8 C 14,5 C 35,4 km/h (5 Bft) 100,00 %
08.05.2016 13:19 19,3 C 57 % 1012,3 hPa 0,0 l/m 23,5 km/h (4 Bft) NO 53 1 min 0,000 mm 4,8 UV-I 849 W/m 10,6 C 14,7 C 30,6 km/h (5 Bft) 100,00 %
08.05.2016 13:20 19,4 C 58 % 1012,2 hPa 0,0 l/m 32,5 km/h (5 Bft) O-NO 62 1 min 0,000 mm 4,8 UV-I 851 W/m 10,9 C 13,6 C 40,2 km/h (6 Bft) 100,00 %
08.05.2016 13:21 19,4 C 57 % 1012,3 hPa 0,0 l/m 27,1 km/h (4 Bft) NO 51 1 min 0,000 mm 4,8 UV-I 850 W/m 10,7 C 14,3 C 38,6 km/h (5 Bft) 100,00 %
08.05.2016 13:22 19,4 C 58 % 1012,3 hPa 0,0 l/m 27,3 km/h (4 Bft) NO 44 1 min 0,000 mm 4,7 UV-I 851 W/m 10,9 C 14,2 C 38,6 km/h (5 Bft) 100,00 %
08.05.2016 13:23 19,5 C 57 % 1012,2 hPa 0,0 l/m 29,5 km/h (5 Bft) O-NO 67 1 min 0,000 mm 4,8 UV-I 852 W/m 10,8 C 14,1 C 37,0 km/h (5 Bft) 100,00 %
08.05.2016 13:24 19,5 C 58 % 1012,2 hPa 0,0 l/m 26,2 km/h (4 Bft) O-NO 63 1 min 0,000 mm 4,7 UV-I 851 W/m 11,0 C 14,5 C 35,4 km/h (5 Bft) 95,65 %
08.05.2016 13:25 19,6 C 58 % 1012,2 hPa 0,0 l/m 26,5 km/h (4 Bft) O-NO 62 1 min 0,000 mm 4,7 UV-I 849 W/m 11,1 C 14,6 C 32,2 km/h (5 Bft) 100,00 %
08.05.2016 13:26 19,6 C 58 % 1012,2 hPa 0,0 l/m 25,7 km/h (4 Bft) O-NO 67 1 min 0,000 mm 4,7 UV-I 851 W/m 11,1 C 14,7 C 37,0 km/h (5 Bft) 95,65 %
08.05.2016 13:27 19,6 C 56 % 1012,2 hPa 0,0 l/m 29,0 km/h (5 Bft) O-NO 71 1 min 0,000 mm 4,8 UV-I 852 W/m 10,6 C 14,3 C 40,2 km/h (6 Bft) 100,00 %
08.05.2016 13:28 19,7 C 57 % 1012,2 hPa 0,0 l/m 25,9 km/h (4 Bft) O-NO 65 1 min 0,000 mm 4,7 UV-I 848 W/m 10,9 C 14,8 C 33,8 km/h (5 Bft) 100,00 %
08.05.2016 13:29 19,7 C 57 % 1012,2 hPa 0,0 l/m 26,2 km/h (4 Bft) NO 42 1 min 0,000 mm 4,7 UV-I 846 W/m 10,9 C 14,8 C 33,8 km/h (5 Bft) 100,00 %
08.05.2016 13:30 19,7 C 57 % 1012,2 hPa 0,0 l/m 27,6 km/h (4 Bft) O-NO 60 1 min 0,000 mm 4,7 UV-I 845 W/m 10,9 C 14,6 C 37,0 km/h (5 Bft) 95,65 %
08.05.2016 13:31 19,7 C 56 % 1012,2 hPa 0,0 l/m 30,8 km/h (5 Bft) O-NO 61 1 min 0,000 mm 4,7 UV-I 847 W/m 10,7 C 14,2 C 38,6 km/h (5 Bft) 100,00 %
08.05.2016 13:32 19,7 C 56 % 1012,2 hPa 0,0 l/m 30,8 km/h (5 Bft) NO 49 1 min 0,000 mm 4,7 UV-I 847 W/m 10,7 C 14,2 C 41,8 km/h (6 Bft) 100,00 %
08.05.2016 13:33 19,7 C 57 % 1012,2 hPa 0,0 l/m 24,2 km/h (4 Bft) O-NO 59 1 min 0,000 mm 4,7 UV-I 846 W/m 10,9 C 15,1 C 32,2 km/h (5 Bft) 95,83 %
08.05.2016 13:34 19,7 C 56 % 1012,2 hPa 0,0 l/m 31,8 km/h (5 Bft) O-NO 74 1 min 0,000 mm 4,7 UV-I 847 W/m 10,7 C 14,1 C 41,8 km/h (6 Bft) 95,65 %
08.05.2016 13:35 19,7 C 55 % 1012,2 hPa 0,0 l/m 32,3 km/h (5 Bft) O-NO 64 1 min 0,000 mm 4,7 UV-I 848 W/m 10,4 C 14,0 C 43,5 km/h (6 Bft) 100,00 %
08.05.2016 13:36 19,7 C 56 % 1012,2 hPa 0,0 l/m 28,9 km/h (5 Bft) O-NO 63 1 min 0,000 mm 4,7 UV-I 849 W/m 10,7 C 14,4 C 40,2 km/h (6 Bft) 100,00 %
08.05.2016 13:37 19,7 C 55 % 1012,2 hPa 0,0 l/m 31,6 km/h (5 Bft) O 86 1 min 0,000 mm 4,7 UV-I 847 W/m 10,4 C 14,1 C 43,5 km/h (6 Bft) 95,83 %
08.05.2016 13:38 19,7 C 54 % 1012,2 hPa 0,0 l/m 34,4 km/h (5 Bft) O-NO 59 1 min 0,000 mm 4,7 UV-I 847 W/m 10,1 C 13,8 C 46,7 km/h (6 Bft) 95,65 %
08.05.2016 13:39 19,7 C 55 % 1012,2 hPa 0,0 l/m 33,7 km/h (5 Bft) O-NO 63 1 min 0,000 mm 4,7 UV-I 846 W/m 10,4 C 13,9 C 43,5 km/h (6 Bft) 95,83 %
08.05.2016 13:40 19,7 C 55 % 1012,2 hPa 0,0 l/m 35,5 km/h (5 Bft) O-NO 65 1 min 0,000 mm 4,7 UV-I 846 W/m 10,4 C 13,7 C 51,5 km/h (7 Bft) 100,00 %
08.05.2016 13:41 19,6 C 52 % 1012,1 hPa 0,0 l/m 39,0 km/h (6 Bft) NO 51 1 min 0,000 mm 4,7 UV-I 846 W/m 9,5 C 13,2 C 46,7 km/h (6 Bft) 95,83 %
08.05.2016 13:42 19,6 C 54 % 1012,1 hPa 0,0 l/m 32,2 km/h (5 Bft) O-NO 74 1 min 0,000 mm 4,6 UV-I 842 W/m 10,0 C 13,9 C 43,5 km/h (6 Bft) 100,00 %
08.05.2016 13:43 19,6 C 53 % 1012,2 hPa 0,0 l/m 33,8 km/h (5 Bft) O-NO 59 1 min 0,000 mm 4,7 UV-I 844 W/m 9,8 C 13,7 C 45,1 km/h (6 Bft) 96,15 %
08.05.2016 13:44 19,6 C 54 % 1012,1 hPa 0,0 l/m 31,8 km/h (5 Bft) NO 44 1 min 0,000 mm 4,6 UV-I 845 W/m 10,0 C 13,9 C 40,2 km/h (6 Bft) 100,00 %
08.05.2016 13:45 19,6 C 54 % 1012,1 hPa 0,0 l/m 28,8 km/h (4 Bft) O-NO 68 1 min 0,000 mm 4,6 UV-I 843 W/m 10,0 C 14,3 C 35,4 km/h (5 Bft) 95,65 %
08.05.2016 13:46 19,6 C 56 % 1012,1 hPa 0,0 l/m 35,2 km/h (5 Bft) NO 49 1 min 0,000 mm 4,6 UV-I 842 W/m 10,6 C 13,6 C 43,5 km/h (6 Bft) 95,83 %
08.05.2016 13:47 19,6 C 54 % 1012,1 hPa 0,0 l/m 33,1 km/h (5 Bft) O-NO 68 1 min 0,000 mm 4,6 UV-I 842 W/m 10,0 C 13,8 C 40,2 km/h (6 Bft) 91,30 %
08.05.2016 13:48 19,6 C 54 % 1012,2 hPa 0,0 l/m 33,2 km/h (5 Bft) NO 56 1 min 0,000 mm 4,6 UV-I 840 W/m 10,0 C 13,8 C 43,5 km/h (6 Bft) 95,83 %
08.05.2016 13:49 19,6 C 55 % 1012,2 hPa 0,0 l/m 26,6 km/h (4 Bft) O-NO 64 1 min 0,000 mm 4,6 UV-I 838 W/m 10,3 C 14,6 C 35,4 km/h (5 Bft) 91,30 %
08.05.2016 13:50 19,6 C 56 % 1012,1 hPa 0,0 l/m 33,5 km/h (5 Bft) O-NO 72 1 min 0,000 mm 4,6 UV-I 840 W/m 10,6 C 13,8 C 41,8 km/h (6 Bft) 95,83 %
08.05.2016 13:51 19,6 C 54 % 1012,1 hPa 0,0 l/m 29,0 km/h (5 Bft) O 93 1 min 0,000 mm 4,6 UV-I 842 W/m 10,0 C 14,3 C 38,6 km/h (5 Bft) 100,00 %
08.05.2016 13:52 19,6 C 55 % 1012,2 hPa 0,0 l/m 27,1 km/h (4 Bft) NO 46 1 min 0,000 mm 4,6 UV-I 841 W/m 10,3 C 14,5 C 37,0 km/h (5 Bft) 95,83 %
08.05.2016 13:53 19,6 C 55 % 1012,1 hPa 0,0 l/m 30,6 km/h (5 Bft) O-NO 74 1 min 0,000 mm 4,6 UV-I 839 W/m 10,3 C 14,1 C 38,6 km/h (5 Bft) 100,00 %
08.05.2016 13:54 19,7 C 55 % 1012,1 hPa 0,0 l/m 35,2 km/h (5 Bft) O-NO 58 1 min 0,000 mm 4,6 UV-I 838 W/m 10,4 C 13,7 C 41,8 km/h (6 Bft) 87,50 %
08.05.2016 13:55 19,7 C 56 % 1012,2 hPa 0,0 l/m 28,4 km/h (4 Bft) O-NO 72 1 min 0,000 mm 4,5 UV-I 835 W/m 10,7 C 14,5 C 37,0 km/h (5 Bft) 100,00 %
08.05.2016 13:56 19,7 C 55 % 1012,1 hPa 0,0 l/m 25,7 km/h (4 Bft) NO 40 1 min 0,000 mm 4,5 UV-I 836 W/m 10,4 C 14,9 C 33,8 km/h (5 Bft) 95,83 %
08.05.2016 13:57 19,7 C 55 % 1012,1 hPa 0,0 l/m 30,3 km/h (5 Bft) O-NO 65 1 min 0,000 mm 4,5 UV-I 835 W/m 10,4 C 14,3 C 38,6 km/h (5 Bft) 100,00 %
08.05.2016 13:58 19,8 C 55 % 1012,1 hPa 0,0 l/m 32,5 km/h (5 Bft) O 101 1 min 0,000 mm 4,5 UV-I 832 W/m 10,5 C 14,1 C 49,9 km/h (6 Bft) 97,37 %
08.05.2016 13:59 19,8 C 55 % 1012,2 hPa 0,0 l/m 31,9 km/h (5 Bft) O 96 1 min 0,000 mm 4,5 UV-I 832 W/m 10,5 C 14,2 C 46,7 km/h (6 Bft) 95,65 %
08.05.2016 14:00 19,9 C 54 % 1012,2 hPa 0,0 l/m 33,2 km/h (5 Bft) NO 40 1 min 0,661 mm 4,5 UV-I 835 W/m 10,3 C 14,2 C 45,1 km/h (6 Bft) 100,00 %
08.05.2016 14:01 19,9 C 54 % 1012,1 hPa 0,0 l/m 31,9 km/h (5 Bft) O 81 1 min 0,000 mm 4,5 UV-I 832 W/m 10,3 C 14,4 C 40,2 km/h (6 Bft) 95,83 %
08.05.2016 14:02 19,9 C 54 % 1012,1 hPa 0,0 l/m 32,7 km/h (5 Bft) O 82 1 min 0,000 mm 4,5 UV-I 834 W/m 10,3 C 14,3 C 41,8 km/h (6 Bft) 100,00 %
08.05.2016 14:03 19,9 C 53 % 1012,1 hPa 0,0 l/m 30,5 km/h (5 Bft) O-NO 68 1 min 0,000 mm 4,5 UV-I 832 W/m 10,0 C 14,5 C 38,6 km/h (5 Bft) 95,83 %
08.05.2016 14:04 19,9 C 53 % 1012,1 hPa 0,0 l/m 29,3 km/h (5 Bft) O-NO 76 1 min 0,000 mm 4,4 UV-I 830 W/m 10,0 C 14,7 C 33,8 km/h (5 Bft) 92,31 %
08.05.2016 14:05 19,9 C 53 % 1012,1 hPa 0,0 l/m 29,8 km/h (5 Bft) O-NO 61 1 min 0,000 mm 4,4 UV-I 830 W/m 10,0 C 14,6 C 41,8 km/h (6 Bft) 100,00 %
08.05.2016 14:06 19,9 C 55 % 1012,1 hPa 0,0 l/m 24,2 km/h (4 Bft) O-NO 74 1 min 0,000 mm 4,4 UV-I 830 W/m 10,6 C 15,4 C 33,8 km/h (5 Bft) 95,65 %
08.05.2016 14:07 20,0 C 53 % 1012,1 hPa 0,0 l/m 27,4 km/h (4 Bft) O 84 1 min 0,000 mm 4,4 UV-I 830 W/m 10,1 C 15,0 C 38,6 km/h (5 Bft) 100,00 %
08.05.2016 14:08 20,0 C 54 % 1012,1 hPa 0,0 l/m 27,8 km/h (4 Bft) O-NO 65 1 min 0,000 mm 4,4 UV-I 829 W/m 10,4 C 15,0 C 38,6 km/h (5 Bft) 95,65 %
08.05.2016 14:09 20,0 C 54 % 1012,1 hPa 0,0 l/m 32,0 km/h (5 Bft) O-NO 64 1 min 0,000 mm 4,4 UV-I 829 W/m 10,4 C 14,5 C 40,2 km/h (6 Bft) 100,00 %
08.05.2016 14:10 20,0 C 53 % 1012,1 hPa 0,0 l/m 29,0 km/h (5 Bft) O-NO 71 1 min 0,000 mm 4,4 UV-I 828 W/m 10,1 C 14,8 C 37,0 km/h (5 Bft) 100,00 %
08.05.2016 14:11 20,0 C 53 % 1012,0 hPa 0,0 l/m 24,0 km/h (4 Bft) NO 51 1 min 0,000 mm 4,4 UV-I 826 W/m 10,1 C 15,5 C 30,6 km/h (5 Bft) 100,00 %
08.05.2016 14:12 20,0 C 54 % 1012,0 hPa 0,0 l/m 25,9 km/h (4 Bft) O-NO 72 1 min 0,000 mm 4,4 UV-I 824 W/m 10,4 C 15,3 C 38,6 km/h (5 Bft) 100,00 %
08.05.2016 14:13 20,1 C 54 % 1012,1 hPa 0,0 l/m 26,2 km/h (4 Bft) O-NO 66 1 min 0,000 mm 4,4 UV-I 821 W/m 10,5 C 15,3 C 33,8 km/h (5 Bft) 100,00 %
08.05.2016 14:14 20,1 C 54 % 1012,0 hPa 0,0 l/m 32,5 km/h (5 Bft) O 80 1 min 0,000 mm 4,4 UV-I 822 W/m 10,5 C 14,6 C 41,8 km/h (6 Bft) 100,00 %
08.05.2016 14:15 20,1 C 54 % 1012,1 hPa 0,0 l/m 27,9 km/h (4 Bft) O-NO 57 1 min 0,000 mm 4,3 UV-I 818 W/m 10,5 C 15,1 C 41,8 km/h (6 Bft) 100,00 %
08.05.2016 14:16 20,1 C 55 % 1012,0 hPa 0,0 l/m 23,5 km/h (4 Bft) NO 43 1 min 0,000 mm 4,3 UV-I 816 W/m 10,8 C 15,7 C 30,6 km/h (5 Bft) 91,30 %
08.05.2016 14:17 20,2 C 54 % 1012,1 hPa 0,0 l/m 30,4 km/h (5 Bft) O-NO 61 1 min 0,000 mm 4,3 UV-I 816 W/m 10,6 C 15,0 C 38,6 km/h (5 Bft) 95,83 %
08.05.2016 14:18 20,2 C 55 % 1012,0 hPa 0,0 l/m 21,0 km/h (4 Bft) NO 42 1 min 0,000 mm 4,3 UV-I 815 W/m 10,9 C 16,3 C 29,0 km/h (5 Bft) 100,00 %
08.05.2016 14:19 20,3 C 55 % 1012,0 hPa 0,0 l/m 23,9 km/h (4 Bft) O-NO 61 1 min 0,000 mm 4,2 UV-I 809 W/m 11,0 C 16,0 C 32,2 km/h (5 Bft) 100,00 %
08.05.2016 14:20 20,3 C 53 % 1012,1 hPa 0,0 l/m 28,2 km/h (4 Bft) NO 34 1 min 0,000 mm 4,3 UV-I 808 W/m 10,4 C 15,4 C 35,4 km/h (5 Bft) 100,00 %
08.05.2016 14:21 20,3 C 53 % 1012,0 hPa 0,0 l/m 29,8 km/h (5 Bft) NO 36 1 min 0,000 mm 4,2 UV-I 808 W/m 10,4 C 15,2 C 40,2 km/h (6 Bft) 100,00 %
08.05.2016 14:22 20,3 C 54 % 1012,0 hPa 0,0 l/m 30,2 km/h (5 Bft) NO 42 1 min 0,000 mm 4,2 UV-I 805 W/m 10,7 C 15,1 C 41,8 km/h (6 Bft) 95,65 %
08.05.2016 14:23 20,3 C 54 % 1012,0 hPa 0,0 l/m 28,0 km/h (4 Bft) O-NO 65 1 min 0,000 mm 4,2 UV-I 808 W/m 10,7 C 15,4 C 38,6 km/h (5 Bft) 100,00 %
08.05.2016 14:24 20,3 C 52 % 1012,1 hPa 0,0 l/m 34,3 km/h (5 Bft) NO 50 1 min 0,000 mm 4,2 UV-I 805 W/m 10,1 C 14,7 C 43,5 km/h (6 Bft) 95,65 %
08.05.2016 14:25 20,2 C 52 % 1012,1 hPa 0,0 l/m 33,9 km/h (5 Bft) O-NO 71 1 min 0,000 mm 4,2 UV-I 804 W/m 10,0 C 14,6 C 43,5 km/h (6 Bft) 100,00 %
08.05.2016 14:26 20,2 C 52 % 1012,1 hPa 0,0 l/m 30,0 km/h (5 Bft) NO 36 1 min 0,000 mm 4,2 UV-I 803 W/m 10,0 C 15,0 C 40,2 km/h (6 Bft) 100,00 %
08.05.2016 14:27 20,2 C 53 % 1012,1 hPa 0,0 l/m 33,1 km/h (5 Bft) O 79 1 min 0,000 mm 4,2 UV-I 806 W/m 10,3 C 14,7 C 40,2 km/h (6 Bft) 100,00 %
08.05.2016 14:28 20,2 C 52 % 1012,1 hPa 0,0 l/m 35,3 km/h (5 Bft) O-NO 69 1 min 0,000 mm 4,1 UV-I 804 W/m 10,0 C 14,4 C 48,3 km/h (6 Bft) 100,00 %
08.05.2016 14:29 20,2 C 53 % 1012,0 hPa 0,0 l/m 24,8 km/h (4 Bft) O 89 1 min 0,000 mm 4,1 UV-I 803 W/m 10,3 C 15,7 C 33,8 km/h (5 Bft) 100,00 %
08.05.2016 14:30 20,2 C 53 % 1012,2 hPa 0,0 l/m 28,4 km/h (4 Bft) O 86 1 min 0,000 mm 4,2 UV-I 807 W/m 10,3 C 15,2 C 41,8 km/h (6 Bft) 100,00 %
08.05.2016 14:31 20,2 C 54 % 1012,1 hPa 0,0 l/m 28,3 km/h (4 Bft) NO 44 1 min 0,000 mm 4,1 UV-I 804 W/m 10,6 C 15,2 C 35,4 km/h (5 Bft) 100,00 %
08.05.2016 14:32 20,2 C 53 % 1012,1 hPa 0,0 l/m 26,5 km/h (4 Bft) O 86 1 min 0,000 mm 4,1 UV-I 802 W/m 10,3 C 15,4 C 33,8 km/h (5 Bft) 100,00 %
08.05.2016 14:33 20,2 C 53 % 1012,1 hPa 0,0 l/m 23,4 km/h (4 Bft) NO 44 1 min 0,000 mm 4,1 UV-I 804 W/m 10,3 C 15,9 C 30,6 km/h (5 Bft) 92,86 %
08.05.2016 14:34 20,2 C 54 % 1012,0 hPa 0,0 l/m 22,1 km/h (4 Bft) N-NO 26 1 min 0,000 mm 4,1 UV-I 802 W/m 10,6 C 16,1 C 33,8 km/h (5 Bft) 95,83 %
08.05.2016 14:35 20,3 C 54 % 1012,1 hPa 0,0 l/m 25,5 km/h (4 Bft) O-NO 60 1 min 0,000 mm 4,1 UV-I 800 W/m 10,7 C 15,7 C 35,4 km/h (5 Bft) 100,00 %
08.05.2016 14:36 20,3 C 54 % 1012,1 hPa 0,0 l/m 22,2 km/h (4 Bft) NO 37 1 min 0,000 mm 4,1 UV-I 800 W/m 10,7 C 16,2 C 30,6 km/h (5 Bft) 100,00 %
08.05.2016 14:37 20,4 C 53 % 1012,0 hPa 0,0 l/m 28,5 km/h (4 Bft) NO 36 1 min 0,000 mm 4,1 UV-I 799 W/m 10,5 C 15,5 C 41,8 km/h (6 Bft) 95,65 %
08.05.2016 14:38 20,4 C 52 % 1012,1 hPa 0,0 l/m 34,0 km/h (5 Bft) O-NO 59 1 min 0,000 mm 4,0 UV-I 796 W/m 10,2 C 14,9 C 43,5 km/h (6 Bft) 95,83 %
08.05.2016 14:39 20,4 C 52 % 1012,1 hPa 0,0 l/m 33,6 km/h (5 Bft) NO 54 1 min 0,000 mm 4,0 UV-I 797 W/m 10,2 C 14,9 C 43,5 km/h (6 Bft) 100,00 %
08.05.2016 14:40 20,3 C 52 % 1012,1 hPa 0,0 l/m 31,4 km/h (5 Bft) NO 55 1 min 0,000 mm 4,0 UV-I 792 W/m 10,1 C 15,0 C 41,8 km/h (6 Bft) 100,00 %
08.05.2016 14:41 20,3 C 52 % 1012,0 hPa 0,0 l/m 34,1 km/h (5 Bft) O-NO 57 1 min 0,000 mm 4,0 UV-I 789 W/m 10,1 C 14,7 C 43,5 km/h (6 Bft) 100,00 %
08.05.2016 14:42 20,3 C 52 % 1012,1 hPa 0,0 l/m 26,8 km/h (4 Bft) O-NO 59 1 min 0,000 mm 4,0 UV-I 791 W/m 10,1 C 15,5 C 40,2 km/h (6 Bft) 100,00 %
08.05.2016 14:43 20,3 C 52 % 1012,1 hPa 0,0 l/m 33,9 km/h (5 Bft) NO 43 1 min 0,000 mm 4,0 UV-I 789 W/m 10,1 C 14,7 C 45,1 km/h (6 Bft) 100,00 %
08.05.2016 14:44 20,3 C 52 % 1012,1 hPa 0,0 l/m 31,9 km/h (5 Bft) NO 50 1 min 0,000 mm 4,0 UV-I 790 W/m 10,1 C 14,9 C 37,0 km/h (5 Bft) 91,30 %
08.05.2016 14:45 20,2 C 52 % 1012,1 hPa 0,0 l/m 31,2 km/h (5 Bft) O 88 1 min 0,000 mm 4,0 UV-I 788 W/m 10,0 C 14,9 C 43,5 km/h (6 Bft) 100,00 %
08.05.2016 14:46 20,2 C 53 % 1012,1 hPa 0,0 l/m 28,4 km/h (4 Bft) O-NO 61 1 min 0,000 mm 3,9 UV-I 787 W/m 10,3 C 15,2 C 35,4 km/h (5 Bft) 100,00 %
08.05.2016 14:47 20,2 C 51 % 1012,1 hPa 0,0 l/m 30,0 km/h (5 Bft) O-NO 57 1 min 0,000 mm 3,9 UV-I 784 W/m 9,7 C 15,0 C 38,6 km/h (5 Bft) 95,83 %
08.05.2016 14:48 20,2 C 53 % 1012,0 hPa 0,0 l/m 27,1 km/h (4 Bft) O-NO 63 1 min 0,000 mm 3,9 UV-I 784 W/m 10,3 C 15,4 C 33,8 km/h (5 Bft) 100,00 %
08.05.2016 14:49 20,2 C 52 % 1012,0 hPa 0,0 l/m 30,8 km/h (5 Bft) O-NO 64 1 min 0,000 mm 3,9 UV-I 782 W/m 10,0 C 14,9 C 41,8 km/h (6 Bft) 100,00 %
08.05.2016 14:50 20,3 C 52 % 1012,0 hPa 0,0 l/m 31,9 km/h (5 Bft) O-NO 74 1 min 0,000 mm 3,9 UV-I 782 W/m 10,1 C 14,9 C 38,6 km/h (5 Bft) 100,00 %
08.05.2016 14:51 20,3 C 52 % 1012,0 hPa 0,0 l/m 30,0 km/h (5 Bft) O-NO 63 1 min 0,000 mm 3,9 UV-I 780 W/m 10,1 C 15,1 C 38,6 km/h (5 Bft) 100,00 %
08.05.2016 14:52 20,3 C 51 % 1012,1 hPa 0,0 l/m 32,6 km/h (5 Bft) NO 55 1 min 0,000 mm 3,8 UV-I 777 W/m 9,8 C 14,9 C 38,6 km/h (5 Bft) 100,00 %
08.05.2016 14:53 20,3 C 52 % 1012,0 hPa 0,0 l/m 23,3 km/h (4 Bft) O 91 1 min 0,000 mm 3,8 UV-I 777 W/m 10,1 C 16,0 C 33,8 km/h (5 Bft) 100,00 %
08.05.2016 14:54 20,3 C 53 % 1012,0 hPa 0,0 l/m 20,9 km/h (4 Bft) O-NO 67 1 min 0,000 mm 3,8 UV-I 776 W/m 10,4 C 16,4 C 30,6 km/h (5 Bft) 100,00 %
08.05.2016 14:55 20,4 C 53 % 1012,0 hPa 0,0 l/m 26,1 km/h (4 Bft) O-NO 57 1 min 0,000 mm 3,8 UV-I 771 W/m 10,5 C 15,8 C 37,0 km/h (5 Bft) 100,00 %
08.05.2016 14:56 20,4 C 52 % 1011,9 hPa 0,0 l/m 30,4 km/h (5 Bft) O-NO 63 1 min 0,000 mm 3,7 UV-I 770 W/m 10,2 C 15,2 C 40,2 km/h (6 Bft) 95,65 %
08.05.2016 14:57 20,4 C 52 % 1012,0 hPa 0,0 l/m 23,9 km/h (4 Bft) O-NO 65 1 min 0,000 mm 3,7 UV-I 769 W/m 10,2 C 16,1 C 30,6 km/h (5 Bft) 95,83 %
08.05.2016 14:58 20,4 C 51 % 1012,0 hPa 0,0 l/m 28,8 km/h (4 Bft) NO 52 1 min 0,000 mm 3,7 UV-I 766 W/m 9,9 C 15,4 C 40,2 km/h (6 Bft) 100,00 %
08.05.2016 14:59 20,5 C 52 % 1012,0 hPa 0,0 l/m 24,5 km/h (4 Bft) NO 42 1 min 0,000 mm 3,7 UV-I 765 W/m 10,3 C 16,1 C 33,8 km/h (5 Bft) 100,00 %
08.05.2016 15:00 20,6 C 54 % 1011,9 hPa 0,0 l/m 22,8 km/h (4 Bft) NO 51 1 min 0,635 mm 3,7 UV-I 762 W/m 11,0 C 16,5 C 32,2 km/h (5 Bft) 100,00 %
08.05.2016 15:02 20,6 C 51 % 1012,0 hPa 0,0 l/m 28,9 km/h (5 Bft) O-NO 71 2 min 0,000 mm 3,7 UV-I 760 W/m 10,1 C 15,7 C 40,2 km/h (6 Bft) 94,23 %
08.05.2016 15:03 20,6 C 51 % 1012,0 hPa 0,0 l/m 34,8 km/h (5 Bft) NO 40 1 min 0,000 mm 3,6 UV-I 757 W/m 10,1 C 15,1 C 40,2 km/h (6 Bft) 96,30 %
08.05.2016 15:04 20,6 C 52 % 1012,0 hPa 0,0 l/m 25,9 km/h (4 Bft) NO 51 1 min 0,000 mm 3,6 UV-I 754 W/m 10,4 C 16,1 C 33,8 km/h (5 Bft) 95,65 %
08.05.2016 15:05 20,5 C 51 % 1012,0 hPa 0,0 l/m 36,7 km/h (5 Bft) O-NO 67 1 min 0,000 mm 3,6 UV-I 751 W/m 10,0 C 14,7 C 45,1 km/h (6 Bft) 100,00 %
08.05.2016 15:06 20,4 C 51 % 1011,9 hPa 0,0 l/m 30,4 km/h (5 Bft) NO 47 1 min 0,000 mm 3,5 UV-I 747 W/m 9,9 C 15,2 C 38,6 km/h (5 Bft) 100,00 %
08.05.2016 15:07 20,4 C 50 % 1012,0 hPa 0,0 l/m 29,5 km/h (5 Bft) NO 52 1 min 0,000 mm 3,5 UV-I 748 W/m 9,6 C 15,3 C 37,0 km/h (5 Bft) 100,00 %
08.05.2016 15:08 20,4 C 50 % 1011,9 hPa 0,0 l/m 27,6 km/h (4 Bft) O-NO 57 1 min 0,000 mm 3,5 UV-I 749 W/m 9,6 C 15,6 C 40,2 km/h (6 Bft) 100,00 %
08.05.2016 15:09 20,4 C 50 % 1012,0 hPa 0,0 l/m 22,6 km/h (4 Bft) O 95 1 min 0,000 mm 3,5 UV-I 746 W/m 9,6 C 16,3 C 30,6 km/h (5 Bft) 95,65 %
08.05.2016 15:10 20,4 C 53 % 1011,9 hPa 0,0 l/m 26,2 km/h (4 Bft) NO 36 1 min 0,000 mm 3,5 UV-I 742 W/m 10,5 C 15,8 C 43,5 km/h (6 Bft) 100,00 %
08.05.2016 15:11 20,4 C 51 % 1011,8 hPa 0,0 l/m 27,0 km/h (4 Bft) NO 37 1 min 0,000 mm 3,5 UV-I 742 W/m 9,9 C 15,7 C 35,4 km/h (5 Bft) 100,00 %
08.05.2016 15:12 20,4 C 50 % 1011,9 hPa 0,0 l/m 30,0 km/h (5 Bft) NO 41 1 min 0,000 mm 3,4 UV-I 741 W/m 9,6 C 15,3 C 45,1 km/h (6 Bft) 95,83 %
08.05.2016 15:13 20,4 C 51 % 1011,8 hPa 0,0 l/m 28,8 km/h (4 Bft) O-NO 59 1 min 0,000 mm 3,4 UV-I 740 W/m 9,9 C 15,4 C 46,7 km/h (6 Bft) 95,65 %
08.05.2016 15:14 20,4 C 50 % 1011,9 hPa 0,0 l/m 30,5 km/h (5 Bft) O-NO 65 1 min 0,000 mm 3,4 UV-I 739 W/m 9,6 C 15,2 C 41,8 km/h (6 Bft) 100,00 %
08.05.2016 15:15 20,4 C 50 % 1011,9 hPa 0,0 l/m 31,2 km/h (5 Bft) O 83 1 min 0,000 mm 3,4 UV-I 736 W/m 9,6 C 15,1 C 40,2 km/h (6 Bft) 100,00 %
08.05.2016 15:16 20,3 C 50 % 1011,9 hPa 0,0 l/m 27,7 km/h (4 Bft) NO 53 1 min 0,000 mm 3,4 UV-I 735 W/m 9,5 C 15,4 C 37,0 km/h (5 Bft) 100,00 %
08.05.2016 15:17 20,3 C 51 % 1011,9 hPa 0,0 l/m 25,4 km/h (4 Bft) NO 34 1 min 0,000 mm 3,4 UV-I 733 W/m 9,8 C 15,7 C 37,0 km/h (5 Bft) 100,00 %
08.05.2016 15:18 20,3 C 50 % 1011,8 hPa 0,0 l/m 31,9 km/h (5 Bft) O-NO 68 1 min 0,000 mm 3,4 UV-I 732 W/m 9,5 C 14,9 C 41,8 km/h (6 Bft) 95,65 %
08.05.2016 15:19 20,4 C 52 % 1011,9 hPa 0,0 l/m 26,8 km/h (4 Bft) O-NO 74 1 min 0,000 mm 3,3 UV-I 731 W/m 10,2 C 15,7 C 33,8 km/h (5 Bft) 100,00 %
08.05.2016 15:20 20,4 C 52 % 1011,9 hPa 0,0 l/m 21,0 km/h (4 Bft) NO 53 1 min 0,000 mm 3,3 UV-I 730 W/m 10,2 C 16,5 C 27,4 km/h (4 Bft) 100,00 %
08.05.2016 15:21 20,4 C 51 % 1011,9 hPa 0,0 l/m 23,5 km/h (4 Bft) N-NO 30 1 min 0,000 mm 3,3 UV-I 728 W/m 9,9 C 16,1 C 32,2 km/h (5 Bft) 100,00 %
08.05.2016 15:22 20,5 C 53 % 1011,9 hPa 0,0 l/m 27,0 km/h (4 Bft) NO 48 1 min 0,000 mm 3,3 UV-I 724 W/m 10,6 C 15,8 C 35,4 km/h (5 Bft) 100,00 %
08.05.2016 15:23 20,5 C 52 % 1011,8 hPa 0,0 l/m 22,7 km/h (4 Bft) NO 55 1 min 0,000 mm 3,2 UV-I 721 W/m 10,3 C 16,4 C 35,4 km/h (5 Bft) 100,00 %
08.05.2016 15:24 20,6 C 53 % 1011,8 hPa 0,0 l/m 24,7 km/h (4 Bft) NO 55 1 min 0,000 mm 3,2 UV-I 718 W/m 10,7 C 16,2 C 35,4 km/h (5 Bft) 100,00 %
08.05.2016 15:25 20,6 C 50 % 1011,9 hPa 0,0 l/m 25,2 km/h (4 Bft) NO 55 1 min 0,000 mm 3,2 UV-I 716 W/m 9,8 C 16,2 C 33,8 km/h (5 Bft) 100,00 %
08.05.2016 15:26 20,6 C 51 % 1011,9 hPa 0,0 l/m 26,0 km/h (4 Bft) O 88 1 min 0,000 mm 3,2 UV-I 714 W/m 10,1 C 16,1 C 38,6 km/h (5 Bft) 100,00 %
08.05.2016 15:27 20,6 C 51 % 1011,9 hPa 0,0 l/m 28,5 km/h (4 Bft) O-NO 77 1 min 0,000 mm 3,2 UV-I 714 W/m 10,1 C 15,7 C 33,8 km/h (5 Bft) 100,00 %
08.05.2016 15:28 20,6 C 52 % 1011,9 hPa 0,0 l/m 19,8 km/h (3 Bft) O-NO 63 1 min 0,000 mm 3,2 UV-I 710 W/m 10,4 C 17,0 C 24,1 km/h (4 Bft) 100,00 %
08.05.2016 15:29 20,7 C 53 % 1011,9 hPa 0,0 l/m 26,9 km/h (4 Bft) O-NO 76 1 min 0,000 mm 3,1 UV-I 712 W/m 10,8 C 16,1 C 32,2 km/h (5 Bft) 95,83 %
08.05.2016 15:30 20,7 C 51 % 1011,9 hPa 0,0 l/m 25,6 km/h (4 Bft) O 81 1 min 0,000 mm 3,1 UV-I 709 W/m 10,2 C 16,2 C 30,6 km/h (5 Bft) 100,00 %
08.05.2016 15:31 20,7 C 50 % 1011,9 hPa 0,0 l/m 18,3 km/h (3 Bft) O-NO 61 1 min 0,000 mm 3,1 UV-I 708 W/m 9,9 C 17,4 C 33,8 km/h (5 Bft) 95,83 %
08.05.2016 15:32 20,7 C 51 % 1011,9 hPa 0,0 l/m 31,2 km/h (5 Bft) NO 54 1 min 0,000 mm 3,1 UV-I 706 W/m 10,2 C 15,6 C 38,6 km/h (5 Bft) 95,65 %
08.05.2016 15:33 20,7 C 50 % 1011,9 hPa 0,0 l/m 26,2 km/h (4 Bft) NO 44 1 min 0,000 mm 3,1 UV-I 704 W/m 9,9 C 16,2 C 33,8 km/h (5 Bft) 91,67 %
08.05.2016 15:34 20,7 C 51 % 1011,8 hPa 0,0 l/m 24,0 km/h (4 Bft) O-NO 69 1 min 0,000 mm 3,1 UV-I 703 W/m 10,2 C 16,5 C 33,8 km/h (5 Bft) 96,15 %
08.05.2016 15:35 20,7 C 50 % 1011,9 hPa 0,0 l/m 32,7 km/h (5 Bft) N-NO 25 1 min 0,000 mm 3,1 UV-I 700 W/m 9,9 C 15,4 C 45,1 km/h (6 Bft) 100,00 %
08.05.2016 15:36 20,6 C 52 % 1011,8 hPa 0,0 l/m 31,5 km/h (5 Bft) O-NO 67 1 min 0,000 mm 3,0 UV-I 698 W/m 10,4 C 15,4 C 41,8 km/h (6 Bft) 95,83 %
08.05.2016 15:37 20,6 C 50 % 1011,8 hPa 0,0 l/m 30,5 km/h (5 Bft) NO 40 1 min 0,000 mm 3,0 UV-I 694 W/m 9,8 C 15,5 C 40,2 km/h (6 Bft) 95,65 %
08.05.2016 15:38 20,6 C 51 % 1011,8 hPa 0,0 l/m 20,7 km/h (4 Bft) O-NO 59 1 min 0,000 mm 3,0 UV-I 692 W/m 10,1 C 16,9 C 27,4 km/h (4 Bft) 95,83 %
08.05.2016 15:39 20,6 C 51 % 1011,9 hPa 0,0 l/m 29,8 km/h (5 Bft) N-NO 30 1 min 0,000 mm 3,0 UV-I 692 W/m 10,1 C 15,6 C 41,8 km/h (6 Bft) 100,00 %
08.05.2016 15:40 20,6 C 51 % 1011,9 hPa 0,0 l/m 21,7 km/h (4 Bft) NO 38 1 min 0,000 mm 3,0 UV-I 693 W/m 10,1 C 16,7 C 35,4 km/h (5 Bft) 95,83 %
08.05.2016 15:41 20,6 C 52 % 1011,9 hPa 0,0 l/m 23,1 km/h (4 Bft) NO 40 1 min 0,000 mm 2,9 UV-I 691 W/m 10,4 C 16,5 C 37,0 km/h (5 Bft) 100,00 %
08.05.2016 15:42 20,6 C 52 % 1011,9 hPa 0,0 l/m 19,2 km/h (3 Bft) N-NO 31 1 min 0,000 mm 2,9 UV-I 687 W/m 10,4 C 17,1 C 32,2 km/h (5 Bft) 95,83 %
08.05.2016 15:43 20,6 C 51 % 1011,9 hPa 0,0 l/m 24,1 km/h (4 Bft) O-NO 76 1 min 0,000 mm 2,9 UV-I 683 W/m 10,1 C 16,3 C 35,4 km/h (5 Bft) 95,65 %
08.05.2016 15:44 20,6 C 49 % 1011,9 hPa 0,0 l/m 30,2 km/h (5 Bft) NO 51 1 min 0,000 mm 2,9 UV-I 681 W/m 9,5 C 15,5 C 40,2 km/h (6 Bft) 100,00 %
08.05.2016 15:45 20,6 C 51 % 1011,9 hPa 0,0 l/m 24,3 km/h (4 Bft) NO 55 1 min 0,000 mm 2,8 UV-I 680 W/m 10,1 C 16,3 C 38,6 km/h (5 Bft) 95,65 %
08.05.2016 15:46 20,6 C 50 % 1011,9 hPa 0,0 l/m 26,1 km/h (4 Bft) O 85 1 min 0,000 mm 2,8 UV-I 679 W/m 9,8 C 16,0 C 35,4 km/h (5 Bft) 100,00 %
08.05.2016 15:47 20,6 C 50 % 1011,9 hPa 0,0 l/m 27,5 km/h (4 Bft) NO 55 1 min 0,000 mm 2,8 UV-I 678 W/m 9,8 C 15,9 C 48,3 km/h (6 Bft) 95,65 %
08.05.2016 15:48 20,6 C 50 % 1012,0 hPa 0,0 l/m 35,5 km/h (5 Bft) O-NO 78 1 min 0,000 mm 2,8 UV-I 675 W/m 9,8 C 15,0 C 43,5 km/h (6 Bft) 100,00 %
08.05.2016 15:49 20,5 C 48 % 1011,9 hPa 0,0 l/m 30,6 km/h (5 Bft) O-NO 67 1 min 0,000 mm 2,8 UV-I 675 W/m 9,1 C 15,4 C 43,5 km/h (6 Bft) 96,15 %
08.05.2016 15:50 20,4 C 48 % 1011,9 hPa 0,0 l/m 32,1 km/h (5 Bft) O-NO 58 1 min 0,000 mm 2,8 UV-I 672 W/m 9,0 C 15,0 C 43,5 km/h (6 Bft) 95,83 %
08.05.2016 15:51 20,4 C 49 % 1011,9 hPa 0,0 l/m 30,9 km/h (5 Bft) O-NO 65 1 min 0,000 mm 2,8 UV-I 671 W/m 9,3 C 15,2 C 43,5 km/h (6 Bft) 95,65 %
08.05.2016 15:52 20,3 C 49 % 1011,9 hPa 0,0 l/m 29,8 km/h (5 Bft) NO 55 1 min 0,000 mm 2,7 UV-I 670 W/m 9,2 C 15,2 C 43,5 km/h (6 Bft) 95,83 %
08.05.2016 15:53 20,3 C 49 % 1011,9 hPa 0,0 l/m 29,6 km/h (5 Bft) O 93 1 min 0,000 mm 2,7 UV-I 666 W/m 9,2 C 15,2 C 37,0 km/h (5 Bft) 100,00 %
08.05.2016 15:54 20,3 C 49 % 1011,9 hPa 0,0 l/m 23,3 km/h (4 Bft) O-NO 73 1 min 0,000 mm 2,7 UV-I 662 W/m 9,2 C 16,0 C 29,0 km/h (5 Bft) 93,75 %
08.05.2016 15:55 20,3 C 50 % 1011,9 hPa 0,0 l/m 26,3 km/h (4 Bft) NO 41 1 min 0,000 mm 2,7 UV-I 659 W/m 9,5 C 15,6 C 37,0 km/h (5 Bft) 95,83 %
08.05.2016 15:56 20,4 C 49 % 1011,9 hPa 0,0 l/m 32,1 km/h (5 Bft) O-NO 69 1 min 0,000 mm 2,6 UV-I 657 W/m 9,3 C 15,0 C 38,6 km/h (5 Bft) 91,30 %
08.05.2016 15:57 20,3 C 49 % 1011,9 hPa 0,0 l/m 30,3 km/h (5 Bft) NO 55 1 min 0,000 mm 2,6 UV-I 656 W/m 9,2 C 15,1 C 41,8 km/h (6 Bft) 100,00 %
08.05.2016 15:58 20,3 C 47 % 1011,9 hPa 0,0 l/m 35,9 km/h (5 Bft) O-NO 61 1 min 0,000 mm 2,6 UV-I 653 W/m 8,6 C 14,5 C 48,3 km/h (6 Bft) 95,65 %
08.05.2016 15:59 20,3 C 48 % 1011,9 hPa 0,0 l/m 26,5 km/h (4 Bft) NO 50 1 min 0,000 mm 2,6 UV-I 651 W/m 8,9 C 15,6 C 37,0 km/h (5 Bft) 100,00 %
08.05.2016 16:00 20,3 C 48 % 1011,9 hPa 0,0 l/m 26,7 km/h (4 Bft) O-NO 71 1 min 0,000 mm 2,6 UV-I 651 W/m 8,9 C 15,6 C 35,4 km/h (5 Bft) 86,96 %
08.05.2016 16:01 20,3 C 49 % 1011,9 hPa 0,0 l/m 30,7 km/h (5 Bft) O-NO 63 1 min 0,584 mm 2,6 UV-I 649 W/m 9,2 C 15,1 C 38,6 km/h (5 Bft) 95,83 %
08.05.2016 16:02 20,3 C 48 % 1011,9 hPa 0,0 l/m 33,9 km/h (5 Bft) NO 53 1 min 0,000 mm 2,5 UV-I 646 W/m 8,9 C 14,7 C 43,5 km/h (6 Bft) 100,00 %
08.05.2016 16:03 20,3 C 48 % 1011,8 hPa 0,0 l/m 32,5 km/h (5 Bft) NO 56 1 min 0,000 mm 2,5 UV-I 642 W/m 8,9 C 14,9 C 40,2 km/h (6 Bft) 100,00 %
08.05.2016 16:04 20,3 C 48 % 1011,8 hPa 0,0 l/m 31,4 km/h (5 Bft) O-NO 67 1 min 0,000 mm 2,5 UV-I 641 W/m 8,9 C 15,0 C 41,8 km/h (6 Bft) 95,65 %
08.05.2016 16:05 20,3 C 47 % 1011,9 hPa 0,0 l/m 26,9 km/h (4 Bft) NO 46 1 min 0,000 mm 2,5 UV-I 636 W/m 8,6 C 15,5 C 40,2 km/h (6 Bft) 91,67 %
08.05.2016 16:06 20,3 C 48 % 1011,9 hPa 0,0 l/m 31,4 km/h (5 Bft) O-NO 67 1 min 0,000 mm 2,5 UV-I 634 W/m 8,9 C 15,0 C 37,0 km/h (5 Bft) 100,00 %
08.05.2016 16:07 20,3 C 48 % 1011,9 hPa 0,0 l/m 32,9 km/h (5 Bft) NO 54 1 min 0,000 mm 2,4 UV-I 633 W/m 8,9 C 14,8 C 43,5 km/h (6 Bft) 100,00 %
08.05.2016 16:08 20,3 C 49 % 1011,9 hPa 0,0 l/m 22,3 km/h (4 Bft) NO 46 1 min 0,000 mm 2,4 UV-I 630 W/m 9,2 C 16,2 C 29,0 km/h (5 Bft) 100,00 %
08.05.2016 16:09 20,3 C 49 % 1011,9 hPa 0,0 l/m 29,2 km/h (5 Bft) NO 53 1 min 0,000 mm 2,4 UV-I 628 W/m 9,2 C 15,2 C 40,2 km/h (6 Bft) 100,00 %
08.05.2016 16:10 20,3 C 48 % 1011,8 hPa 0,0 l/m 35,8 km/h (5 Bft) O-NO 67 1 min 0,000 mm 2,4 UV-I 627 W/m 8,9 C 14,5 C 41,8 km/h (6 Bft) 100,00 %
08.05.2016 16:11 20,3 C 48 % 1011,9 hPa 0,0 l/m 32,9 km/h (5 Bft) O 81 1 min 0,000 mm 2,4 UV-I 622 W/m 8,9 C 14,8 C 43,5 km/h (6 Bft) 100,00 %
08.05.2016 16:12 20,2 C 48 % 1011,9 hPa 0,0 l/m 27,7 km/h (4 Bft) O-NO 67 1 min 0,000 mm 2,3 UV-I 620 W/m 8,8 C 15,3 C 41,8 km/h (6 Bft) 100,00 %
08.05.2016 16:13 20,2 C 49 % 1011,9 hPa 0,0 l/m 33,0 km/h (5 Bft) O-NO 62 1 min 0,000 mm 2,3 UV-I 619 W/m 9,1 C 14,7 C 40,2 km/h (6 Bft) 100,00 %
08.05.2016 16:14 20,2 C 48 % 1011,9 hPa 0,0 l/m 32,9 km/h (5 Bft) O-NO 73 1 min 0,000 mm 2,3 UV-I 617 W/m 8,8 C 14,7 C 41,8 km/h (6 Bft) 100,00 %
08.05.2016 16:15 20,3 C 48 % 1012,0 hPa 0,0 l/m 31,3 km/h (5 Bft) O-NO 78 1 min 0,000 mm 2,3 UV-I 615 W/m 8,9 C 15,0 C 37,0 km/h (5 Bft) 100,00 %
08.05.2016 16:16 20,2 C 47 % 1011,9 hPa 0,0 l/m 26,8 km/h (4 Bft) O-NO 63 1 min 0,000 mm 2,3 UV-I 613 W/m 8,5 C 15,4 C 35,4 km/h (5 Bft) 100,00 %
08.05.2016 16:17 20,2 C 48 % 1012,0 hPa 0,0 l/m 25,4 km/h (4 Bft) O-NO 67 1 min 0,000 mm 2,3 UV-I 611 W/m 8,8 C 15,6 C 33,8 km/h (5 Bft) 100,00 %
08.05.2016 16:18 20,3 C 48 % 1012,0 hPa 0,0 l/m 25,7 km/h (4 Bft) O-NO 60 1 min 0,000 mm 2,2 UV-I 609 W/m 8,9 C 15,7 C 33,8 km/h (5 Bft) 100,00 %
08.05.2016 16:19 20,3 C 48 % 1012,0 hPa 0,0 l/m 23,7 km/h (4 Bft) O 88 1 min 0,000 mm 2,2 UV-I 608 W/m 8,9 C 16,0 C 35,4 km/h (5 Bft) 95,83 %
08.05.2016 16:20 20,3 C 49 % 1012,0 hPa 0,0 l/m 23,5 km/h (4 Bft) O-NO 71 1 min 0,000 mm 2,2 UV-I 606 W/m 9,2 C 16,0 C 29,0 km/h (5 Bft) 100,00 %
08.05.2016 16:21 20,3 C 49 % 1011,9 hPa 0,0 l/m 26,7 km/h (4 Bft) O-NO 67 1 min 0,000 mm 2,2 UV-I 603 W/m 9,2 C 15,6 C 32,2 km/h (5 Bft) 100,00 %
08.05.2016 16:22 20,4 C 50 % 1011,9 hPa 0,0 l/m 28,2 km/h (4 Bft) O-NO 58 1 min 0,000 mm 2,2 UV-I 599 W/m 9,6 C 15,5 C 37,0 km/h (5 Bft) 100,00 %
08.05.2016 16:23 20,4 C 49 % 1011,9 hPa 0,0 l/m 23,5 km/h (4 Bft) O-NO 73 1 min 0,000 mm 2,2 UV-I 597 W/m 9,3 C 16,1 C 32,2 km/h (5 Bft) 100,00 %
08.05.2016 16:24 20,4 C 48 % 1012,0 hPa 0,0 l/m 27,3 km/h (4 Bft) O-NO 62 1 min 0,000 mm 2,2 UV-I 595 W/m 9,0 C 15,6 C 43,5 km/h (6 Bft) 100,00 %
08.05.2016 16:25 20,4 C 47 % 1012,0 hPa 0,0 l/m 34,1 km/h (5 Bft) O-NO 73 1 min 0,000 mm 2,1 UV-I 592 W/m 8,7 C 14,8 C 46,7 km/h (6 Bft) 100,00 %
08.05.2016 16:26 20,4 C 46 % 1012,0 hPa 0,0 l/m 35,0 km/h (5 Bft) O-NO 61 1 min 0,000 mm 2,1 UV-I 589 W/m 8,4 C 14,8 C 43,5 km/h (6 Bft) 100,00 %
08.05.2016 16:27 20,4 C 47 % 1012,0 hPa 0,0 l/m 26,8 km/h (4 Bft) O-NO 74 1 min 0,000 mm 2,1 UV-I 585 W/m 8,7 C 15,7 C 37,0 km/h (5 Bft) 95,65 %
08.05.2016 16:28 20,4 C 48 % 1012,0 hPa 0,0 l/m 29,2 km/h (5 Bft) O-NO 64 1 min 0,000 mm 2,1 UV-I 586 W/m 9,0 C 15,4 C 38,6 km/h (5 Bft) 95,83 %
08.05.2016 16:29 20,4 C 47 % 1012,0 hPa 0,0 l/m 30,4 km/h (5 Bft) O-NO 66 1 min 0,000 mm 2,1 UV-I 584 W/m 8,7 C 15,2 C 43,5 km/h (6 Bft) 100,00 %
08.05.2016 16:30 20,3 C 48 % 1012,0 hPa 0,0 l/m 30,7 km/h (5 Bft) O-NO 67 1 min 0,000 mm 2,0 UV-I 581 W/m 8,9 C 15,1 C 38,6 km/h (5 Bft) 100,00 %
08.05.2016 16:31 20,3 C 48 % 1012,0 hPa 0,0 l/m 31,9 km/h (5 Bft) NO 39 1 min 0,000 mm 2,0 UV-I 579 W/m 8,9 C 14,9 C 45,1 km/h (6 Bft) 100,00 %
08.05.2016 16:32 20,3 C 48 % 1012,0 hPa 0,0 l/m 36,9 km/h (5 Bft) N-NO 23 1 min 0,000 mm 2,0 UV-I 576 W/m 8,9 C 14,4 C 45,1 km/h (6 Bft) 95,83 %
08.05.2016 16:33 20,3 C 47 % 1012,1 hPa 0,0 l/m 33,9 km/h (5 Bft) NO 55 1 min 0,000 mm 2,0 UV-I 573 W/m 8,6 C 14,7 C 43,5 km/h (6 Bft) 100,00 %
08.05.2016 16:34 20,3 C 47 % 1012,0 hPa 0,0 l/m 33,0 km/h (5 Bft) NO 51 1 min 0,000 mm 2,0 UV-I 570 W/m 8,6 C 14,8 C 41,8 km/h (6 Bft) 100,00 %
08.05.2016 16:35 20,3 C 47 % 1012,0 hPa 0,0 l/m 28,0 km/h (4 Bft) O-NO 66 1 min 0,000 mm 1,9 UV-I 567 W/m 8,6 C 15,4 C 37,0 km/h (5 Bft) 100,00 %
08.05.2016 16:36 20,3 C 48 % 1012,1 hPa 0,0 l/m 24,5 km/h (4 Bft) NO 42 1 min 0,000 mm 1,9 UV-I 565 W/m 8,9 C 15,9 C 33,8 km/h (5 Bft) 95,83 %
08.05.2016 16:37 20,3 C 47 % 1012,1 hPa 0,0 l/m 33,2 km/h (5 Bft) O-NO 76 1 min 0,000 mm 1,9 UV-I 562 W/m 8,6 C 14,8 C 40,2 km/h (6 Bft) 100,00 %
08.05.2016 16:38 20,3 C 47 % 1012,1 hPa 0,0 l/m 31,6 km/h (5 Bft) NO 49 1 min 0,000 mm 1,9 UV-I 559 W/m 8,6 C 15,0 C 40,2 km/h (6 Bft) 100,00 %
08.05.2016 16:39 20,3 C 47 % 1012,0 hPa 0,0 l/m 32,2 km/h (5 Bft) NO 53 1 min 0,000 mm 1,9 UV-I 555 W/m 8,6 C 14,9 C 38,6 km/h (5 Bft) 100,00 %
08.05.2016 16:40 20,3 C 48 % 1012,1 hPa 0,0 l/m 26,2 km/h (4 Bft) NO 46 1 min 0,000 mm 1,9 UV-I 554 W/m 8,9 C 15,6 C 38,6 km/h (5 Bft) 100,00 %
08.05.2016 16:41 20,3 C 49 % 1012,0 hPa 0,0 l/m 24,1 km/h (4 Bft) O-NO 65 1 min 0,000 mm 1,8 UV-I 552 W/m 9,2 C 15,9 C 33,8 km/h (5 Bft) 100,00 %
08.05.2016 16:42 20,3 C 48 % 1012,1 hPa 0,0 l/m 31,0 km/h (5 Bft) NO 53 1 min 0,000 mm 1,8 UV-I 548 W/m 8,9 C 15,0 C 40,2 km/h (6 Bft) 100,00 %
08.05.2016 16:43 20,3 C 48 % 1012,0 hPa 0,0 l/m 30,3 km/h (5 Bft) NO 46 1 min 0,000 mm 1,8 UV-I 542 W/m 8,9 C 15,1 C 41,8 km/h (6 Bft) 100,00 %
08.05.2016 16:44 20,3 C 49 % 1012,0 hPa 0,0 l/m 26,7 km/h (4 Bft) NO 36 1 min 0,000 mm 1,8 UV-I 540 W/m 9,2 C 15,6 C 35,4 km/h (5 Bft) 100,00 %
08.05.2016 16:45 20,3 C 49 % 1012,1 hPa 0,0 l/m 24,3 km/h (4 Bft) O-NO 61 1 min 0,000 mm 1,7 UV-I 537 W/m 9,2 C 15,9 C 33,8 km/h (5 Bft) 100,00 %
08.05.2016 16:46 20,3 C 50 % 1012,1 hPa 0,0 l/m 25,4 km/h (4 Bft) O-NO 75 1 min 0,000 mm 1,7 UV-I 534 W/m 9,5 C 15,7 C 30,6 km/h (5 Bft) 100,00 %
08.05.2016 16:47 20,3 C 49 % 1012,1 hPa 0,0 l/m 31,1 km/h (5 Bft) O-NO 73 1 min 0,000 mm 1,7 UV-I 531 W/m 9,2 C 15,0 C 40,2 km/h (6 Bft) 100,00 %
08.05.2016 16:48 20,3 C 49 % 1012,1 hPa 0,0 l/m 25,4 km/h (4 Bft) O-NO 62 1 min 0,000 mm 1,7 UV-I 529 W/m 9,2 C 15,7 C 33,8 km/h (5 Bft) 95,65 %
08.05.2016 16:49 20,3 C 49 % 1012,1 hPa 0,0 l/m 27,4 km/h (4 Bft) O-NO 74 1 min 0,000 mm 1,7 UV-I 525 W/m 9,2 C 15,5 C 40,2 km/h (6 Bft) 100,00 %
08.05.2016 16:50 20,3 C 48 % 1012,1 hPa 0,0 l/m 31,6 km/h (5 Bft) O-NO 67 1 min 0,000 mm 1,7 UV-I 524 W/m 8,9 C 15,0 C 43,5 km/h (6 Bft) 100,00 %
08.05.2016 16:51 20,2 C 48 % 1012,1 hPa 0,0 l/m 30,3 km/h (5 Bft) O 84 1 min 0,000 mm 1,7 UV-I 523 W/m 8,8 C 15,0 C 41,8 km/h (6 Bft) 100,00 %
08.05.2016 16:52 20,2 C 48 % 1012,1 hPa 0,0 l/m 24,7 km/h (4 Bft) NO 44 1 min 0,000 mm 1,6 UV-I 520 W/m 8,8 C 15,7 C 35,4 km/h (5 Bft) 100,00 %
08.05.2016 16:53 20,2 C 50 % 1012,1 hPa 0,0 l/m 33,3 km/h (5 Bft) NO 38 1 min 0,000 mm 1,6 UV-I 517 W/m 9,4 C 14,6 C 41,8 km/h (6 Bft) 100,00 %
08.05.2016 16:54 20,2 C 48 % 1012,1 hPa 0,0 l/m 24,9 km/h (4 Bft) NO 55 1 min 0,000 mm 1,6 UV-I 515 W/m 8,8 C 15,7 C 35,4 km/h (5 Bft) 100,00 %
08.05.2016 16:55 20,2 C 48 % 1012,1 hPa 0,0 l/m 30,9 km/h (5 Bft) NO 49 1 min 0,000 mm 1,6 UV-I 513 W/m 8,8 C 14,9 C 40,2 km/h (6 Bft) 96,15 %
08.05.2016 16:56 20,2 C 47 % 1012,1 hPa 0,0 l/m 25,6 km/h (4 Bft) O-NO 77 1 min 0,000 mm 1,6 UV-I 513 W/m 8,5 C 15,6 C 33,8 km/h (5 Bft) 100,00 %
08.05.2016 16:57 20,2 C 48 % 1012,1 hPa 0,0 l/m 27,4 km/h (4 Bft) NO 42 1 min 0,000 mm 1,6 UV-I 508 W/m 8,8 C 15,3 C 40,2 km/h (6 Bft) 100,00 %
08.05.2016 16:58 20,2 C 47 % 1012,1 hPa 0,0 l/m 39,1 km/h (6 Bft) O 85 1 min 0,000 mm 1,6 UV-I 506 W/m 8,5 C 14,1 C 48,3 km/h (6 Bft) 100,00 %
08.05.2016 16:59 20,2 C 46 % 1012,0 hPa 0,0 l/m 35,5 km/h (5 Bft) NO 55 1 min 0,000 mm 1,5 UV-I 502 W/m 8,2 C 14,4 C 45,1 km/h (6 Bft) 95,65 %
08.05.2016 17:00 20,2 C 46 % 1012,1 hPa 0,0 l/m 32,0 km/h (5 Bft) O-NO 75 1 min 0,533 mm 1,5 UV-I 497 W/m 8,2 C 14,8 C 48,3 km/h (6 Bft) 100,00 %
08.05.2016 17:01 20,1 C 47 % 1012,1 hPa 0,0 l/m 29,2 km/h (5 Bft) O-NO 67 1 min 0,000 mm 1,5 UV-I 496 W/m 8,4 C 15,0 C 37,0 km/h (5 Bft) 100,00 %
08.05.2016 17:02 20,1 C 48 % 1012,1 hPa 0,0 l/m 25,5 km/h (4 Bft) O 98 1 min 0,000 mm 1,5 UV-I 494 W/m 8,7 C 15,4 C 38,6 km/h (5 Bft) 100,00 %
08.05.2016 17:03 20,1 C 47 % 1012,1 hPa 0,0 l/m 26,4 km/h (4 Bft) N-NO 31 1 min 0,000 mm 1,5 UV-I 492 W/m 8,4 C 15,3 C 33,8 km/h (5 Bft) 100,00 %
08.05.2016 17:04 20,1 C 47 % 1012,1 hPa 0,0 l/m 31,9 km/h (5 Bft) O-NO 74 1 min 0,000 mm 1,5 UV-I 490 W/m 8,4 C 14,6 C 41,8 km/h (6 Bft) 100,00 %
08.05.2016 17:05 20,1 C 47 % 1012,1 hPa 0,0 l/m 25,8 km/h (4 Bft) O-NO 67 1 min 0,000 mm 1,4 UV-I 488 W/m 8,4 C 15,4 C 35,4 km/h (5 Bft) 95,65 %
08.05.2016 17:06 20,1 C 48 % 1012,0 hPa 0,0 l/m 26,2 km/h (4 Bft) O-NO 71 1 min 0,000 mm 1,4 UV-I 484 W/m 8,7 C 15,3 C 35,4 km/h (5 Bft) 100,00 %
08.05.2016 17:07 20,1 C 47 % 1012,1 hPa 0,0 l/m 29,6 km/h (5 Bft) NO 45 1 min 0,000 mm 1,4 UV-I 482 W/m 8,4 C 14,9 C 40,2 km/h (6 Bft) 100,00 %
08.05.2016 17:08 20,1 C 47 % 1012,1 hPa 0,0 l/m 28,9 km/h (5 Bft) NO 53 1 min 0,000 mm 1,4 UV-I 478 W/m 8,4 C 15,0 C 37,0 km/h (5 Bft) 100,00 %
08.05.2016 17:09 20,1 C 46 % 1012,1 hPa 0,0 l/m 30,6 km/h (5 Bft) O-NO 65 1 min 0,000 mm 1,4 UV-I 474 W/m 8,1 C 14,8 C 38,6 km/h (5 Bft) 100,00 %
08.05.2016 17:10 20,1 C 47 % 1012,1 hPa 0,0 l/m 21,6 km/h (4 Bft) O-NO 59 1 min 0,000 mm 1,4 UV-I 472 W/m 8,4 C 16,1 C 33,8 km/h (5 Bft) 100,00 %
08.05.2016 17:11 20,1 C 48 % 1012,2 hPa 0,0 l/m 29,3 km/h (5 Bft) O-NO 65 1 min 0,000 mm 1,3 UV-I 469 W/m 8,7 C 14,9 C 41,8 km/h (6 Bft) 100,00 %
08.05.2016 17:12 20,1 C 48 % 1012,1 hPa 0,0 l/m 21,6 km/h (4 Bft) NO 56 1 min 0,000 mm 1,3 UV-I 467 W/m 8,7 C 16,1 C 32,2 km/h (5 Bft) 100,00 %
08.05.2016 17:13 20,1 C 47 % 1012,2 hPa 0,0 l/m 26,6 km/h (4 Bft) NO 53 1 min 0,000 mm 1,3 UV-I 464 W/m 8,4 C 15,3 C 35,4 km/h (5 Bft) 100,00 %
08.05.2016 17:14 20,1 C 48 % 1012,1 hPa 0,0 l/m 23,7 km/h (4 Bft) NO 49 1 min 0,000 mm 1,3 UV-I 462 W/m 8,7 C 15,7 C 40,2 km/h (6 Bft) 100,00 %
08.05.2016 17:15 20,1 C 48 % 1012,1 hPa 0,0 l/m 30,8 km/h (5 Bft) O-NO 69 1 min 0,000 mm 1,3 UV-I 458 W/m 8,7 C 14,8 C 38,6 km/h (5 Bft) 100,00 %
08.05.2016 17:16 20,1 C 47 % 1012,2 hPa 0,0 l/m 32,3 km/h (5 Bft) O-NO 74 1 min 0,000 mm 1,3 UV-I 456 W/m 8,4 C 14,6 C 45,1 km/h (6 Bft) 96,15 %
08.05.2016 17:17 20,1 C 47 % 1012,2 hPa 0,0 l/m 29,8 km/h (5 Bft) O-NO 67 1 min 0,000 mm 1,3 UV-I 454 W/m 8,4 C 14,9 C 37,0 km/h (5 Bft) 100,00 %
08.05.2016 17:18 20,1 C 47 % 1012,1 hPa 0,0 l/m 21,2 km/h (4 Bft) N-NO 28 1 min 0,000 mm 1,3 UV-I 453 W/m 8,4 C 16,1 C 30,6 km/h (5 Bft) 95,65 %
08.05.2016 17:19 20,1 C 47 % 1012,2 hPa 0,0 l/m 23,4 km/h (4 Bft) O-NO 69 1 min 0,000 mm 1,2 UV-I 450 W/m 8,4 C 15,8 C 35,4 km/h (5 Bft) 100,00 %
08.05.2016 17:20 20,1 C 46 % 1012,2 hPa 0,0 l/m 29,4 km/h (5 Bft) O-NO 66 1 min 0,000 mm 1,2 UV-I 445 W/m 8,1 C 14,9 C 45,1 km/h (6 Bft) 100,00 %
08.05.2016 17:21 20,0 C 46 % 1012,2 hPa 0,0 l/m 24,1 km/h (4 Bft) NO 55 1 min 0,000 mm 1,2 UV-I 442 W/m 8,0 C 15,5 C 33,8 km/h (5 Bft) 100,00 %
08.05.2016 17:22 20,0 C 48 % 1012,2 hPa 0,0 l/m 25,9 km/h (4 Bft) N-NO 19 1 min 0,000 mm 1,2 UV-I 438 W/m 8,7 C 15,3 C 37,0 km/h (5 Bft) 100,00 %
08.05.2016 17:23 20,0 C 46 % 1012,1 hPa 0,0 l/m 29,9 km/h (5 Bft) NO 42 1 min 0,000 mm 1,2 UV-I 437 W/m 8,0 C 14,7 C 43,5 km/h (6 Bft) 95,83 %
08.05.2016 17:24 20,0 C 46 % 1012,1 hPa 0,0 l/m 29,5 km/h (5 Bft) O-NO 65 1 min 0,000 mm 1,2 UV-I 435 W/m 8,0 C 14,8 C 41,8 km/h (6 Bft) 100,00 %
08.05.2016 17:25 20,0 C 46 % 1012,2 hPa 0,0 l/m 31,8 km/h (5 Bft) O-NO 59 1 min 0,000 mm 1,2 UV-I 431 W/m 8,0 C 14,5 C 45,1 km/h (6 Bft) 95,83 %
08.05.2016 17:26 19,9 C 47 % 1012,2 hPa 0,0 l/m 28,6 km/h (4 Bft) O-NO 59 1 min 0,000 mm 1,1 UV-I 429 W/m 8,3 C 14,8 C 37,0 km/h (5 Bft) 100,00 %
08.05.2016 17:27 19,9 C 47 % 1012,1 hPa 0,0 l/m 27,0 km/h (4 Bft) NO 53 1 min 0,000 mm 1,1 UV-I 427 W/m 8,3 C 15,0 C 35,4 km/h (5 Bft) 91,67 %
08.05.2016 17:28 19,9 C 47 % 1012,1 hPa 0,0 l/m 23,1 km/h (4 Bft) NO 45 1 min 0,000 mm 1,1 UV-I 424 W/m 8,3 C 15,5 C 30,6 km/h (5 Bft) 100,00 %
08.05.2016 17:29 19,9 C 49 % 1012,1 hPa 0,0 l/m 21,0 km/h (4 Bft) NO 41 1 min 0,000 mm 1,1 UV-I 421 W/m 8,9 C 15,9 C 30,6 km/h (5 Bft) 95,83 %
08.05.2016 17:30 19,9 C 48 % 1012,1 hPa 0,0 l/m 22,5 km/h (4 Bft) NO 47 1 min 0,000 mm 1,1 UV-I 418 W/m 8,6 C 15,6 C 29,0 km/h (5 Bft) 100,00 %
08.05.2016 17:31 19,9 C 47 % 1012,1 hPa 0,0 l/m 26,5 km/h (4 Bft) O-NO 65 1 min 0,000 mm 1,1 UV-I 415 W/m 8,3 C 15,0 C 32,2 km/h (5 Bft) 95,83 %
08.05.2016 17:32 19,9 C 48 % 1012,1 hPa 0,0 l/m 22,1 km/h (4 Bft) O-NO 63 1 min 0,000 mm 1,1 UV-I 411 W/m 8,6 C 15,7 C 27,4 km/h (4 Bft) 100,00 %
08.05.2016 17:33 19,9 C 48 % 1012,1 hPa 0,0 l/m 26,9 km/h (4 Bft) NO 53 1 min 0,000 mm 1,0 UV-I 410 W/m 8,6 C 15,0 C 35,4 km/h (5 Bft) 95,83 %
08.05.2016 17:34 19,9 C 48 % 1012,1 hPa 0,0 l/m 27,9 km/h (4 Bft) NO 54 1 min 0,000 mm 1,0 UV-I 406 W/m 8,6 C 14,8 C 37,0 km/h (5 Bft) 100,00 %
08.05.2016 17:35 19,9 C 47 % 1012,1 hPa 0,0 l/m 28,6 km/h (4 Bft) O-NO 60 1 min 0,000 mm 1,0 UV-I 402 W/m 8,3 C 14,8 C 38,6 km/h (5 Bft) 97,37 %
08.05.2016 17:36 19,9 C 47 % 1012,1 hPa 0,0 l/m 32,9 km/h (5 Bft) NO 49 1 min 0,000 mm 1,0 UV-I 399 W/m 8,3 C 14,2 C 41,8 km/h (6 Bft) 95,65 %
08.05.2016 17:37 19,9 C 46 % 1012,1 hPa 0,0 l/m 29,4 km/h (5 Bft) O-NO 67 1 min 0,000 mm 1,0 UV-I 397 W/m 7,9 C 14,7 C 40,2 km/h (6 Bft) 100,00 %
08.05.2016 17:38 19,9 C 47 % 1012,1 hPa 0,0 l/m 27,7 km/h (4 Bft) NO 40 1 min 0,000 mm 1,0 UV-I 396 W/m 8,3 C 14,9 C 37,0 km/h (5 Bft) 95,83 %
08.05.2016 17:39 19,8 C 47 % 1012,1 hPa 0,0 l/m 29,0 km/h (5 Bft) O-NO 68 1 min 0,000 mm 1,0 UV-I 393 W/m 8,2 C 14,6 C 38,6 km/h (5 Bft) 100,00 %
08.05.2016 17:40 19,8 C 47 % 1012,1 hPa 0,0 l/m 30,0 km/h (5 Bft) O-NO 74 1 min 0,000 mm 1,0 UV-I 388 W/m 8,2 C 14,4 C 40,2 km/h (6 Bft) 95,83 %
08.05.2016 17:41 19,8 C 48 % 1012,1 hPa 0,0 l/m 28,2 km/h (4 Bft) NO 50 1 min 0,000 mm 0,9 UV-I 387 W/m 8,5 C 14,7 C 35,4 km/h (5 Bft) 91,30 %
08.05.2016 17:42 19,8 C 47 % 1012,1 hPa 0,0 l/m 32,7 km/h (5 Bft) O-NO 67 1 min 0,000 mm 0,9 UV-I 384 W/m 8,2 C 14,1 C 41,8 km/h (6 Bft) 95,83 %
08.05.2016 17:43 19,8 C 47 % 1012,1 hPa 0,0 l/m 33,2 km/h (5 Bft) NO 51 1 min 0,000 mm 0,9 UV-I 380 W/m 8,2 C 14,1 C 45,1 km/h (6 Bft) 95,65 %
08.05.2016 17:44 19,8 C 48 % 1012,1 hPa 0,0 l/m 29,6 km/h (5 Bft) O-NO 63 1 min 0,000 mm 0,9 UV-I 375 W/m 8,5 C 14,5 C 38,6 km/h (5 Bft) 100,00 %
08.05.2016 17:45 19,8 C 47 % 1012,1 hPa 0,0 l/m 27,4 km/h (4 Bft) O-NO 68 1 min 0,000 mm 0,9 UV-I 374 W/m 8,2 C 14,8 C 32,2 km/h (5 Bft) 95,65 %
08.05.2016 17:46 19,8 C 49 % 1012,1 hPa 0,0 l/m 26,3 km/h (4 Bft) O-NO 74 1 min 0,000 mm 0,9 UV-I 370 W/m 8,8 C 14,9 C 30,6 km/h (5 Bft) 100,00 %
08.05.2016 17:47 19,7 C 49 % 1012,1 hPa 0,0 l/m 23,9 km/h (4 Bft) O-NO 62 1 min 0,000 mm 0,9 UV-I 368 W/m 8,7 C 15,1 C 40,2 km/h (6 Bft) 95,65 %
08.05.2016 17:48 19,7 C 48 % 1012,1 hPa 0,0 l/m 25,7 km/h (4 Bft) NO 51 1 min 0,000 mm 0,8 UV-I 366 W/m 8,4 C 14,9 C 38,6 km/h (5 Bft) 100,00 %
08.05.2016 17:49 19,7 C 48 % 1012,1 hPa 0,0 l/m 24,1 km/h (4 Bft) N-NO 17 1 min 0,000 mm 0,8 UV-I 362 W/m 8,4 C 15,1 C 33,8 km/h (5 Bft) 95,65 %
08.05.2016 17:50 19,7 C 48 % 1012,1 hPa 0,0 l/m 23,6 km/h (4 Bft) O-NO 61 1 min 0,000 mm 0,8 UV-I 360 W/m 8,4 C 15,2 C 33,8 km/h (5 Bft) 100,00 %
08.05.2016 17:51 19,7 C 49 % 1012,1 hPa 0,0 l/m 30,1 km/h (5 Bft) O-NO 63 1 min 0,000 mm 0,8 UV-I 359 W/m 8,7 C 14,3 C 40,2 km/h (6 Bft) 96,30 %
08.05.2016 17:52 19,7 C 47 % 1012,1 hPa 0,0 l/m 32,6 km/h (5 Bft) O-NO 67 1 min 0,000 mm 0,8 UV-I 355 W/m 8,1 C 14,0 C 43,5 km/h (6 Bft) 95,83 %
08.05.2016 17:53 19,7 C 48 % 1012,1 hPa 0,0 l/m 24,6 km/h (4 Bft) NO 53 1 min 0,000 mm 0,8 UV-I 351 W/m 8,4 C 15,0 C 33,8 km/h (5 Bft) 100,00 %
08.05.2016 17:54 19,7 C 47 % 1012,1 hPa 0,0 l/m 28,3 km/h (4 Bft) O-NO 69 1 min 0,000 mm 0,8 UV-I 348 W/m 8,1 C 14,5 C 38,6 km/h (5 Bft) 96,30 %
08.05.2016 17:55 19,7 C 48 % 1012,1 hPa 0,0 l/m 25,5 km/h (4 Bft) O-NO 61 1 min 0,000 mm 0,8 UV-I 345 W/m 8,4 C 14,9 C 32,2 km/h (5 Bft) 100,00 %
08.05.2016 17:56 19,7 C 48 % 1012,1 hPa 0,0 l/m 22,2 km/h (4 Bft) NO 54 1 min 0,000 mm 0,8 UV-I 341 W/m 8,4 C 15,4 C 29,0 km/h (5 Bft) 100,00 %
08.05.2016 17:57 19,6 C 48 % 1012,1 hPa 0,0 l/m 27,8 km/h (4 Bft) O-NO 73 1 min 0,000 mm 0,7 UV-I 340 W/m 8,3 C 14,4 C 37,0 km/h (5 Bft) 100,00 %
08.05.2016 17:58 19,6 C 47 % 1012,0 hPa 0,0 l/m 34,7 km/h (5 Bft) O 87 1 min 0,000 mm 0,7 UV-I 338 W/m 8,0 C 13,6 C 45,1 km/h (6 Bft) 100,00 %
08.05.2016 17:59 19,6 C 47 % 1012,0 hPa 0,0 l/m 26,6 km/h (4 Bft) NO 42 1 min 0,000 mm 0,7 UV-I 335 W/m 8,0 C 14,6 C 35,4 km/h (5 Bft) 100,00 %
08.05.2016 18:00 19,6 C 47 % 1012,1 hPa 0,0 l/m 30,1 km/h (5 Bft) NO 54 1 min 0,000 mm 0,7 UV-I 331 W/m 8,0 C 14,1 C 38,6 km/h (5 Bft) 100,00 %
08.05.2016 18:01 19,6 C 47 % 1012,0 hPa 0,0 l/m 28,8 km/h (4 Bft) NO 55 1 min 0,432 mm 0,7 UV-I 328 W/m 8,0 C 14,3 C 35,4 km/h (5 Bft) 96,67 %
08.05.2016 18:02 19,6 C 48 % 1012,1 hPa 0,0 l/m 31,5 km/h (5 Bft) NO 55 1 min 0,000 mm 0,7 UV-I 325 W/m 8,3 C 14,0 C 38,6 km/h (5 Bft) 100,00 %
08.05.2016 18:03 19,6 C 47 % 1012,1 hPa 0,0 l/m 25,9 km/h (4 Bft) O-NO 57 1 min 0,000 mm 0,7 UV-I 324 W/m 8,0 C 14,7 C 35,4 km/h (5 Bft) 100,00 %
08.05.2016 18:04 19,6 C 49 % 1012,0 hPa 0,0 l/m 21,3 km/h (4 Bft) NO 49 1 min 0,000 mm 0,7 UV-I 321 W/m 8,6 C 15,4 C 29,0 km/h (5 Bft) 100,00 %
08.05.2016 18:05 19,6 C 49 % 1012,1 hPa 0,0 l/m 27,9 km/h (4 Bft) O-NO 58 1 min 0,000 mm 0,7 UV-I 317 W/m 8,6 C 14,4 C 41,8 km/h (6 Bft) 100,00 %
08.05.2016 18:06 19,6 C 48 % 1012,0 hPa 0,0 l/m 28,3 km/h (4 Bft) NO 34 1 min 0,000 mm 0,6 UV-I 315 W/m 8,3 C 14,4 C 41,8 km/h (6 Bft) 96,15 %
08.05.2016 18:07 19,6 C 48 % 1012,1 hPa 0,0 l/m 22,7 km/h (4 Bft) O-NO 57 1 min 0,000 mm 0,6 UV-I 310 W/m 8,3 C 15,2 C 30,6 km/h (5 Bft) 100,00 %
08.05.2016 18:08 19,6 C 49 % 1012,0 hPa 0,0 l/m 20,4 km/h (4 Bft) O-NO 75 1 min 0,000 mm 0,6 UV-I 307 W/m 8,6 C 15,6 C 33,8 km/h (5 Bft) 100,00 %
08.05.2016 18:09 19,6 C 49 % 1012,1 hPa 0,0 l/m 27,3 km/h (4 Bft) O-NO 57 1 min 0,000 mm 0,6 UV-I 304 W/m 8,6 C 14,5 C 37,0 km/h (5 Bft) 100,00 %
08.05.2016 18:10 19,6 C 48 % 1012,1 hPa 0,0 l/m 26,4 km/h (4 Bft) O-NO 62 1 min 0,000 mm 0,6 UV-I 301 W/m 8,3 C 14,6 C 37,0 km/h (5 Bft) 100,00 %
08.05.2016 18:11 19,5 C 49 % 1012,1 hPa 0,0 l/m 29,0 km/h (5 Bft) NO 45 1 min 0,000 mm 0,6 UV-I 298 W/m 8,5 C 14,1 C 46,7 km/h (6 Bft) 100,00 %
08.05.2016 18:12 19,4 C 48 % 1012,0 hPa 0,0 l/m 31,0 km/h (5 Bft) O-NO 65 1 min 0,000 mm 0,6 UV-I 294 W/m 8,1 C 13,8 C 37,0 km/h (5 Bft) 100,00 %
08.05.2016 18:13 19,4 C 48 % 1012,0 hPa 0,0 l/m 28,4 km/h (4 Bft) O-NO 60 1 min 0,000 mm 0,6 UV-I 293 W/m 8,1 C 14,1 C 40,2 km/h (6 Bft) 95,83 %
08.05.2016 18:14 19,4 C 48 % 1012,1 hPa 0,0 l/m 25,7 km/h (4 Bft) NO 45 1 min 0,000 mm 0,6 UV-I 289 W/m 8,1 C 14,5 C 33,8 km/h (5 Bft) 100,00 %
08.05.2016 18:15 19,4 C 49 % 1012,0 hPa 0,0 l/m 31,9 km/h (5 Bft) NO 48 1 min 0,000 mm 0,5 UV-I 286 W/m 8,4 C 13,6 C 45,1 km/h (6 Bft) 100,00 %
08.05.2016 18:16 19,4 C 48 % 1012,1 hPa 0,0 l/m 29,2 km/h (5 Bft) O-NO 58 1 min 0,000 mm 0,5 UV-I 284 W/m 8,1 C 14,0 C 45,1 km/h (6 Bft) 100,00 %
08.05.2016 18:17 19,3 C 47 % 1012,1 hPa 0,0 l/m 30,0 km/h (5 Bft) NO 50 1 min 0,000 mm 0,5 UV-I 282 W/m 7,7 C 13,7 C 45,1 km/h (6 Bft) 100,00 %
08.05.2016 18:18 19,3 C 48 % 1012,1 hPa 0,0 l/m 29,1 km/h (5 Bft) NO 34 1 min 0,000 mm 0,5 UV-I 278 W/m 8,0 C 13,9 C 41,8 km/h (6 Bft) 100,00 %
08.05.2016 18:19 19,3 C 47 % 1012,1 hPa 0,0 l/m 26,2 km/h (4 Bft) O-NO 64 1 min 0,000 mm 0,5 UV-I 274 W/m 7,7 C 14,3 C 37,0 km/h (5 Bft) 100,00 %
08.05.2016 18:20 19,3 C 47 % 1012,1 hPa 0,0 l/m 28,0 km/h (4 Bft) O-NO 69 1 min 0,000 mm 0,5 UV-I 272 W/m 7,7 C 14,0 C 33,8 km/h (5 Bft) 100,00 %
08.05.2016 18:21 19,3 C 48 % 1012,2 hPa 0,0 l/m 32,1 km/h (5 Bft) O 86 1 min 0,000 mm 0,5 UV-I 270 W/m 8,0 C 13,5 C 46,7 km/h (6 Bft) 95,65 %
08.05.2016 18:22 19,3 C 48 % 1012,1 hPa 0,0 l/m 28,0 km/h (4 Bft) NO 53 1 min 0,000 mm 0,5 UV-I 266 W/m 8,0 C 14,0 C 38,6 km/h (5 Bft) 100,00 %
08.05.2016 18:23 19,3 C 47 % 1012,2 hPa 0,0 l/m 27,6 km/h (4 Bft) NO 50 1 min 0,000 mm 0,5 UV-I 264 W/m 7,7 C 14,1 C 37,0 km/h (5 Bft) 100,00 %
08.05.2016 18:24 19,3 C 47 % 1012,2 hPa 0,0 l/m 25,7 km/h (4 Bft) O-NO 63 1 min 0,000 mm 0,5 UV-I 260 W/m 7,7 C 14,3 C 38,6 km/h (5 Bft) 100,00 %
08.05.2016 18:25 19,3 C 48 % 1012,2 hPa 0,0 l/m 21,9 km/h (4 Bft) O-NO 63 1 min 0,000 mm 0,0 UV-I 257 W/m 8,0 C 14,9 C 30,6 km/h (5 Bft) 100,00 %
08.05.2016 18:26 19,3 C 47 % 1012,2 hPa 0,0 l/m 25,9 km/h (4 Bft) NO 50 1 min 0,000 mm 0,0 UV-I 254 W/m 7,7 C 14,3 C 35,4 km/h (5 Bft) 100,00 %
08.05.2016 18:27 19,2 C 47 % 1012,2 hPa 0,0 l/m 27,1 km/h (4 Bft) O-NO 61 1 min 0,000 mm 0,0 UV-I 252 W/m 7,6 C 14,0 C 35,4 km/h (5 Bft) 100,00 %
08.05.2016 18:28 19,2 C 47 % 1012,2 hPa 0,0 l/m 27,4 km/h (4 Bft) O-NO 70 1 min 0,000 mm 0,0 UV-I 249 W/m 7,6 C 13,9 C 33,8 km/h (5 Bft) 100,00 %
08.05.2016 18:29 19,2 C 48 % 1012,2 hPa 0,0 l/m 26,6 km/h (4 Bft) O-NO 67 1 min 0,000 mm 0,0 UV-I 246 W/m 7,9 C 14,1 C 35,4 km/h (5 Bft) 95,65 %
08.05.2016 18:30 19,2 C 47 % 1012,2 hPa 0,0 l/m 27,2 km/h (4 Bft) NO 55 1 min 0,000 mm 0,0 UV-I 244 W/m 7,6 C 14,0 C 38,6 km/h (5 Bft) 100,00 %
08.05.2016 18:31 19,2 C 48 % 1012,2 hPa 0,0 l/m 20,5 km/h (4 Bft) O-NO 68 1 min 0,000 mm 0,0 UV-I 241 W/m 7,9 C 15,1 C 33,8 km/h (5 Bft) 95,65 %
08.05.2016 18:32 19,2 C 48 % 1012,2 hPa 0,0 l/m 30,1 km/h (5 Bft) O 97 1 min 0,000 mm 0,0 UV-I 238 W/m 7,9 C 13,6 C 38,6 km/h (5 Bft) 100,00 %
08.05.2016 18:33 19,2 C 48 % 1012,1 hPa 0,0 l/m 27,4 km/h (4 Bft) NO 46 1 min 0,000 mm 0,0 UV-I 234 W/m 7,9 C 13,9 C 33,8 km/h (5 Bft) 100,00 %
08.05.2016 18:34 19,2 C 48 % 1012,2 hPa 0,0 l/m 29,8 km/h (5 Bft) O-NO 69 1 min 0,000 mm 0,0 UV-I 231 W/m 7,9 C 13,6 C 38,6 km/h (5 Bft) 95,65 %
08.05.2016 18:35 19,2 C 48 % 1012,2 hPa 0,0 l/m 26,3 km/h (4 Bft) O-NO 64 1 min 0,000 mm 0,0 UV-I 228 W/m 7,9 C 14,1 C 33,8 km/h (5 Bft) 95,83 %
08.05.2016 18:36 19,1 C 48 % 1012,2 hPa 0,0 l/m 20,7 km/h (4 Bft) O-NO 59 1 min 0,000 mm 0,0 UV-I 223 W/m 7,8 C 14,9 C 25,7 km/h (4 Bft) 100,00 %
08.05.2016 18:37 19,1 C 49 % 1012,2 hPa 0,0 l/m 20,4 km/h (4 Bft) O-NO 64 1 min 0,000 mm 0,0 UV-I 219 W/m 8,1 C 15,0 C 38,6 km/h (5 Bft) 100,00 %
08.05.2016 18:38 19,1 C 49 % 1012,2 hPa 0,0 l/m 28,1 km/h (4 Bft) O-NO 57 1 min 0,000 mm 0,0 UV-I 216 W/m 8,1 C 13,7 C 37,0 km/h (5 Bft) 100,00 %
08.05.2016 18:39 19,1 C 48 % 1012,2 hPa 0,0 l/m 29,9 km/h (5 Bft) NO 45 1 min 0,000 mm 0,0 UV-I 213 W/m 7,8 C 13,5 C 35,4 km/h (5 Bft) 100,00 %
08.05.2016 18:40 19,1 C 48 % 1012,1 hPa 0,0 l/m 31,2 km/h (5 Bft) NO 44 1 min 0,000 mm 0,0 UV-I 212 W/m 7,8 C 13,3 C 40,2 km/h (6 Bft) 95,65 %
08.05.2016 18:41 19,0 C 48 % 1012,1 hPa 0,0 l/m 25,7 km/h (4 Bft) NO 40 1 min 0,000 mm 0,0 UV-I 209 W/m 7,7 C 13,9 C 38,6 km/h (5 Bft) 100,00 %
08.05.2016 18:42 19,0 C 48 % 1012,2 hPa 0,0 l/m 27,9 km/h (4 Bft) O-NO 64 1 min 0,000 mm 0,0 UV-I 207 W/m 7,7 C 13,6 C 40,2 km/h (6 Bft) 100,00 %
08.05.2016 18:43 19,0 C 48 % 1012,2 hPa 0,0 l/m 29,4 km/h (5 Bft) NO 49 1 min 0,000 mm 0,0 UV-I 205 W/m 7,7 C 13,4 C 35,4 km/h (5 Bft) 100,00 %
08.05.2016 18:44 19,0 C 48 % 1012,2 hPa 0,0 l/m 28,1 km/h (4 Bft) O-NO 62 1 min 0,000 mm 0,0 UV-I 202 W/m 7,7 C 13,6 C 38,6 km/h (5 Bft) 100,00 %
08.05.2016 18:45 18,9 C 48 % 1012,2 hPa 0,0 l/m 34,5 km/h (5 Bft) NO 55 1 min 0,000 mm 0,0 UV-I 198 W/m 7,6 C 12,6 C 43,5 km/h (6 Bft) 100,00 %
08.05.2016 18:46 18,9 C 48 % 1012,2 hPa 0,0 l/m 31,0 km/h (5 Bft) O-NO 62 1 min 0,000 mm 0,0 UV-I 194 W/m 7,6 C 13,0 C 43,5 km/h (6 Bft) 100,00 %
08.05.2016 18:47 18,9 C 48 % 1012,2 hPa 0,0 l/m 30,5 km/h (5 Bft) NO 52 1 min 0,000 mm 0,0 UV-I 190 W/m 7,6 C 13,1 C 38,6 km/h (5 Bft) 100,00 %
08.05.2016 18:48 18,9 C 48 % 1012,2 hPa 0,0 l/m 31,8 km/h (5 Bft) NO 51 1 min 0,000 mm 0,0 UV-I 186 W/m 7,6 C 12,9 C 40,2 km/h (6 Bft) 100,00 %
08.05.2016 18:49 18,9 C 48 % 1012,1 hPa 0,0 l/m 20,8 km/h (4 Bft) NO 40 1 min 0,000 mm 0,0 UV-I 184 W/m 7,6 C 14,6 C 32,2 km/h (5 Bft) 100,00 %
08.05.2016 18:50 18,8 C 49 % 1012,1 hPa 0,0 l/m 28,4 km/h (4 Bft) NO 48 1 min 0,000 mm 0,0 UV-I 180 W/m 7,9 C 13,2 C 38,6 km/h (5 Bft) 100,00 %
08.05.2016 18:51 18,8 C 49 % 1012,2 hPa 0,0 l/m 20,7 km/h (4 Bft) NO 54 1 min 0,000 mm 0,0 UV-I 177 W/m 7,9 C 14,5 C 37,0 km/h (5 Bft) 100,00 %
08.05.2016 18:52 18,8 C 48 % 1012,1 hPa 0,0 l/m 29,2 km/h (5 Bft) O-NO 60 1 min 0,000 mm 0,0 UV-I 173 W/m 7,6 C 13,1 C 40,2 km/h (6 Bft) 100,00 %
08.05.2016 18:53 18,8 C 49 % 1012,1 hPa 0,0 l/m 28,8 km/h (4 Bft) NO 53 1 min 0,000 mm 0,0 UV-I 171 W/m 7,9 C 13,2 C 40,2 km/h (6 Bft) 100,00 %
08.05.2016 18:54 18,8 C 49 % 1012,1 hPa 0,0 l/m 24,1 km/h (4 Bft) NO 38 1 min 0,000 mm 0,0 UV-I 168 W/m 7,9 C 13,9 C 30,6 km/h (5 Bft) 100,00 %
08.05.2016 18:55 18,8 C 49 % 1012,1 hPa 0,0 l/m 25,4 km/h (4 Bft) O-NO 65 1 min 0,000 mm 0,0 UV-I 164 W/m 7,9 C 13,7 C 33,8 km/h (5 Bft) 100,00 %
08.05.2016 18:56 18,8 C 49 % 1012,1 hPa 0,0 l/m 22,5 km/h (4 Bft) O-NO 58 1 min 0,000 mm 0,0 UV-I 162 W/m 7,9 C 14,2 C 30,6 km/h (5 Bft) 100,00 %
08.05.2016 18:57 18,8 C 49 % 1012,1 hPa 0,0 l/m 23,7 km/h (4 Bft) O-NO 63 1 min 0,000 mm 0,0 UV-I 160 W/m 7,9 C 14,0 C 29,0 km/h (5 Bft) 100,00 %
08.05.2016 18:58 18,8 C 50 % 1012,1 hPa 0,0 l/m 16,6 km/h (3 Bft) NO 40 1 min 0,000 mm 0,0 UV-I 156 W/m 8,2 C 15,4 C 19,3 km/h (3 Bft) 100,00 %
08.05.2016 18:59 18,7 C 49 % 1012,2 hPa 0,0 l/m 31,2 km/h (5 Bft) O-NO 60 1 min 0,000 mm 0,0 UV-I 153 W/m 7,8 C 12,7 C 41,8 km/h (6 Bft) 100,00 %
08.05.2016 19:00 18,7 C 48 % 1012,0 hPa 0,0 l/m 30,6 km/h (5 Bft) O 98 1 min 0,000 mm 0,0 UV-I 150 W/m 7,5 C 12,8 C 38,6 km/h (5 Bft) 95,83 %
08.05.2016 19:01 18,7 C 48 % 1012,0 hPa 0,0 l/m 21,3 km/h (4 Bft) O-NO 74 1 min 0,330 mm 0,0 UV-I 147 W/m 7,5 C 14,3 C 30,6 km/h (5 Bft) 100,00 %
08.05.2016 19:02 18,7 C 48 % 1012,1 hPa 0,0 l/m 25,2 km/h (4 Bft) O-NO 66 1 min 0,000 mm 0,0 UV-I 144 W/m 7,5 C 13,6 C 32,2 km/h (5 Bft) 100,00 %
08.05.2016 19:03 18,7 C 48 % 1012,1 hPa 0,0 l/m 27,8 km/h (4 Bft) O-NO 65 1 min 0,000 mm 0,0 UV-I 140 W/m 7,5 C 13,2 C 35,4 km/h (5 Bft) 100,00 %
08.05.2016 19:04 18,7 C 48 % 1012,1 hPa 0,0 l/m 30,0 km/h (5 Bft) O-NO 69 1 min 0,000 mm 0,0 UV-I 137 W/m 7,5 C 12,9 C 35,4 km/h (5 Bft) 100,00 %
08.05.2016 19:05 18,7 C 48 % 1012,1 hPa 0,0 l/m 25,0 km/h (4 Bft) O-NO 61 1 min 0,000 mm 0,0 UV-I 135 W/m 7,5 C 13,6 C 37,0 km/h (5 Bft) 100,00 %
08.05.2016 19:06 18,7 C 48 % 1012,1 hPa 0,0 l/m 23,3 km/h (4 Bft) O-NO 58 1 min 0,000 mm 0,0 UV-I 132 W/m 7,5 C 13,9 C 30,6 km/h (5 Bft) 100,00 %
08.05.2016 19:07 18,6 C 49 % 1012,2 hPa 0,0 l/m 20,4 km/h (4 Bft) O-NO 57 1 min 0,000 mm 0,0 UV-I 129 W/m 7,7 C 14,3 C 30,6 km/h (5 Bft) 100,00 %
08.05.2016 19:08 18,6 C 47 % 1012,2 hPa 0,0 l/m 34,4 km/h (5 Bft) NO 46 1 min 0,000 mm 0,0 UV-I 126 W/m 7,1 C 12,2 C 43,5 km/h (6 Bft) 100,00 %
08.05.2016 19:09 18,6 C 47 % 1012,2 hPa 0,0 l/m 30,6 km/h (5 Bft) O 88 1 min 0,000 mm 0,0 UV-I 124 W/m 7,1 C 12,7 C 40,2 km/h (6 Bft) 100,00 %
08.05.2016 19:10 18,6 C 48 % 1012,2 hPa 0,0 l/m 20,8 km/h (4 Bft) NO 55 1 min 0,000 mm 0,0 UV-I 120 W/m 7,4 C 14,2 C 27,4 km/h (4 Bft) 100,00 %
08.05.2016 19:11 18,6 C 48 % 1012,2 hPa 0,0 l/m 29,1 km/h (5 Bft) O-NO 59 1 min 0,000 mm 0,0 UV-I 116 W/m 7,4 C 12,9 C 40,2 km/h (6 Bft) 100,00 %
08.05.2016 19:12 18,6 C 49 % 1012,2 hPa 0,0 l/m 22,1 km/h (4 Bft) NO 55 1 min 0,000 mm 0,0 UV-I 114 W/m 7,7 C 14,0 C 27,4 km/h (4 Bft) 100,00 %
08.05.2016 19:13 18,5 C 49 % 1012,2 hPa 0,0 l/m 19,8 km/h (3 Bft) NO 52 1 min 0,000 mm 0,0 UV-I 111 W/m 7,6 C 14,3 C 27,4 km/h (4 Bft) 100,00 %
08.05.2016 19:14 18,5 C 49 % 1012,2 hPa 0,0 l/m 27,4 km/h (4 Bft) NO 55 1 min 0,000 mm 0,0 UV-I 108 W/m 7,6 C 13,0 C 35,4 km/h (5 Bft) 100,00 %
08.05.2016 19:15 18,4 C 48 % 1012,2 hPa 0,0 l/m 29,8 km/h (5 Bft) NO 44 1 min 0,000 mm 0,0 UV-I 106 W/m 7,2 C 12,5 C 38,6 km/h (5 Bft) 100,00 %
08.05.2016 19:16 18,4 C 48 % 1012,2 hPa 0,0 l/m 24,1 km/h (4 Bft) O-NO 61 1 min 0,000 mm 0,0 UV-I 104 W/m 7,2 C 13,4 C 30,6 km/h (5 Bft) 100,00 %
08.05.2016 19:17 18,4 C 49 % 1012,2 hPa 0,0 l/m 18,7 km/h (3 Bft) NO 49 1 min 0,000 mm 0,0 UV-I 100 W/m 7,5 C 14,4 C 25,7 km/h (4 Bft) 100,00 %
08.05.2016 19:18 18,4 C 50 % 1012,2 hPa 0,0 l/m 20,9 km/h (4 Bft) N-NO 32 1 min 0,000 mm 0,0 UV-I 98 W/m 7,8 C 14,0 C 25,7 km/h (4 Bft) 100,00 %
08.05.2016 19:19 18,4 C 49 % 1012,2 hPa 0,0 l/m 22,0 km/h (4 Bft) N-NO 28 1 min 0,000 mm 0,0 UV-I 95 W/m 7,5 C 13,7 C 35,4 km/h (5 Bft) 100,00 %
08.05.2016 19:20 18,3 C 49 % 1012,1 hPa 0,0 l/m 23,1 km/h (4 Bft) O-NO 58 1 min 0,000 mm 0,0 UV-I 92 W/m 7,4 C 13,4 C 33,8 km/h (5 Bft) 96,15 %
08.05.2016 19:21 18,3 C 49 % 1012,2 hPa 0,0 l/m 27,1 km/h (4 Bft) NO 35 1 min 0,000 mm 0,0 UV-I 90 W/m 7,4 C 12,7 C 35,4 km/h (5 Bft) 100,00 %
08.05.2016 19:22 18,3 C 48 % 1012,2 hPa 0,0 l/m 35,0 km/h (5 Bft) O-NO 60 1 min 0,000 mm 0,0 UV-I 88 W/m 7,1 C 11,7 C 45,1 km/h (6 Bft) 95,65 %
08.05.2016 19:23 18,3 C 48 % 1012,2 hPa 0,0 l/m 27,8 km/h (4 Bft) O-NO 67 0 min 0,000 mm 0,0 UV-I 86 W/m 7,1 C 12,6 C 38,6 km/h (5 Bft) 100,00 %
08.05.2016 19:24 18,3 C 49 % 1012,2 hPa 0,0 l/m 33,3 km/h (5 Bft) O-NO 60 0 min 0,000 mm 0,0 UV-I 84 W/m 7,4 C 11,9 C 40,2 km/h (6 Bft) 95,65 %
08.05.2016 19:25 18,3 C 48 % 1012,2 hPa 0,0 l/m 27,8 km/h (4 Bft) NO 53 0 min 0,000 mm 0,0 UV-I 81 W/m 7,1 C 12,6 C 38,6 km/h (5 Bft) 95,83 %
08.05.2016 19:26 18,3 C 48 % 1012,2 hPa 0,0 l/m 27,2 km/h (4 Bft) NO 40 0 min 0,000 mm 0,0 UV-I 78 W/m 7,1 C 12,7 C 35,4 km/h (5 Bft) 95,65 %
08.05.2016 19:27 18,3 C 48 % 1012,2 hPa 0,0 l/m 27,2 km/h (4 Bft) O-NO 72 0 min 0,000 mm 0,0 UV-I 76 W/m 7,1 C 12,7 C 37,0 km/h (5 Bft) 95,83 %
08.05.2016 19:28 18,3 C 49 % 1012,2 hPa 0,0 l/m 26,2 km/h (4 Bft) NO 50 0 min 0,000 mm 0,0 UV-I 74 W/m 7,4 C 12,9 C 37,0 km/h (5 Bft) 95,65 %
08.05.2016 19:29 18,2 C 49 % 1012,2 hPa 0,0 l/m 23,4 km/h (4 Bft) O 80 0 min 0,000 mm 0,0 UV-I 72 W/m 7,3 C 13,2 C 29,0 km/h (5 Bft) 95,83 %
08.05.2016 19:30 18,2 C 48 % 1012,3 hPa 0,0 l/m 29,8 km/h (5 Bft) O-NO 63 0 min 0,000 mm 0,0 UV-I 69 W/m 7,0 C 12,2 C 40,2 km/h (6 Bft) 100,00 %
08.05.2016 19:31 18,2 C 48 % 1012,2 hPa 0,0 l/m 27,4 km/h (4 Bft) NO 49 0 min 0,000 mm 0,0 UV-I 66 W/m 7,0 C 12,6 C 40,2 km/h (6 Bft) 95,83 %
08.05.2016 19:32 18,2 C 48 % 1012,2 hPa 0,0 l/m 28,1 km/h (4 Bft) NO 40 0 min 0,000 mm 0,0 UV-I 64 W/m 7,0 C 12,5 C 46,7 km/h (6 Bft) 91,30 %
08.05.2016 19:33 18,1 C 49 % 1012,2 hPa 0,0 l/m 28,6 km/h (4 Bft) O-NO 68 0 min 0,000 mm 0,0 UV-I 62 W/m 7,2 C 12,2 C 37,0 km/h (5 Bft) 95,83 %
08.05.2016 19:34 18,1 C 48 % 1012,2 hPa 0,0 l/m 30,2 km/h (5 Bft) O-NO 60 0 min 0,000 mm 0,0 UV-I 60 W/m 6,9 C 12,0 C 41,8 km/h (6 Bft) 95,65 %
08.05.2016 19:35 18,1 C 49 % 1012,2 hPa 0,0 l/m 22,0 km/h (4 Bft) O 80 0 min 0,000 mm 0,0 UV-I 58 W/m 7,2 C 13,3 C 33,8 km/h (5 Bft) 100,00 %
08.05.2016 19:36 18,1 C 49 % 1012,2 hPa 0,0 l/m 24,3 km/h (4 Bft) NO 42 0 min 0,000 mm 0,0 UV-I 55 W/m 7,2 C 12,9 C 33,8 km/h (5 Bft) 95,65 %
08.05.2016 19:37 18,1 C 49 % 1012,2 hPa 0,0 l/m 27,7 km/h (4 Bft) NO 51 0 min 0,000 mm 0,0 UV-I 54 W/m 7,2 C 12,4 C 37,0 km/h (5 Bft) 100,00 %
08.05.2016 19:38 18,0 C 49 % 1012,2 hPa 0,0 l/m 27,2 km/h (4 Bft) O-NO 61 0 min 0,000 mm 0,0 UV-I 52 W/m 7,1 C 12,3 C 33,8 km/h (5 Bft) 91,67 %
08.05.2016 19:39 18,0 C 49 % 1012,2 hPa 0,0 l/m 22,9 km/h (4 Bft) O-NO 74 0 min 0,000 mm 0,0 UV-I 50 W/m 7,1 C 13,0 C 32,2 km/h (5 Bft) 95,65 %
08.05.2016 19:40 18,0 C 49 % 1012,2 hPa 0,0 l/m 25,3 km/h (4 Bft) O 80 0 min 0,000 mm 0,0 UV-I 49 W/m 7,1 C 12,6 C 32,2 km/h (5 Bft) 91,67 %
08.05.2016 19:41 17,9 C 49 % 1012,3 hPa 0,0 l/m 17,4 km/h (3 Bft) O-NO 67 0 min 0,000 mm 0,0 UV-I 47 W/m 7,0 C 14,1 C 25,7 km/h (4 Bft) 100,00 %
08.05.2016 19:42 17,9 C 50 % 1012,3 hPa 0,0 l/m 25,1 km/h (4 Bft) NO 56 0 min 0,000 mm 0,0 UV-I 45 W/m 7,3 C 12,5 C 33,8 km/h (5 Bft) 95,83 %
08.05.2016 19:43 17,9 C 50 % 1012,3 hPa 0,0 l/m 24,7 km/h (4 Bft) NO 42 0 min 0,000 mm 0,0 UV-I 43 W/m 7,3 C 12,6 C 32,2 km/h (5 Bft) 96,15 %
08.05.2016 19:44 17,8 C 50 % 1012,3 hPa 0,0 l/m 20,3 km/h (4 Bft) O-NO 77 0 min 0,000 mm 0,0 UV-I 41 W/m 7,2 C 13,3 C 29,0 km/h (5 Bft) 100,00 %
08.05.2016 19:45 17,8 C 50 % 1012,3 hPa 0,0 l/m 21,1 km/h (4 Bft) O-NO 59 0 min 0,000 mm 0,0 UV-I 39 W/m 7,2 C 13,1 C 27,4 km/h (4 Bft) 91,30 %
08.05.2016 19:46 17,8 C 50 % 1012,4 hPa 0,0 l/m 19,4 km/h (3 Bft) O-NO 69 0 min 0,000 mm 0,0 UV-I 37 W/m 7,2 C 13,5 C 32,2 km/h (5 Bft) 100,00 %
08.05.2016 19:47 17,8 C 50 % 1012,3 hPa 0,0 l/m 21,5 km/h (4 Bft) NO 53 0 min 0,000 mm 0,0 UV-I 37 W/m 7,2 C 13,1 C 25,7 km/h (4 Bft) 95,65 %
08.05.2016 19:48 17,8 C 50 % 1012,3 hPa 0,0 l/m 23,0 km/h (4 Bft) O-NO 58 0 min 0,000 mm 0,0 UV-I 34 W/m 7,2 C 12,8 C 30,6 km/h (5 Bft) 100,00 %
08.05.2016 19:49 17,7 C 50 % 1012,3 hPa 0,0 l/m 21,5 km/h (4 Bft) O-NO 65 0 min 0,000 mm 0,0 UV-I 32 W/m 7,1 C 12,9 C 29,0 km/h (5 Bft) 95,65 %
08.05.2016 19:50 17,7 C 51 % 1012,4 hPa 0,0 l/m 17,2 km/h (3 Bft) NO 42 0 min 0,000 mm 0,0 UV-I 31 W/m 7,4 C 13,9 C 24,1 km/h (4 Bft) 100,00 %
08.05.2016 19:51 17,7 C 50 % 1012,4 hPa 0,0 l/m 19,3 km/h (3 Bft) N-NO 12 0 min 0,000 mm 0,0 UV-I 30 W/m 7,1 C 13,4 C 27,4 km/h (4 Bft) 91,30 %
08.05.2016 19:52 17,7 C 51 % 1012,4 hPa 0,0 l/m 23,0 km/h (4 Bft) NO 44 0 min 0,000 mm 0,0 UV-I 28 W/m 7,4 C 12,6 C 37,0 km/h (5 Bft) 95,83 %
08.05.2016 19:53 17,6 C 50 % 1012,4 hPa 0,0 l/m 22,9 km/h (4 Bft) NO 52 0 min 0,000 mm 0,0 UV-I 28 W/m 7,1 C 12,5 C 29,0 km/h (5 Bft) 95,83 %
08.05.2016 19:54 17,6 C 50 % 1012,4 hPa 0,0 l/m 22,5 km/h (4 Bft) NO 52 0 min 0,000 mm 0,0 UV-I 27 W/m 7,1 C 12,6 C 27,4 km/h (4 Bft) 95,65 %
08.05.2016 19:55 17,6 C 51 % 1012,4 hPa 0,0 l/m 23,0 km/h (4 Bft) O-NO 67 0 min 0,000 mm 0,0 UV-I 25 W/m 7,3 C 12,5 C 29,0 km/h (5 Bft) 100,00 %
08.05.2016 19:56 17,6 C 51 % 1012,4 hPa 0,0 l/m 22,8 km/h (4 Bft) NO 46 0 min 0,000 mm 0,0 UV-I 23 W/m 7,3 C 12,5 C 29,0 km/h (5 Bft) 100,00 %
08.05.2016 19:57 17,6 C 51 % 1012,4 hPa 0,0 l/m 24,5 km/h (4 Bft) O-NO 72 0 min 0,000 mm 0,0 UV-I 21 W/m 7,3 C 12,2 C 32,2 km/h (5 Bft) 100,00 %
08.05.2016 19:58 17,5 C 51 % 1012,4 hPa 0,0 l/m 21,1 km/h (4 Bft) O-NO 74 0 min 0,000 mm 0,0 UV-I 21 W/m 7,3 C 12,7 C 24,1 km/h (4 Bft) 95,65 %
08.05.2016 19:59 17,5 C 51 % 1012,4 hPa 0,0 l/m 18,4 km/h (3 Bft) NO 51 0 min 0,000 mm 0,0 UV-I 19 W/m 7,3 C 13,3 C 22,5 km/h (4 Bft) 100,00 %
08.05.2016 20:00 17,5 C 51 % 1012,4 hPa 0,0 l/m 20,4 km/h (4 Bft) NO 56 0 min 0,000 mm 0,0 UV-I 19 W/m 7,3 C 12,9 C 27,4 km/h (4 Bft) 100,00 %
08.05.2016 20:01 17,4 C 51 % 1012,4 hPa 0,0 l/m 20,5 km/h (4 Bft) O 79 0 min 0,203 mm 0,0 UV-I 18 W/m 7,2 C 12,7 C 29,0 km/h (5 Bft) 100,00 %
08.05.2016 20:02 17,4 C 51 % 1012,4 hPa 0,0 l/m 19,3 km/h (3 Bft) NO 52 0 min 0,000 mm 0,0 UV-I 18 W/m 7,2 C 13,0 C 25,7 km/h (4 Bft) 100,00 %
08.05.2016 20:03 17,4 C 51 % 1012,5 hPa 0,0 l/m 20,8 km/h (4 Bft) NO 40 0 min 0,000 mm 0,0 UV-I 18 W/m 7,2 C 12,7 C 22,5 km/h (4 Bft) 100,00 %
08.05.2016 20:04 17,3 C 52 % 1012,5 hPa 0,0 l/m 18,0 km/h (3 Bft) NO 55 0 min 0,000 mm 0,0 UV-I 16 W/m 7,3 C 13,2 C 24,1 km/h (4 Bft) 100,00 %
08.05.2016 20:05 17,3 C 52 % 1012,5 hPa 0,0 l/m 15,0 km/h (3 Bft) NO 48 0 min 0,000 mm 0,0 UV-I 16 W/m 7,3 C 14,0 C 20,9 km/h (4 Bft) 100,00 %
08.05.2016 20:06 17,3 C 52 % 1012,5 hPa 0,0 l/m 20,7 km/h (4 Bft) O-NO 77 0 min 0,000 mm 0,0 UV-I 16 W/m 7,3 C 12,6 C 29,0 km/h (5 Bft) 100,00 %
08.05.2016 20:07 17,3 C 52 % 1012,5 hPa 0,0 l/m 16,8 km/h (3 Bft) NO 52 0 min 0,000 mm 0,0 UV-I 16 W/m 7,3 C 13,5 C 24,1 km/h (4 Bft) 95,83 %
08.05.2016 20:08 17,2 C 53 % 1012,5 hPa 0,0 l/m 13,7 km/h (3 Bft) O-NO 65 0 min 0,000 mm 0,0 UV-I 14 W/m 7,5 C 14,2 C 19,3 km/h (3 Bft) 100,00 %
08.05.2016 20:09 17,2 C 53 % 1012,5 hPa 0,0 l/m 17,0 km/h (3 Bft) NO 55 0 min 0,000 mm 0,0 UV-I 14 W/m 7,5 C 13,3 C 24,1 km/h (4 Bft) 100,00 %
08.05.2016 20:10 17,1 C 53 % 1012,5 hPa 0,0 l/m 21,1 km/h (4 Bft) NO 53 0 min 0,000 mm 0,0 UV-I 14 W/m 7,4 C 12,2 C 30,6 km/h (5 Bft) 100,00 %
08.05.2016 20:11 17,1 C 53 % 1012,5 hPa 0,0 l/m 15,3 km/h (3 Bft) O-NO 70 0 min 0,000 mm 0,0 UV-I 13 W/m 7,4 C 13,6 C 22,5 km/h (4 Bft) 100,00 %
08.05.2016 20:12 17,1 C 53 % 1012,5 hPa 0,0 l/m 11,7 km/h (2 Bft) NO 41 0 min 0,000 mm 0,0 UV-I 12 W/m 7,4 C 14,8 C 19,3 km/h (3 Bft) 100,00 %
08.05.2016 20:13 17,0 C 54 % 1012,5 hPa 0,0 l/m 13,4 km/h (3 Bft) NO 51 0 min 0,000 mm 0,0 UV-I 12 W/m 7,6 C 14,1 C 19,3 km/h (3 Bft) 100,00 %
08.05.2016 20:14 16,9 C 53 % 1012,5 hPa 0,0 l/m 19,9 km/h (4 Bft) O-NO 61 1 min 0,000 mm 0,0 UV-I 12 W/m 7,3 C 12,2 C 27,4 km/h (4 Bft) 100,00 %
08.05.2016 20:15 16,9 C 53 % 1012,5 hPa 0,0 l/m 12,5 km/h (3 Bft) O 97 1 min 0,000 mm 0,0 UV-I 11 W/m 7,3 C 14,3 C 17,7 km/h (3 Bft) 100,00 %
08.05.2016 20:16 16,9 C 53 % 1012,5 hPa 0,0 l/m 21,9 km/h (4 Bft) NO 43 1 min 0,000 mm 0,0 UV-I 11 W/m 7,3 C 11,8 C 29,0 km/h (5 Bft) 100,00 %
08.05.2016 20:17 16,9 C 53 % 1012,5 hPa 0,0 l/m 18,8 km/h (3 Bft) O-NO 69 0 min 0,000 mm 0,0 UV-I 11 W/m 7,3 C 12,5 C 22,5 km/h (4 Bft) 100,00 %
08.05.2016 20:18 16,8 C 54 % 1012,5 hPa 0,0 l/m 13,1 km/h (3 Bft) O-NO 59 0 min 0,000 mm 0,0 UV-I 11 W/m 7,4 C 14,0 C 20,9 km/h (4 Bft) 100,00 %
08.05.2016 20:19 16,8 C 54 % 1012,6 hPa 0,0 l/m 17,4 km/h (3 Bft) O-NO 69 0 min 0,000 mm 0,0 UV-I 10 W/m 7,4 C 12,7 C 22,5 km/h (4 Bft) 100,00 %
08.05.2016 20:20 16,8 C 54 % 1012,5 hPa 0,0 l/m 16,4 km/h (3 Bft) O-NO 69 0 min 0,000 mm 0,0 UV-I 9 W/m 7,4 C 13,0 C 20,9 km/h (4 Bft) 100,00 %
08.05.2016 20:21 16,8 C 54 % 1012,5 hPa 0,0 l/m 13,9 km/h (3 Bft) O-NO 64 0 min 0,000 mm 0,0 UV-I 9 W/m 7,4 C 13,7 C 19,3 km/h (3 Bft) 100,00 %
08.05.2016 20:22 16,8 C 54 % 1012,5 hPa 0,0 l/m 15,1 km/h (3 Bft) O-NO 64 0 min 0,000 mm 0,0 UV-I 9 W/m 7,4 C 13,3 C 17,7 km/h (3 Bft) 100,00 %
08.05.2016 20:23 16,7 C 55 % 1012,6 hPa 0,0 l/m 15,3 km/h (3 Bft) O-NO 71 0 min 0,000 mm 0,0 UV-I 7 W/m 7,6 C 13,2 C 19,3 km/h (3 Bft) 100,00 %
08.05.2016 20:24 16,7 C 54 % 1012,5 hPa 0,0 l/m 15,6 km/h (3 Bft) NO 55 0 min 0,000 mm 0,0 UV-I 7 W/m 7,3 C 13,1 C 20,9 km/h (4 Bft) 100,00 %
08.05.2016 20:25 16,7 C 55 % 1012,5 hPa 0,0 l/m 18,4 km/h (3 Bft) O-NO 64 0 min 0,000 mm 0,0 UV-I 7 W/m 7,6 C 12,3 C 27,4 km/h (4 Bft) 95,65 %
08.05.2016 20:26 16,7 C 54 % 1012,5 hPa 0,0 l/m 16,9 km/h (3 Bft) NO 46 0 min 0,000 mm 0,0 UV-I 7 W/m 7,3 C 12,7 C 20,9 km/h (4 Bft) 100,00 %
08.05.2016 20:27 16,6 C 54 % 1012,5 hPa 0,0 l/m 16,6 km/h (3 Bft) O-NO 63 0 min 0,000 mm 0,0 UV-I 5 W/m 7,3 C 12,7 C 20,9 km/h (4 Bft) 100,00 %
08.05.2016 20:28 16,6 C 54 % 1012,5 hPa 0,0 l/m 17,8 km/h (3 Bft) O-NO 72 0 min 0,000 mm 0,0 UV-I 5 W/m 7,3 C 12,4 C 24,1 km/h (4 Bft) 100,00 %
08.05.2016 20:29 16,6 C 54 % 1012,5 hPa 0,0 l/m 15,9 km/h (3 Bft) O-NO 61 0 min 0,000 mm 0,0 UV-I 5 W/m 7,3 C 12,9 C 24,1 km/h (4 Bft) 100,00 %
08.05.2016 20:30 16,6 C 55 % 1012,6 hPa 0,0 l/m 19,1 km/h (3 Bft) O-NO 60 0 min 0,000 mm 0,0 UV-I 5 W/m 7,5 C 12,0 C 27,4 km/h (4 Bft) 100,00 %
08.05.2016 20:31 16,5 C 55 % 1012,6 hPa 0,0 l/m 18,9 km/h (3 Bft) O-NO 57 0 min 0,000 mm 0,0 UV-I 5 W/m 7,4 C 11,9 C 27,4 km/h (4 Bft) 95,65 %
08.05.2016 20:32 16,5 C 55 % 1012,6 hPa 0,0 l/m 20,5 km/h (4 Bft) NO 51 0 min 0,000 mm 0,0 UV-I 5 W/m 7,4 C 11,6 C 32,2 km/h (5 Bft) 100,00 %
08.05.2016 20:33 16,5 C 54 % 1012,6 hPa 0,0 l/m 18,4 km/h (3 Bft) NO 46 0 min 0,000 mm 0,0 UV-I 0 W/m 7,2 C 12,1 C 22,5 km/h (4 Bft) 100,00 %
08.05.2016 20:34 16,4 C 55 % 1012,6 hPa 0,0 l/m 19,2 km/h (3 Bft) NO 56 0 min 0,000 mm 0,0 UV-I 0 W/m 7,3 C 11,7 C 27,4 km/h (4 Bft) 100,00 %
08.05.2016 20:35 16,4 C 55 % 1012,6 hPa 0,0 l/m 17,5 km/h (3 Bft) NO 45 0 min 0,000 mm 0,0 UV-I 0 W/m 7,3 C 12,2 C 25,7 km/h (4 Bft) 100,00 %
08.05.2016 20:36 16,4 C 55 % 1012,7 hPa 0,0 l/m 17,2 km/h (3 Bft) NO 55 0 min 0,000 mm 0,0 UV-I 0 W/m 7,3 C 12,3 C 20,9 km/h (4 Bft) 100,00 %
08.05.2016 20:37 16,4 C 55 % 1012,7 hPa 0,0 l/m 17,6 km/h (3 Bft) O-NO 65 0 min 0,000 mm 0,0 UV-I 0 W/m 7,3 C 12,2 C 24,1 km/h (4 Bft) 100,00 %
08.05.2016 20:38 16,4 C 55 % 1012,7 hPa 0,0 l/m 18,7 km/h (3 Bft) NO 51 0 min 0,000 mm 0,0 UV-I 0 W/m 7,3 C 11,9 C 30,6 km/h (5 Bft) 100,00 %
08.05.2016 20:39 16,4 C 55 % 1012,7 hPa 0,0 l/m 19,4 km/h (3 Bft) O-NO 64 0 min 0,000 mm 0,0 UV-I 0 W/m 7,3 C 11,7 C 24,1 km/h (4 Bft) 100,00 %
08.05.2016 20:40 16,4 C 55 % 1012,7 hPa 0,0 l/m 16,2 km/h (3 Bft) O-NO 59 0 min 0,000 mm 0,0 UV-I 0 W/m 7,3 C 12,5 C 19,3 km/h (3 Bft) 95,65 %
08.05.2016 20:41 16,3 C 55 % 1012,7 hPa 0,0 l/m 14,8 km/h (3 Bft) O-NO 75 0 min 0,000 mm 0,0 UV-I 0 W/m 7,2 C 12,8 C 20,9 km/h (4 Bft) 100,00 %
08.05.2016 20:42 16,3 C 56 % 1012,7 hPa 0,0 l/m 12,3 km/h (3 Bft) O-NO 61 0 min 0,000 mm 0,0 UV-I 0 W/m 7,5 C 13,7 C 19,3 km/h (3 Bft) 100,00 %
08.05.2016 20:43 16,3 C 56 % 1012,7 hPa 0,0 l/m 14,4 km/h (3 Bft) NO 51 0 min 0,000 mm 0,0 UV-I 0 W/m 7,5 C 13,0 C 22,5 km/h (4 Bft) 100,00 %
08.05.2016 20:44 16,3 C 56 % 1012,7 hPa 0,0 l/m 14,6 km/h (3 Bft) O-NO 70 0 min 0,000 mm 0,0 UV-I 0 W/m 7,5 C 12,9 C 17,7 km/h (3 Bft) 100,00 %
08.05.2016 20:47 16,1 C 56 % 1012,7 hPa 0,0 l/m 16,0 km/h (3 Bft) O-NO 76 0 min 0,000 mm 0,0 UV-I 0 W/m 7,3 C 12,2 C 24,1 km/h (4 Bft) 93,90 %
08.05.2016 20:48 16,1 C 56 % 1012,7 hPa 0,0 l/m 14,3 km/h (3 Bft) NO 54 0 min 0,000 mm 0,0 UV-I 0 W/m 7,3 C 12,7 C 19,3 km/h (3 Bft) 100,00 %
08.05.2016 20:49 16,1 C 56 % 1012,8 hPa 0,0 l/m 13,4 km/h (3 Bft) NO 46 0 min 0,000 mm 0,0 UV-I 0 W/m 7,3 C 13,0 C 19,3 km/h (3 Bft) 100,00 %
08.05.2016 20:50 16,1 C 56 % 1012,8 hPa 0,0 l/m 15,0 km/h (3 Bft) N-NO 15 0 min 0,000 mm 0,0 UV-I 0 W/m 7,3 C 12,5 C 20,9 km/h (4 Bft) 100,00 %
08.05.2016 20:51 16,0 C 56 % 1012,7 hPa 0,0 l/m 9,9 km/h (2 Bft) NO 38 0 min 0,000 mm 0,0 UV-I 0 W/m 7,2 C 14,3 C 16,1 km/h (3 Bft) 100,00 %
08.05.2016 20:52 15,9 C 56 % 1012,8 hPa 0,0 l/m 9,7 km/h (2 Bft) NO 36 0 min 0,000 mm 0,0 UV-I 0 W/m 7,1 C 14,2 C 14,5 km/h (3 Bft) 98,48 %
08.05.2016 20:53 15,9 C 57 % 1012,8 hPa 0,0 l/m 12,7 km/h (3 Bft) NO 55 0 min 0,000 mm 0,0 UV-I 0 W/m 7,4 C 13,1 C 19,3 km/h (3 Bft) 100,00 %
08.05.2016 20:54 15,9 C 57 % 1012,8 hPa 0,0 l/m 14,5 km/h (3 Bft) NO 46 0 min 0,000 mm 0,0 UV-I 0 W/m 7,4 C 12,4 C 20,9 km/h (4 Bft) 100,00 %
08.05.2016 20:55 15,8 C 57 % 1012,8 hPa 0,0 l/m 13,5 km/h (3 Bft) O-NO 59 0 min 0,000 mm 0,0 UV-I 0 W/m 7,3 C 12,7 C 17,7 km/h (3 Bft) 100,00 %
08.05.2016 20:56 15,8 C 57 % 1012,8 hPa 0,0 l/m 13,4 km/h (3 Bft) NO 49 0 min 0,000 mm 0,0 UV-I 0 W/m 7,3 C 12,7 C 19,3 km/h (3 Bft) 100,00 %
08.05.2016 20:57 15,8 C 57 % 1012,9 hPa 0,0 l/m 13,5 km/h (3 Bft) NO 46 0 min 0,000 mm 0,0 UV-I 0 W/m 7,3 C 12,7 C 20,9 km/h (4 Bft) 96,15 %
08.05.2016 20:58 15,8 C 57 % 1012,8 hPa 0,0 l/m 14,5 km/h (3 Bft) NO 44 0 min 0,000 mm 0,0 UV-I 0 W/m 7,3 C 12,3 C 19,3 km/h (3 Bft) 100,00 %
08.05.2016 20:59 15,8 C 57 % 1012,8 hPa 0,0 l/m 14,3 km/h (3 Bft) NO 52 0 min 0,000 mm 0,0 UV-I 0 W/m 7,3 C 12,4 C 20,9 km/h (4 Bft) 100,00 %
08.05.2016 21:00 15,8 C 57 % 1012,9 hPa 0,0 l/m 15,0 km/h (3 Bft) NO 54 0 min 0,000 mm 0,0 UV-I 0 W/m 7,3 C 12,2 C 19,3 km/h (3 Bft) 100,00 %
08.05.2016 21:01 15,7 C 57 % 1012,8 hPa 0,0 l/m 13,6 km/h (3 Bft) NO 48 0 min 0,102 mm 0,0 UV-I 0 W/m 7,2 C 12,5 C 16,1 km/h (3 Bft) 92,86 %
08.05.2016 21:02 15,7 C 57 % 1012,9 hPa 0,0 l/m 14,5 km/h (3 Bft) O-NO 62 0 min 0,000 mm 0,0 UV-I 0 W/m 7,2 C 12,2 C 19,3 km/h (3 Bft) 100,00 %
08.05.2016 21:03 15,7 C 57 % 1012,9 hPa 0,0 l/m 14,7 km/h (3 Bft) NO 47 0 min 0,000 mm 0,0 UV-I 0 W/m 7,2 C 12,1 C 17,7 km/h (3 Bft) 100,00 %
08.05.2016 21:04 15,7 C 58 % 1012,9 hPa 0,0 l/m 14,5 km/h (3 Bft) NO 41 0 min 0,000 mm 0,0 UV-I 0 W/m 7,5 C 12,2 C 19,3 km/h (3 Bft) 100,00 %
08.05.2016 21:05 15,7 C 58 % 1012,9 hPa 0,0 l/m 15,8 km/h (3 Bft) O-NO 72 0 min 0,000 mm 0,0 UV-I 0 W/m 7,5 C 11,8 C 20,9 km/h (4 Bft) 100,00 %
08.05.2016 21:06 15,7 C 58 % 1012,9 hPa 0,0 l/m 13,8 km/h (3 Bft) NO 44 0 min 0,000 mm 0,0 UV-I 0 W/m 7,5 C 12,4 C 19,3 km/h (3 Bft) 100,00 %
08.05.2016 21:07 15,7 C 58 % 1012,9 hPa 0,0 l/m 11,2 km/h (2 Bft) NO 46 0 min 0,000 mm 0,0 UV-I 0 W/m 7,5 C 13,4 C 17,7 km/h (3 Bft) 100,00 %
08.05.2016 21:08 15,6 C 58 % 1012,9 hPa 0,0 l/m 14,3 km/h (3 Bft) NO 50 0 min 0,000 mm 0,0 UV-I 0 W/m 7,4 C 12,1 C 19,3 km/h (3 Bft) 100,00 %
08.05.2016 21:09 15,6 C 58 % 1012,9 hPa 0,0 l/m 18,8 km/h (3 Bft) NO 44 0 min 0,000 mm 0,0 UV-I 0 W/m 7,4 C 10,8 C 24,1 km/h (4 Bft) 100,00 %
08.05.2016 21:10 15,6 C 58 % 1012,9 hPa 0,0 l/m 16,0 km/h (3 Bft) O-NO 60 0 min 0,000 mm 0,0 UV-I 0 W/m 7,4 C 11,6 C 22,5 km/h (4 Bft) 100,00 %
08.05.2016 21:11 15,6 C 58 % 1012,9 hPa 0,0 l/m 12,7 km/h (3 Bft) O-NO 67 0 min 0,000 mm 0,0 UV-I 0 W/m 7,4 C 12,7 C 17,7 km/h (3 Bft) 100,00 %
08.05.2016 21:12 15,6 C 58 % 1012,9 hPa 0,0 l/m 16,5 km/h (3 Bft) O-NO 57 0 min 0,000 mm 0,0 UV-I 0 W/m 7,4 C 11,5 C 22,5 km/h (4 Bft) 100,00 %
08.05.2016 21:13 15,6 C 58 % 1012,9 hPa 0,0 l/m 13,2 km/h (3 Bft) N-NO 23 0 min 0,000 mm 0,0 UV-I 0 W/m 7,4 C 12,5 C 17,7 km/h (3 Bft) 100,00 %
08.05.2016 21:14 15,6 C 58 % 1012,9 hPa 0,0 l/m 9,4 km/h (2 Bft) O-NO 60 0 min 0,000 mm 0,0 UV-I 0 W/m 7,4 C 14,1 C 14,5 km/h (3 Bft) 100,00 %
08.05.2016 21:15 15,6 C 58 % 1013,0 hPa 0,0 l/m 10,1 km/h (2 Bft) N-NO 30 0 min 0,000 mm 0,0 UV-I 0 W/m 7,4 C 13,7 C 16,1 km/h (3 Bft) 100,00 %
08.05.2016 21:16 15,5 C 58 % 1012,9 hPa 0,0 l/m 11,7 km/h (2 Bft) NO 56 0 min 0,000 mm 0,0 UV-I 0 W/m 7,3 C 13,0 C 17,7 km/h (3 Bft) 98,51 %
08.05.2016 21:17 15,5 C 59 % 1012,9 hPa 0,0 l/m 15,2 km/h (3 Bft) N-NO 27 0 min 0,000 mm 0,0 UV-I 0 W/m 7,5 C 11,7 C 19,3 km/h (3 Bft) 100,00 %
08.05.2016 21:18 15,4 C 59 % 1012,9 hPa 0,0 l/m 15,1 km/h (3 Bft) O-NO 59 0 min 0,000 mm 0,0 UV-I 0 W/m 7,4 C 11,6 C 19,3 km/h (3 Bft) 100,00 %
08.05.2016 21:19 15,4 C 59 % 1012,9 hPa 0,0 l/m 10,3 km/h (2 Bft) NO 51 0 min 0,000 mm 0,0 UV-I 0 W/m 7,4 C 13,4 C 17,7 km/h (3 Bft) 100,00 %
08.05.2016 21:20 15,4 C 59 % 1012,9 hPa 0,0 l/m 13,9 km/h (3 Bft) NO 38 0 min 0,000 mm 0,0 UV-I 0 W/m 7,4 C 12,0 C 17,7 km/h (3 Bft) 96,15 %
08.05.2016 21:21 15,3 C 59 % 1012,9 hPa 0,0 l/m 15,2 km/h (3 Bft) NO 48 0 min 0,000 mm 0,0 UV-I 0 W/m 7,3 C 11,5 C 22,5 km/h (4 Bft) 100,00 %
08.05.2016 21:22 15,3 C 59 % 1012,9 hPa 0,0 l/m 14,6 km/h (3 Bft) NO 48 0 min 0,000 mm 0,0 UV-I 0 W/m 7,3 C 11,7 C 17,7 km/h (3 Bft) 92,86 %
08.05.2016 21:23 15,3 C 59 % 1012,9 hPa 0,0 l/m 13,8 km/h (3 Bft) NO 40 0 min 0,000 mm 0,0 UV-I 0 W/m 7,3 C 12,0 C 19,3 km/h (3 Bft) 100,00 %
08.05.2016 21:24 15,3 C 59 % 1013,0 hPa 0,0 l/m 12,9 km/h (3 Bft) NO 52 0 min 0,000 mm 0,0 UV-I 0 W/m 7,3 C 12,3 C 17,7 km/h (3 Bft) 90,91 %
08.05.2016 21:25 15,3 C 59 % 1012,9 hPa 0,0 l/m 11,9 km/h (2 Bft) NO 41 0 min 0,000 mm 0,0 UV-I 0 W/m 7,3 C 12,7 C 17,7 km/h (3 Bft) 100,00 %
08.05.2016 21:26 15,3 C 59 % 1013,0 hPa 0,0 l/m 10,4 km/h (2 Bft) NO 52 0 min 0,000 mm 0,0 UV-I 0 W/m 7,3 C 13,3 C 14,5 km/h (3 Bft) 91,30 %
08.05.2016 21:27 15,3 C 59 % 1013,0 hPa 0,0 l/m 10,8 km/h (2 Bft) O-NO 59 0 min 0,000 mm 0,0 UV-I 0 W/m 7,3 C 13,1 C 17,7 km/h (3 Bft) 100,00 %
08.05.2016 21:28 15,3 C 59 % 1013,0 hPa 0,0 l/m 12,8 km/h (3 Bft) NO 46 0 min 0,000 mm 0,0 UV-I 0 W/m 7,3 C 12,3 C 19,3 km/h (3 Bft) 96,55 %
08.05.2016 21:29 15,3 C 59 % 1013,0 hPa 0,0 l/m 10,5 km/h (2 Bft) O-NO 63 0 min 0,000 mm 0,0 UV-I 0 W/m 7,3 C 13,2 C 16,1 km/h (3 Bft) 93,33 %
08.05.2016 21:30 15,3 C 60 % 1013,0 hPa 0,0 l/m 10,9 km/h (2 Bft) O-NO 65 0 min 0,000 mm 0,0 UV-I 0 W/m 7,6 C 13,1 C 20,9 km/h (4 Bft) 100,00 %
08.05.2016 21:31 15,2 C 59 % 1013,0 hPa 0,0 l/m 16,5 km/h (3 Bft) NO 51 0 min 0,000 mm 0,0 UV-I 0 W/m 7,2 C 11,0 C 24,1 km/h (4 Bft) 96,15 %
08.05.2016 21:32 15,2 C 60 % 1013,0 hPa 0,0 l/m 15,3 km/h (3 Bft) NO 46 0 min 0,000 mm 0,0 UV-I 0 W/m 7,5 C 11,3 C 19,3 km/h (3 Bft) 96,30 %
08.05.2016 21:33 15,2 C 60 % 1013,1 hPa 0,0 l/m 13,6 km/h (3 Bft) O-NO 67 0 min 0,000 mm 0,0 UV-I 0 W/m 7,5 C 11,9 C 17,7 km/h (3 Bft) 90,91 %
08.05.2016 21:34 15,2 C 60 % 1013,1 hPa 0,0 l/m 11,2 km/h (2 Bft) O-NO 76 0 min 0,000 mm 0,0 UV-I 0 W/m 7,5 C 12,8 C 16,1 km/h (3 Bft) 100,00 %
08.05.2016 21:35 15,2 C 60 % 1013,0 hPa 0,0 l/m 11,5 km/h (2 Bft) NO 51 0 min 0,000 mm 0,0 UV-I 0 W/m 7,5 C 12,7 C 14,5 km/h (3 Bft) 95,65 %
08.05.2016 21:36 15,1 C 60 % 1013,1 hPa 0,0 l/m 13,1 km/h (3 Bft) NO 42 0 min 0,000 mm 0,0 UV-I 0 W/m 7,4 C 12,0 C 19,3 km/h (3 Bft) 96,30 %
08.05.2016 21:37 15,1 C 60 % 1013,1 hPa 0,0 l/m 10,9 km/h (2 Bft) NO 48 0 min 0,000 mm 0,0 UV-I 0 W/m 7,4 C 12,8 C 16,1 km/h (3 Bft) 100,00 %
08.05.2016 21:38 15,1 C 60 % 1013,1 hPa 0,0 l/m 11,9 km/h (2 Bft) NO 43 0 min 0,000 mm 0,0 UV-I 0 W/m 7,4 C 12,4 C 20,9 km/h (4 Bft) 95,83 %
08.05.2016 21:39 15,1 C 61 % 1013,1 hPa 0,0 l/m 12,5 km/h (3 Bft) O-NO 65 0 min 0,000 mm 0,0 UV-I 0 W/m 7,6 C 12,2 C 16,1 km/h (3 Bft) 95,65 %
08.05.2016 21:40 15,0 C 61 % 1013,1 hPa 0,0 l/m 13,0 km/h (3 Bft) NO 54 0 min 0,000 mm 0,0 UV-I 0 W/m 7,5 C 11,9 C 20,9 km/h (4 Bft) 96,30 %
08.05.2016 21:41 15,0 C 61 % 1013,1 hPa 0,0 l/m 9,8 km/h (2 Bft) NO 53 0 min 0,000 mm 0,0 UV-I 0 W/m 7,5 C 13,2 C 12,9 km/h (3 Bft) 100,00 %
08.05.2016 21:42 14,9 C 61 % 1013,1 hPa 0,0 l/m 12,6 km/h (3 Bft) NO 52 0 min 0,000 mm 0,0 UV-I 0 W/m 7,4 C 11,9 C 16,1 km/h (3 Bft) 96,67 %
08.05.2016 21:43 14,9 C 61 % 1013,1 hPa 0,0 l/m 12,6 km/h (3 Bft) O-NO 65 0 min 0,000 mm 0,0 UV-I 0 W/m 7,4 C 11,9 C 19,3 km/h (3 Bft) 96,15 %
08.05.2016 21:44 14,9 C 61 % 1013,1 hPa 0,0 l/m 11,5 km/h (2 Bft) O-NO 63 0 min 0,000 mm 0,0 UV-I 0 W/m 7,4 C 12,4 C 14,5 km/h (3 Bft) 100,00 %
08.05.2016 21:45 14,9 C 61 % 1013,1 hPa 0,0 l/m 15,4 km/h (3 Bft) NO 55 0 min 0,000 mm 0,0 UV-I 0 W/m 7,4 C 10,9 C 19,3 km/h (3 Bft) 100,00 %
08.05.2016 21:46 14,8 C 61 % 1013,1 hPa 0,0 l/m 11,3 km/h (2 Bft) N-NO 32 0 min 0,000 mm 0,0 UV-I 0 W/m 7,4 C 12,3 C 16,1 km/h (3 Bft) 96,30 %
08.05.2016 21:47 14,8 C 61 % 1013,1 hPa 0,0 l/m 10,2 km/h (2 Bft) O-NO 59 0 min 0,000 mm 0,0 UV-I 0 W/m 7,4 C 12,8 C 14,5 km/h (3 Bft) 96,15 %
08.05.2016 21:48 14,8 C 61 % 1013,1 hPa 0,0 l/m 15,0 km/h (3 Bft) O-NO 58 0 min 0,000 mm 0,0 UV-I 0 W/m 7,4 C 10,9 C 19,3 km/h (3 Bft) 100,00 %
08.05.2016 21:49 14,8 C 62 % 1013,1 hPa 0,0 l/m 11,0 km/h (2 Bft) NO 46 0 min 0,000 mm 0,0 UV-I 0 W/m 7,6 C 12,5 C 16,1 km/h (3 Bft) 100,00 %
08.05.2016 21:50 14,7 C 62 % 1013,1 hPa 0,0 l/m 11,3 km/h (2 Bft) O-NO 61 0 min 0,000 mm 0,0 UV-I 0 W/m 7,5 C 12,2 C 16,1 km/h (3 Bft) 100,00 %
08.05.2016 21:51 14,7 C 62 % 1013,1 hPa 0,0 l/m 11,0 km/h (2 Bft) O-NO 67 0 min 0,000 mm 0,0 UV-I 0 W/m 7,5 C 12,3 C 16,1 km/h (3 Bft) 93,33 %
08.05.2016 21:52 14,7 C 62 % 1013,1 hPa 0,0 l/m 11,8 km/h (2 Bft) O-NO 78 0 min 0,000 mm 0,0 UV-I 0 W/m 7,5 C 12,0 C 14,5 km/h (3 Bft) 100,00 %
08.05.2016 21:53 14,7 C 62 % 1013,0 hPa 0,0 l/m 12,0 km/h (2 Bft) O-NO 59 0 min 0,000 mm 0,0 UV-I 0 W/m 7,5 C 11,9 C 16,1 km/h (3 Bft) 96,30 %
08.05.2016 21:54 14,6 C 62 % 1013,1 hPa 0,0 l/m 13,0 km/h (3 Bft) O-NO 61 0 min 0,000 mm 0,0 UV-I 0 W/m 7,4 C 11,4 C 17,7 km/h (3 Bft) 100,00 %
08.05.2016 21:55 14,6 C 62 % 1013,1 hPa 0,0 l/m 10,9 km/h (2 Bft) O-NO 66 0 min 0,000 mm 0,0 UV-I 0 W/m 7,4 C 12,3 C 16,1 km/h (3 Bft) 96,30 %
08.05.2016 21:56 14,6 C 62 % 1013,1 hPa 0,0 l/m 13,1 km/h (3 Bft) NO 56 0 min 0,000 mm 0,0 UV-I 0 W/m 7,4 C 11,4 C 17,7 km/h (3 Bft) 100,00 %
08.05.2016 21:57 14,6 C 62 % 1013,1 hPa 0,0 l/m 12,1 km/h (2 Bft) O-NO 59 0 min 0,000 mm 0,0 UV-I 0 W/m 7,4 C 11,8 C 17,7 km/h (3 Bft) 100,00 %
08.05.2016 21:58 14,6 C 62 % 1013,1 hPa 0,0 l/m 11,5 km/h (2 Bft) NO 50 0 min 0,000 mm 0,0 UV-I 0 W/m 7,4 C 12,0 C 16,1 km/h (3 Bft) 100,00 %
08.05.2016 21:59 14,5 C 62 % 1013,0 hPa 0,0 l/m 11,2 km/h (2 Bft) O-NO 61 0 min 0,000 mm 0,0 UV-I 0 W/m 7,3 C 12,0 C 12,9 km/h (3 Bft) 100,00 %
08.05.2016 22:00 14,5 C 63 % 1013,1 hPa 0,0 l/m 13,2 km/h (3 Bft) O-NO 61 0 min 0,000 mm 0,0 UV-I 0 W/m 7,5 C 11,2 C 16,1 km/h (3 Bft) 100,00 %
08.05.2016 22:01 14,5 C 63 % 1013,1 hPa 0,0 l/m 12,7 km/h (3 Bft) O 84 0 min 0,076 mm 0,0 UV-I 0 W/m 7,5 C 11,4 C 17,7 km/h (3 Bft) 100,00 %
08.05.2016 22:02 14,4 C 63 % 1013,0 hPa 0,0 l/m 12,4 km/h (3 Bft) O-NO 60 0 min 0,000 mm 0,0 UV-I 0 W/m 7,4 C 11,4 C 14,5 km/h (3 Bft) 100,00 %
08.05.2016 22:03 14,4 C 63 % 1013,1 hPa 0,0 l/m 11,1 km/h (2 Bft) NO 44 0 min 0,000 mm 0,0 UV-I 0 W/m 7,4 C 12,0 C 16,1 km/h (3 Bft) 100,00 %
08.05.2016 22:04 14,4 C 63 % 1013,1 hPa 0,0 l/m 10,7 km/h (2 Bft) NO 40 0 min 0,000 mm 0,0 UV-I 0 W/m 7,4 C 12,1 C 16,1 km/h (3 Bft) 96,15 %
08.05.2016 22:05 14,4 C 63 % 1013,1 hPa 0,0 l/m 8,4 km/h (2 Bft) O-NO 59 0 min 0,000 mm 0,0 UV-I 0 W/m 7,4 C 13,3 C 12,9 km/h (3 Bft) 100,00 %
08.05.2016 22:06 14,4 C 63 % 1013,1 hPa 0,0 l/m 8,2 km/h (2 Bft) NO 38 0 min 0,000 mm 0,0 UV-I 0 W/m 7,4 C 13,4 C 12,9 km/h (3 Bft) 100,00 %
08.05.2016 22:07 14,3 C 64 % 1013,1 hPa 0,0 l/m 9,2 km/h (2 Bft) O-NO 75 0 min 0,000 mm 0,0 UV-I 0 W/m 7,6 C 12,7 C 14,5 km/h (3 Bft) 100,00 %
08.05.2016 22:08 14,3 C 63 % 1013,1 hPa 0,0 l/m 8,7 km/h (2 Bft) O-NO 69 0 min 0,000 mm 0,0 UV-I 0 W/m 7,4 C 13,0 C 12,9 km/h (3 Bft) 100,00 %
08.05.2016 22:09 14,3 C 63 % 1013,1 hPa 0,0 l/m 7,9 km/h (2 Bft) NO 48 0 min 0,000 mm 0,0 UV-I 0 W/m 7,4 C 13,4 C 11,3 km/h (2 Bft) 100,00 %
08.05.2016 22:10 14,2 C 64 % 1013,1 hPa 0,0 l/m 9,1 km/h (2 Bft) O-NO 59 0 min 0,000 mm 0,0 UV-I 0 W/m 7,5 C 12,7 C 12,9 km/h (3 Bft) 100,00 %
08.05.2016 22:11 14,2 C 64 % 1013,1 hPa 0,0 l/m 7,8 km/h (2 Bft) NO 39 0 min 0,000 mm 0,0 UV-I 0 W/m 7,5 C 13,4 C 12,9 km/h (3 Bft) 95,65 %
08.05.2016 22:12 14,2 C 64 % 1013,1 hPa 0,0 l/m 7,7 km/h (2 Bft) NO 44 0 min 0,000 mm 0,0 UV-I 0 W/m 7,5 C 13,4 C 11,3 km/h (2 Bft) 100,00 %
08.05.2016 22:13 14,1 C 64 % 1013,2 hPa 0,0 l/m 6,8 km/h (2 Bft) NO 49 0 min 0,000 mm 0,0 UV-I 0 W/m 7,4 C 13,9 C 8,0 km/h (2 Bft) 100,00 %
08.05.2016 22:14 14,1 C 64 % 1013,2 hPa 0,0 l/m 8,7 km/h (2 Bft) NO 40 0 min 0,000 mm 0,0 UV-I 0 W/m 7,4 C 12,8 C 11,3 km/h (2 Bft) 100,00 %
08.05.2016 22:15 14,1 C 65 % 1013,2 hPa 0,0 l/m 7,2 km/h (2 Bft) NO 44 0 min 0,000 mm 0,0 UV-I 0 W/m 7,6 C 13,6 C 9,7 km/h (2 Bft) 100,00 %
08.05.2016 22:16 14,0 C 65 % 1013,2 hPa 0,0 l/m 9,1 km/h (2 Bft) NO 51 0 min 0,000 mm 0,0 UV-I 0 W/m 7,5 C 12,5 C 17,7 km/h (3 Bft) 100,00 %
08.05.2016 22:17 14,0 C 65 % 1013,2 hPa 0,0 l/m 8,1 km/h (2 Bft) NO 40 0 min 0,000 mm 0,0 UV-I 0 W/m 7,5 C 13,0 C 9,7 km/h (2 Bft) 100,00 %
08.05.2016 22:18 13,9 C 65 % 1013,2 hPa 0,0 l/m 9,8 km/h (2 Bft) O-NO 70 0 min 0,000 mm 0,0 UV-I 0 W/m 7,4 C 12,0 C 12,9 km/h (3 Bft) 100,00 %
08.05.2016 22:19 13,9 C 65 % 1013,2 hPa 0,0 l/m 9,1 km/h (2 Bft) O-NO 59 0 min 0,000 mm 0,0 UV-I 0 W/m 7,4 C 12,4 C 14,5 km/h (3 Bft) 100,00 %
08.05.2016 22:20 14,0 C 65 % 1013,2 hPa 0,0 l/m 8,2 km/h (2 Bft) O-NO 64 0 min 0,000 mm 0,0 UV-I 0 W/m 7,5 C 12,9 C 12,9 km/h (3 Bft) 100,00 %
08.05.2016 22:21 13,9 C 65 % 1013,3 hPa 0,0 l/m 9,0 km/h (2 Bft) NO 42 0 min 0,000 mm 0,0 UV-I 0 W/m 7,4 C 12,4 C 11,3 km/h (2 Bft) 100,00 %
08.05.2016 22:22 13,9 C 65 % 1013,2 hPa 0,0 l/m 8,2 km/h (2 Bft) NO 51 0 min 0,000 mm 0,0 UV-I 0 W/m 7,4 C 12,8 C 11,3 km/h (2 Bft) 100,00 %
08.05.2016 22:23 13,9 C 65 % 1013,2 hPa 0,0 l/m 8,1 km/h (2 Bft) NO 34 0 min 0,000 mm 0,0 UV-I 0 W/m 7,4 C 12,9 C 14,5 km/h (3 Bft) 100,00 %
08.05.2016 22:24 13,9 C 65 % 1013,2 hPa 0,0 l/m 8,7 km/h (2 Bft) O-NO 65 0 min 0,000 mm 0,0 UV-I 0 W/m 7,4 C 12,6 C 14,5 km/h (3 Bft) 100,00 %
08.05.2016 22:25 13,8 C 65 % 1013,2 hPa 0,0 l/m 10,3 km/h (2 Bft) O-NO 59 0 min 0,000 mm 0,0 UV-I 0 W/m 7,3 C 11,6 C 14,5 km/h (3 Bft) 95,65 %
08.05.2016 22:26 13,8 C 65 % 1013,2 hPa 0,0 l/m 11,1 km/h (2 Bft) NO 55 0 min 0,000 mm 0,0 UV-I 0 W/m 7,3 C 11,3 C 16,1 km/h (3 Bft) 100,00 %
08.05.2016 22:27 13,8 C 65 % 1013,2 hPa 0,0 l/m 9,7 km/h (2 Bft) O-NO 59 0 min 0,000 mm 0,0 UV-I 0 W/m 7,3 C 11,9 C 14,5 km/h (3 Bft) 100,00 %
08.05.2016 22:28 13,8 C 66 % 1013,2 hPa 0,0 l/m 9,3 km/h (2 Bft) O-NO 61 0 min 0,000 mm 0,0 UV-I 0 W/m 7,6 C 12,1 C 12,9 km/h (3 Bft) 95,83 %
08.05.2016 22:29 13,8 C 66 % 1013,1 hPa 0,0 l/m 7,2 km/h (2 Bft) NO 40 0 min 0,000 mm 0,0 UV-I 0 W/m 7,6 C 13,3 C 9,7 km/h (2 Bft) 100,00 %
08.05.2016 22:30 13,8 C 66 % 1013,2 hPa 0,0 l/m 8,0 km/h (2 Bft) O-NO 57 0 min 0,000 mm 0,0 UV-I 0 W/m 7,6 C 12,8 C 12,9 km/h (3 Bft) 100,00 %
08.05.2016 22:31 13,8 C 66 % 1013,2 hPa 0,0 l/m 8,0 km/h (2 Bft) NO 48 0 min 0,000 mm 0,0 UV-I 0 W/m 7,6 C 12,8 C 14,5 km/h (3 Bft) 100,00 %
08.05.2016 22:32 13,7 C 66 % 1013,2 hPa 0,0 l/m 7,8 km/h (2 Bft) NO 53 0 min 0,000 mm 0,0 UV-I 0 W/m 7,5 C 12,9 C 11,3 km/h (2 Bft) 100,00 %
08.05.2016 22:33 13,7 C 66 % 1013,2 hPa 0,0 l/m 8,4 km/h (2 Bft) O-NO 63 0 min 0,000 mm 0,0 UV-I 0 W/m 7,5 C 12,5 C 12,9 km/h (3 Bft) 100,00 %
08.05.2016 22:34 13,7 C 66 % 1013,2 hPa 0,0 l/m 9,0 km/h (2 Bft) NO 54 0 min 0,000 mm 0,0 UV-I 0 W/m 7,5 C 12,2 C 14,5 km/h (3 Bft) 100,00 %
08.05.2016 22:35 13,7 C 66 % 1013,2 hPa 0,0 l/m 7,7 km/h (2 Bft) O-NO 61 0 min 0,000 mm 0,0 UV-I 0 W/m 7,5 C 12,9 C 14,5 km/h (3 Bft) 100,00 %
08.05.2016 22:36 13,6 C 66 % 1013,2 hPa 0,0 l/m 8,8 km/h (2 Bft) O-NO 65 0 min 0,000 mm 0,0 UV-I 0 W/m 7,4 C 12,2 C 14,5 km/h (3 Bft) 100,00 %
08.05.2016 22:37 13,6 C 66 % 1013,2 hPa 0,0 l/m 8,9 km/h (2 Bft) O-NO 71 0 min 0,000 mm 0,0 UV-I 0 W/m 7,4 C 12,1 C 14,5 km/h (3 Bft) 100,00 %
08.05.2016 22:38 13,6 C 66 % 1013,2 hPa 0,0 l/m 6,7 km/h (2 Bft) O-NO 73 0 min 0,000 mm 0,0 UV-I 0 W/m 7,4 C 13,4 C 9,7 km/h (2 Bft) 100,00 %
08.05.2016 22:39 13,6 C 66 % 1013,1 hPa 0,0 l/m 9,5 km/h (2 Bft) NO 46 0 min 0,000 mm 0,0 UV-I 0 W/m 7,4 C 11,8 C 12,9 km/h (3 Bft) 100,00 %
08.05.2016 22:40 13,6 C 67 % 1013,1 hPa 0,0 l/m 11,3 km/h (2 Bft) NO 45 0 min 0,000 mm 0,0 UV-I 0 W/m 7,6 C 11,0 C 14,5 km/h (3 Bft) 100,00 %
08.05.2016 22:41 13,6 C 66 % 1013,2 hPa 0,0 l/m 7,5 km/h (2 Bft) NO 42 0 min 0,000 mm 0,0 UV-I 0 W/m 7,4 C 12,9 C 11,3 km/h (2 Bft) 93,33 %
08.05.2016 22:42 13,5 C 67 % 1013,2 hPa 0,0 l/m 7,9 km/h (2 Bft) O-NO 65 0 min 0,000 mm 0,0 UV-I 0 W/m 7,5 C 12,6 C 14,5 km/h (3 Bft) 100,00 %
08.05.2016 22:43 13,5 C 67 % 1013,1 hPa 0,0 l/m 9,6 km/h (2 Bft) NO 55 0 min 0,000 mm 0,0 UV-I 0 W/m 7,5 C 11,7 C 16,1 km/h (3 Bft) 100,00 %
08.05.2016 22:44 13,5 C 67 % 1013,1 hPa 0,0 l/m 8,5 km/h (2 Bft) O-NO 57 0 min 0,000 mm 0,0 UV-I 0 W/m 7,5 C 12,2 C 14,5 km/h (3 Bft) 100,00 %
08.05.2016 22:45 13,5 C 67 % 1013,1 hPa 0,0 l/m 8,4 km/h (2 Bft) NO 44 0 min 0,000 mm 0,0 UV-I 0 W/m 7,5 C 12,3 C 16,1 km/h (3 Bft) 100,00 %
08.05.2016 22:46 13,5 C 67 % 1013,1 hPa 0,0 l/m 10,8 km/h (2 Bft) O-NO 67 0 min 0,000 mm 0,0 UV-I 0 W/m 7,5 C 11,1 C 14,5 km/h (3 Bft) 100,00 %
08.05.2016 22:47 13,4 C 67 % 1013,1 hPa 0,0 l/m 8,9 km/h (2 Bft) NO 53 0 min 0,000 mm 0,0 UV-I 0 W/m 7,4 C 11,9 C 11,3 km/h (2 Bft) 100,00 %
08.05.2016 22:48 13,4 C 67 % 1013,1 hPa 0,0 l/m 9,3 km/h (2 Bft) O-NO 73 0 min 0,000 mm 0,0 UV-I 0 W/m 7,4 C 11,7 C 14,5 km/h (3 Bft) 100,00 %
08.05.2016 22:49 13,4 C 67 % 1013,1 hPa 0,0 l/m 8,9 km/h (2 Bft) NO 55 0 min 0,000 mm 0,0 UV-I 0 W/m 7,4 C 11,9 C 14,5 km/h (3 Bft) 96,30 %
08.05.2016 22:50 13,4 C 67 % 1013,1 hPa 0,0 l/m 9,1 km/h (2 Bft) O-NO 58 0 min 0,000 mm 0,0 UV-I 0 W/m 7,4 C 11,8 C 14,5 km/h (3 Bft) 100,00 %
08.05.2016 22:51 13,4 C 67 % 1013,1 hPa 0,0 l/m 8,9 km/h (2 Bft) O-NO 60 0 min 0,000 mm 0,0 UV-I 0 W/m 7,4 C 11,9 C 12,9 km/h (3 Bft) 100,00 %
08.05.2016 22:52 13,4 C 67 % 1013,1 hPa 0,0 l/m 13,0 km/h (3 Bft) O-NO 62 0 min 0,000 mm 0,0 UV-I 0 W/m 7,4 C 10,0 C 17,7 km/h (3 Bft) 100,00 %
08.05.2016 22:53 13,4 C 67 % 1013,1 hPa 0,0 l/m 10,1 km/h (2 Bft) NO 36 0 min 0,000 mm 0,0 UV-I 0 W/m 7,4 C 11,3 C 14,5 km/h (3 Bft) 98,53 %
08.05.2016 22:54 13,4 C 67 % 1013,1 hPa 0,0 l/m 10,9 km/h (2 Bft) NO 47 0 min 0,000 mm 0,0 UV-I 0 W/m 7,4 C 10,9 C 14,5 km/h (3 Bft) 100,00 %
08.05.2016 22:55 13,4 C 67 % 1013,1 hPa 0,0 l/m 8,6 km/h (2 Bft) NO 34 0 min 0,000 mm 0,0 UV-I 0 W/m 7,4 C 12,1 C 12,9 km/h (3 Bft) 100,00 %
08.05.2016 22:56 13,4 C 67 % 1013,2 hPa 0,0 l/m 10,5 km/h (2 Bft) NO 48 0 min 0,000 mm 0,0 UV-I 0 W/m 7,4 C 11,1 C 16,1 km/h (3 Bft) 96,30 %
08.05.2016 22:57 13,3 C 68 % 1013,1 hPa 0,0 l/m 12,0 km/h (2 Bft) NO 44 0 min 0,000 mm 0,0 UV-I 0 W/m 7,5 C 10,3 C 19,3 km/h (3 Bft) 100,00 %
08.05.2016 22:58 13,3 C 67 % 1013,1 hPa 0,0 l/m 12,4 km/h (3 Bft) O-NO 62 0 min 0,000 mm 0,0 UV-I 0 W/m 7,3 C 10,1 C 20,9 km/h (4 Bft) 100,00 %
08.05.2016 22:59 13,3 C 67 % 1013,2 hPa 0,0 l/m 11,7 km/h (2 Bft) N-NO 26 0 min 0,000 mm 0,0 UV-I 0 W/m 7,3 C 10,4 C 14,5 km/h (3 Bft) 100,00 %
08.05.2016 23:00 13,3 C 67 % 1013,1 hPa 0,0 l/m 10,7 km/h (2 Bft) O-NO 61 0 min 0,000 mm 0,0 UV-I 0 W/m 7,3 C 10,9 C 20,9 km/h (4 Bft) 100,00 %
08.05.2016 23:01 13,3 C 67 % 1013,2 hPa 0,0 l/m 9,5 km/h (2 Bft) NO 41 0 min 0,051 mm 0,0 UV-I 0 W/m 7,3 C 11,5 C 12,9 km/h (3 Bft) 100,00 %
08.05.2016 23:02 13,3 C 67 % 1013,2 hPa 0,0 l/m 9,1 km/h (2 Bft) NO 48 0 min 0,000 mm 0,0 UV-I 0 W/m 7,3 C 11,7 C 14,5 km/h (3 Bft) 100,00 %
08.05.2016 23:03 13,3 C 67 % 1013,2 hPa 0,0 l/m 13,6 km/h (3 Bft) N-NO 13 0 min 0,000 mm 0,0 UV-I 0 W/m 7,3 C 9,7 C 17,7 km/h (3 Bft) 100,00 %
08.05.2016 23:04 13,3 C 67 % 1013,2 hPa 0,0 l/m 11,9 km/h (2 Bft) O-NO 76 0 min 0,000 mm 0,0 UV-I 0 W/m 7,3 C 10,4 C 17,7 km/h (3 Bft) 100,00 %
08.05.2016 23:05 13,3 C 67 % 1013,2 hPa 0,0 l/m 13,3 km/h (3 Bft) O-NO 63 0 min 0,000 mm 0,0 UV-I 0 W/m 7,3 C 9,8 C 17,7 km/h (3 Bft) 100,00 %
08.05.2016 23:06 13,3 C 67 % 1013,2 hPa 0,0 l/m 11,4 km/h (2 Bft) O-NO 64 0 min 0,000 mm 0,0 UV-I 0 W/m 7,3 C 10,6 C 16,1 km/h (3 Bft) 100,00 %
08.05.2016 23:07 13,4 C 67 % 1013,2 hPa 0,0 l/m 10,4 km/h (2 Bft) NO 50 0 min 0,000 mm 0,0 UV-I 0 W/m 7,4 C 11,2 C 14,5 km/h (3 Bft) 100,00 %
08.05.2016 23:08 13,4 C 67 % 1013,2 hPa 0,0 l/m 10,0 km/h (2 Bft) O-NO 57 0 min 0,000 mm 0,0 UV-I 0 W/m 7,4 C 11,4 C 12,9 km/h (3 Bft) 100,00 %
08.05.2016 23:09 13,4 C 67 % 1013,2 hPa 0,0 l/m 11,5 km/h (2 Bft) O-NO 59 0 min 0,000 mm 0,0 UV-I 0 W/m 7,4 C 10,6 C 16,1 km/h (3 Bft) 100,00 %
08.05.2016 23:10 13,4 C 68 % 1013,2 hPa 0,0 l/m 10,4 km/h (2 Bft) NO 51 0 min 0,000 mm 0,0 UV-I 0 W/m 7,6 C 11,2 C 16,1 km/h (3 Bft) 100,00 %
08.05.2016 23:11 13,3 C 68 % 1013,2 hPa 0,0 l/m 13,3 km/h (3 Bft) O-NO 65 0 min 0,000 mm 0,0 UV-I 0 W/m 7,5 C 9,8 C 17,7 km/h (3 Bft) 100,00 %
08.05.2016 23:12 13,3 C 68 % 1013,2 hPa 0,0 l/m 15,9 km/h (3 Bft) O-NO 63 0 min 0,000 mm 0,0 UV-I 0 W/m 7,5 C 8,8 C 20,9 km/h (4 Bft) 100,00 %
08.05.2016 23:13 13,3 C 68 % 1013,2 hPa 0,0 l/m 14,0 km/h (3 Bft) O-NO 68 0 min 0,000 mm 0,0 UV-I 0 W/m 7,5 C 9,5 C 19,3 km/h (3 Bft) 100,00 %
08.05.2016 23:14 13,3 C 68 % 1013,2 hPa 0,0 l/m 11,1 km/h (2 Bft) O-NO 63 0 min 0,000 mm 0,0 UV-I 0 W/m 7,5 C 10,7 C 16,1 km/h (3 Bft) 100,00 %
08.05.2016 23:15 13,3 C 68 % 1013,2 hPa 0,0 l/m 9,3 km/h (2 Bft) O-NO 65 0 min 0,000 mm 0,0 UV-I 0 W/m 7,5 C 11,6 C 11,3 km/h (2 Bft) 100,00 %
08.05.2016 23:16 13,3 C 68 % 1013,3 hPa 0,0 l/m 12,2 km/h (2 Bft) NO 53 0 min 0,000 mm 0,0 UV-I 0 W/m 7,5 C 10,2 C 14,5 km/h (3 Bft) 100,00 %
08.05.2016 23:17 13,3 C 68 % 1013,3 hPa 0,0 l/m 10,9 km/h (2 Bft) O-NO 70 0 min 0,000 mm 0,0 UV-I 0 W/m 7,5 C 10,8 C 14,5 km/h (3 Bft) 100,00 %
08.05.2016 23:18 13,3 C 68 % 1013,3 hPa 0,0 l/m 13,6 km/h (3 Bft) O-NO 63 0 min 0,000 mm 0,0 UV-I 0 W/m 7,5 C 9,7 C 17,7 km/h (3 Bft) 100,00 %
08.05.2016 23:19 13,2 C 69 % 1013,2 hPa 0,0 l/m 14,0 km/h (3 Bft) NO 53 0 min 0,000 mm 0,0 UV-I 0 W/m 7,6 C 9,4 C 19,3 km/h (3 Bft) 92,59 %
08.05.2016 23:20 13,2 C 69 % 1013,2 hPa 0,0 l/m 13,2 km/h (3 Bft) NO 56 0 min 0,000 mm 0,0 UV-I 0 W/m 7,6 C 9,7 C 16,1 km/h (3 Bft) 100,00 %
08.05.2016 23:21 13,2 C 69 % 1013,2 hPa 0,0 l/m 12,9 km/h (3 Bft) O 79 0 min 0,000 mm 0,0 UV-I 0 W/m 7,6 C 9,8 C 16,1 km/h (3 Bft) 96,97 %
08.05.2016 23:22 13,2 C 69 % 1013,2 hPa 0,0 l/m 10,5 km/h (2 Bft) O-NO 63 0 min 0,000 mm 0,0 UV-I 0 W/m 7,6 C 10,9 C 17,7 km/h (3 Bft) 95,65 %
08.05.2016 23:23 13,2 C 69 % 1013,3 hPa 0,0 l/m 13,6 km/h (3 Bft) NO 42 0 min 0,000 mm 0,0 UV-I 0 W/m 7,6 C 9,5 C 17,7 km/h (3 Bft) 100,00 %
08.05.2016 23:24 13,2 C 69 % 1013,2 hPa 0,0 l/m 13,0 km/h (3 Bft) O-NO 57 0 min 0,000 mm 0,0 UV-I 0 W/m 7,6 C 9,8 C 19,3 km/h (3 Bft) 95,65 %
08.05.2016 23:25 13,2 C 69 % 1013,2 hPa 0,0 l/m 11,1 km/h (2 Bft) O-NO 77 0 min 0,000 mm 0,0 UV-I 0 W/m 7,6 C 10,6 C 16,1 km/h (3 Bft) 100,00 %
08.05.2016 23:26 13,1 C 69 % 1013,2 hPa 0,0 l/m 13,0 km/h (3 Bft) O-NO 73 0 min 0,000 mm 0,0 UV-I 0 W/m 7,5 C 9,7 C 16,1 km/h (3 Bft) 96,15 %
08.05.2016 23:27 13,1 C 69 % 1013,2 hPa 0,0 l/m 11,1 km/h (2 Bft) NO 41 0 min 0,000 mm 0,0 UV-I 0 W/m 7,5 C 10,5 C 16,1 km/h (3 Bft) 100,00 %
08.05.2016 23:28 13,1 C 69 % 1013,3 hPa 0,0 l/m 11,9 km/h (2 Bft) NO 56 0 min 0,000 mm 0,0 UV-I 0 W/m 7,5 C 10,1 C 16,1 km/h (3 Bft) 96,15 %
08.05.2016 23:29 13,1 C 69 % 1013,2 hPa 0,0 l/m 10,8 km/h (2 Bft) NO 43 0 min 0,000 mm 0,0 UV-I 0 W/m 7,5 C 10,6 C 17,7 km/h (3 Bft) 92,59 %
08.05.2016 23:30 13,1 C 69 % 1013,3 hPa 0,0 l/m 13,8 km/h (3 Bft) NO 54 0 min 0,000 mm 0,0 UV-I 0 W/m 7,5 C 9,3 C 20,9 km/h (4 Bft) 100,00 %
08.05.2016 23:31 13,0 C 69 % 1013,3 hPa 0,0 l/m 14,4 km/h (3 Bft) O-NO 63 0 min 0,000 mm 0,0 UV-I 0 W/m 7,4 C 9,0 C 17,7 km/h (3 Bft) 96,15 %
08.05.2016 23:32 13,0 C 69 % 1013,3 hPa 0,0 l/m 9,8 km/h (2 Bft) O-NO 59 0 min 0,000 mm 0,0 UV-I 0 W/m 7,4 C 11,0 C 16,1 km/h (3 Bft) 93,33 %
08.05.2016 23:33 13,0 C 70 % 1013,3 hPa 0,0 l/m 11,5 km/h (2 Bft) NO 55 0 min 0,000 mm 0,0 UV-I 0 W/m 7,7 C 10,2 C 16,1 km/h (3 Bft) 97,37 %
08.05.2016 23:34 12,9 C 70 % 1013,3 hPa 0,0 l/m 13,7 km/h (3 Bft) O-NO 65 0 min 0,000 mm 0,0 UV-I 0 W/m 7,6 C 9,1 C 17,7 km/h (3 Bft) 100,00 %
08.05.2016 23:35 12,9 C 70 % 1013,3 hPa 0,0 l/m 13,7 km/h (3 Bft) O-NO 63 0 min 0,000 mm 0,0 UV-I 0 W/m 7,6 C 9,1 C 17,7 km/h (3 Bft) 95,65 %
08.05.2016 23:36 12,9 C 70 % 1013,3 hPa 0,0 l/m 13,7 km/h (3 Bft) O-NO 57 0 min 0,000 mm 0,0 UV-I 0 W/m 7,6 C 9,1 C 17,7 km/h (3 Bft) 100,00 %
08.05.2016 23:37 12,9 C 70 % 1013,3 hPa 0,0 l/m 10,7 km/h (2 Bft) O-NO 63 0 min 0,000 mm 0,0 UV-I 0 W/m 7,6 C 10,5 C 16,1 km/h (3 Bft) 91,30 %
08.05.2016 23:38 12,9 C 70 % 1013,3 hPa 0,0 l/m 11,8 km/h (2 Bft) NO 41 0 min 0,000 mm 0,0 UV-I 0 W/m 7,6 C 9,9 C 14,5 km/h (3 Bft) 87,50 %
08.05.2016 23:39 12,9 C 70 % 1013,3 hPa 0,0 l/m 9,4 km/h (2 Bft) NO 46 0 min 0,000 mm 0,0 UV-I 0 W/m 7,6 C 11,1 C 12,9 km/h (3 Bft) 100,00 %
08.05.2016 23:40 12,9 C 70 % 1013,3 hPa 0,0 l/m 14,2 km/h (3 Bft) O-NO 65 0 min 0,000 mm 0,0 UV-I 0 W/m 7,6 C 8,9 C 17,7 km/h (3 Bft) 96,30 %
08.05.2016 23:41 12,9 C 70 % 1013,3 hPa 0,0 l/m 8,4 km/h (2 Bft) O-NO 59 0 min 0,000 mm 0,0 UV-I 0 W/m 7,6 C 11,7 C 12,9 km/h (3 Bft) 98,52 %
08.05.2016 23:42 12,8 C 70 % 1013,3 hPa 0,0 l/m 7,9 km/h (2 Bft) O-NO 59 0 min 0,000 mm 0,0 UV-I 0 W/m 7,5 C 11,9 C 12,9 km/h (3 Bft) 97,56 %
08.05.2016 23:43 12,8 C 70 % 1013,3 hPa 0,0 l/m 8,4 km/h (2 Bft) O-NO 63 0 min 0,000 mm 0,0 UV-I 0 W/m 7,5 C 11,6 C 12,9 km/h (3 Bft) 100,00 %
08.05.2016 23:44 12,8 C 70 % 1013,3 hPa 0,0 l/m 10,5 km/h (2 Bft) O-NO 78 0 min 0,000 mm 0,0 UV-I 0 W/m 7,5 C 10,4 C 14,5 km/h (3 Bft) 96,55 %
08.05.2016 23:45 12,8 C 70 % 1013,3 hPa 0,0 l/m 14,2 km/h (3 Bft) NO 50 0 min 0,000 mm 0,0 UV-I 0 W/m 7,5 C 8,8 C 19,3 km/h (3 Bft) 100,00 %
08.05.2016 23:46 12,8 C 70 % 1013,3 hPa 0,0 l/m 12,5 km/h (3 Bft) NO 54 0 min 0,000 mm 0,0 UV-I 0 W/m 7,5 C 9,5 C 17,7 km/h (3 Bft) 96,30 %
08.05.2016 23:47 12,8 C 71 % 1013,3 hPa 0,0 l/m 10,2 km/h (2 Bft) O-NO 61 0 min 0,000 mm 0,0 UV-I 0 W/m 7,7 C 10,6 C 16,1 km/h (3 Bft) 100,00 %
08.05.2016 23:48 12,8 C 71 % 1013,3 hPa 0,0 l/m 12,2 km/h (2 Bft) O-NO 74 0 min 0,000 mm 0,0 UV-I 0 W/m 7,7 C 9,7 C 16,1 km/h (3 Bft) 96,15 %
08.05.2016 23:49 12,8 C 71 % 1013,4 hPa 0,0 l/m 12,6 km/h (3 Bft) NO 55 0 min 0,000 mm 0,0 UV-I 0 W/m 7,7 C 9,5 C 17,7 km/h (3 Bft) 96,30 %
08.05.2016 23:50 12,8 C 71 % 1013,3 hPa 0,0 l/m 12,5 km/h (3 Bft) O-NO 63 0 min 0,000 mm 0,0 UV-I 0 W/m 7,7 C 9,5 C 16,1 km/h (3 Bft) 100,00 %
08.05.2016 23:51 12,8 C 71 % 1013,3 hPa 0,0 l/m 11,9 km/h (2 Bft) O-NO 57 0 min 0,000 mm 0,0 UV-I 0 W/m 7,7 C 9,8 C 16,1 km/h (3 Bft) 95,83 %
08.05.2016 23:52 12,8 C 71 % 1013,3 hPa 0,0 l/m 9,5 km/h (2 Bft) O-NO 60 0 min 0,000 mm 0,0 UV-I 0 W/m 7,7 C 10,9 C 12,9 km/h (3 Bft) 100,00 %
08.05.2016 23:53 12,8 C 71 % 1013,3 hPa 0,0 l/m 10,8 km/h (2 Bft) N-NO 30 0 min 0,000 mm 0,0 UV-I 0 W/m 7,7 C 10,3 C 17,7 km/h (3 Bft) 100,00 %
08.05.2016 23:54 12,8 C 71 % 1013,3 hPa 0,0 l/m 13,4 km/h (3 Bft) O-NO 69 0 min 0,000 mm 0,0 UV-I 0 W/m 7,7 C 9,1 C 19,3 km/h (3 Bft) 100,00 %
08.05.2016 23:55 12,8 C 71 % 1013,3 hPa 0,0 l/m 11,6 km/h (2 Bft) O-NO 60 0 min 0,000 mm 0,0 UV-I 0 W/m 7,7 C 9,9 C 16,1 km/h (3 Bft) 96,30 %
08.05.2016 23:56 12,7 C 71 % 1013,3 hPa 0,0 l/m 13,3 km/h (3 Bft) NO 55 0 min 0,000 mm 0,0 UV-I 0 W/m 7,6 C 9,1 C 16,1 km/h (3 Bft) 100,00 %
08.05.2016 23:57 12,7 C 71 % 1013,3 hPa 0,0 l/m 12,3 km/h (3 Bft) O-NO 57 0 min 0,000 mm 0,0 UV-I 0 W/m 7,6 C 9,5 C 16,1 km/h (3 Bft) 100,00 %
08.05.2016 23:58 12,7 C 72 % 1013,3 hPa 0,0 l/m 11,6 km/h (2 Bft) NO 50 0 min 0,000 mm 0,0 UV-I 0 W/m 7,8 C 9,8 C 16,1 km/h (3 Bft) 100,00 %
08.05.2016 23:59 12,7 C 72 % 1013,3 hPa 0,0 l/m 10,8 km/h (2 Bft) NO 56 0 min 0,000 mm 0,0 UV-I 0 W/m 7,8 C 10,2 C 14,5 km/h (3 Bft) 100,00 %
_ Min-Zeit 05:00 16:26 04:16 - 04:42 - - - - - - 02:52 04:10 04:42 05:52
Minimum _ 9,6 C 46 % 1011,2 hPa - 6,4 km/h (2 Bft) - - - - - - 5,0 C 3,0 C 8,0 km/h (2 Bft) 86,96 %
_ Max-Zeit 15:29 05:56 23:49 00:00 16:58 - - 15:02 14:00 12:43 12:50 12:28 15:31 13:40 00:00
Maximum _ 20,7 C 77 % 1013,4 hPa 0,0 l/m 39,1 km/h
O (6 Bft)
- - 2 min 0,661 mm 4,8 UV-I 854 W/m 11,9 C 17,4 C 51,5 km/h
O-NO (7 Bft)
100,00 %
Durchschnitt _ 15,2 C 62 % 1012,3 hPa #0,0 l/m 19,9 km/h (4 Bft) O-NO - #12:29 h #6,350 mm 2,8 UV-I 474 W/m 7,7 C 10,6 C 27,0 km/h (4 Bft) 98,50 %